Date StartTime U_cm/s V_cm/s W_cm/s Ustd_cm/s Vstd_cm/s Wstd_cm/s Uvar_(cm/s)^2 Vvar_(cm/s)^2 Wvar_(cm/s)^2 KE_(m/s)^2 TurbulentKE_(m/s)^2 HorizWindSpeed_cm/s FrictionSpeec_cm/s DragCoef SpeedOfSound_m/s SonicTemperature_C Pressure_mb 
05/25/2013  00:00:00     -347.003      -65.714        2.001      156.132      111.626       75.237    24377.157    12460.308     5660.563        8.361        2.125      353.171       79.698        0.051      340.198       14.049      858.209
05/25/2013  00:01:00     -453.993       -1.425      -45.454      149.760      113.033       70.881    22427.978    12776.509     5024.072       12.420        2.011      453.995       75.500        0.028      340.198       14.047      858.209
05/25/2013  00:02:00     -388.189      -68.709      -18.948      180.649      129.369       69.388    32633.970    16736.362     4814.699       10.497        2.709      394.223       86.869        0.049      340.181       14.020      858.220
05/25/2013  00:03:00     -286.196      -86.440      -14.378      124.847       82.251       49.626    15586.812     6765.189     2462.767        5.720        1.241      298.965       52.047        0.030      340.163       13.991      858.235
05/25/2013  00:04:00     -212.495     -110.901       -5.011       99.733      101.478       51.034     9946.600    10297.773     2604.481        4.016        1.142      239.694       47.432        0.039      340.158       13.982      858.253
05/25/2013  00:05:00     -307.801      -82.237       -6.324      133.519      105.702       56.843    17827.232    11172.934     3231.175        6.688        1.612      318.598       44.278        0.019      340.173       14.006      858.257
05/25/2013  00:06:00     -381.956      -24.215      -25.786      167.472      107.228       68.232    28046.974    11497.833     4655.674        9.566        2.210      382.723       71.863        0.035      340.162       13.990      858.262
05/25/2013  00:07:00     -502.762     -104.005      -23.619      158.955      152.673       81.182    25266.787    23308.999     6590.440       15.965        2.758      513.407       77.031        0.023      340.177       14.013      858.247
05/25/2013  00:08:00     -439.766      -50.331      -26.708      126.749      131.753       73.936    16065.241    17358.747     5466.591       11.776        1.945      442.636       72.178        0.027      340.179       14.017      858.244
05/25/2013  00:09:00     -478.181      -86.439      -40.445      114.024      143.115       66.877    13001.390    20481.977     4472.530       13.785        1.898      485.930       58.074        0.014      340.195       14.044      858.236
05/25/2013  00:10:00     -345.402      -58.472      -19.032      149.669      127.130       74.064    22400.802    16162.146     5485.479        8.356        2.202      350.316       75.013        0.046      340.178       14.017      858.231
05/25/2013  00:11:00     -396.085      -44.171      -29.649      147.734      104.526       67.598    21825.444    10925.670     4569.471        9.851        1.866      398.541       71.093        0.032      340.171       14.005      858.228
05/25/2013  00:12:00     -194.648      -54.964       -0.302      159.800       95.904       73.025    25535.919     9197.542     5332.719        4.048        2.003      202.259       87.155        0.186      340.176       14.013      858.211
05/25/2013  00:13:00     -286.019     -105.286      -10.190      130.355      139.402       65.951    16992.502    19433.030     4349.471        6.688        2.039      304.782       56.155        0.034      340.155       13.977      858.213
05/25/2013  00:14:00     -380.960     -167.106      -18.726      141.787      128.012       76.215    20103.679    16387.067     5808.730       10.785        2.115      415.999       78.858        0.036      340.154       13.976      858.212
05/25/2013  00:15:00     -487.488     -177.163      -50.541      119.846      136.631       77.118    14363.183    18667.978     5947.212       15.528        1.949      518.682       62.648        0.015      340.168       13.996      858.201
05/25/2013  00:16:00     -416.882      -50.929      -45.027      153.973      135.482       75.681    23707.793    18355.386     5727.679       11.309        2.390      419.981       83.278        0.039      340.182       14.022      858.207
05/25/2013  00:17:00     -454.118      -17.565      -35.879      172.848      120.638       76.393    29876.587    14553.544     5835.833       12.903        2.513      454.458       83.889        0.034      340.182       14.023      858.220
05/25/2013  00:18:00     -504.836      -93.914      -35.974      167.399      102.810       71.982    28022.433    10569.988     5181.345       15.437        2.189      513.497       75.492        0.022      340.182       14.022      858.223
05/25/2013  00:19:00     -203.309       -6.320      -14.245      124.479       92.177       56.790    15495.096     8496.605     3225.105        3.439        1.361      203.407       42.127        0.043      340.177       14.015      858.207
05/25/2013  00:20:00     -233.372      -60.306        4.019      173.496      108.348       57.877    30100.938    11739.238     3349.690        5.165        2.259      241.038       64.033        0.071      340.133       13.941      858.185
05/25/2013  00:21:00     -334.854      -56.084      -25.319      148.517      110.336       69.506    22057.232    12174.116     4831.090        7.748        1.953      339.519       51.190        0.023      340.146       13.961      858.183
05/25/2013  00:22:00     -380.163      -40.944      -21.275      162.692      167.456       73.668    26468.576    28041.372     5427.021       10.328        2.997      382.362       72.962        0.036      340.128       13.932      858.181
05/25/2013  00:23:00     -426.641      -40.053      -37.768      156.223      128.321       80.073    24405.553    16466.277     6411.659       11.616        2.364      428.517       85.316        0.040      340.125       13.927      858.184
05/25/2013  00:24:00     -306.978      -84.416      -26.033      132.224       98.013       60.807    17483.259     9606.601     3697.548        6.641        1.539      318.373       64.064        0.040      340.108       13.898      858.182
05/25/2013  00:25:00     -217.443     -108.150      -29.277      120.645       80.576       61.901    14555.180     6492.449     3831.682        4.235        1.244      242.853       42.374        0.030      340.110       13.903      858.183
05/25/2013  00:26:00     -305.323     -101.825      -30.460      199.007      154.900       74.504    39603.965    23994.157     5550.833        8.682        3.457      321.854       68.160        0.045      340.123       13.923      858.183
05/25/2013  00:27:00     -311.120      -83.348       -9.459      134.644      110.234       60.858    18128.931    12151.447     3703.721        6.890        1.699      322.091       53.902        0.028      340.102       13.888      858.194
05/25/2013  00:28:00     -326.615      -56.685      -20.954      143.354      116.161       60.242    20550.230    13493.382     3629.120        7.399        1.884      331.498       51.553        0.024      340.091       13.869      858.221
05/25/2013  00:29:00     -365.472       68.540      -45.504      132.074      154.737       69.825    17443.561    23943.446     4875.495        9.329        2.313      371.844       29.304        0.006      340.103       13.889      858.224
05/25/2013  00:30:00     -387.985      -72.333      -42.764      178.160      151.440       66.895    31741.049    22934.100     4474.906       10.836        2.958      394.670       65.291        0.027      340.084       13.856      858.225
05/25/2013  00:31:00     -382.654     -124.647      -50.079      141.491      126.833       72.811    20019.638    16086.613     5301.431       10.293        2.070      402.444       51.365        0.016      340.074       13.839      858.210
05/25/2013  00:32:00     -363.232      -87.446      -36.077      138.906      101.536       61.141    19295.002    10309.631     3738.221        8.711        1.667      373.610       61.411        0.027      340.072       13.836      858.222
05/25/2013  00:33:00     -334.222      -86.498      -24.815      119.059      108.826       60.393    14175.133    11843.000     3647.288        7.473        1.483      345.234       50.867        0.022      340.056       13.810      858.228
05/25/2013  00:34:00     -373.655      -22.451      -22.183      153.331      127.288       56.788    23510.442    16202.143     3224.865        9.177        2.147      374.329       60.307        0.026      340.034       13.769      858.217
05/25/2013  00:35:00     -267.020      -36.818      -24.282      129.241      110.614       60.317    16703.345    12235.426     3638.136        5.291        1.629      269.546       61.370        0.052      340.048       13.795      858.209
05/25/2013  00:36:00     -428.235      -98.734      -31.601      157.056      129.666       74.993    24666.574    16813.165     5623.945       12.061        2.355      439.470       72.793        0.027      340.041       13.784      858.207
05/25/2013  00:37:00     -401.833       23.878      -28.649      155.671      137.907       83.278    24233.335    19018.424     6935.181       10.652        2.509      402.542       79.436        0.039      340.040       13.783      858.207
05/25/2013  00:38:00     -364.917      -44.660      -13.099      132.945      115.484       71.334    17674.284    13336.446     5088.565        8.571        1.805      367.640       65.645        0.032      340.030       13.766      858.194
05/25/2013  00:39:00     -402.224     -156.088      -30.201      158.406      168.615       72.026    25092.535    28430.851     5187.750       12.288        2.936      431.448       62.431        0.021      340.043       13.787      858.188
05/25/2013  00:40:00     -324.665     -141.328      -23.529      140.152      119.265       71.329    19642.547    14224.250     5087.787        8.244        1.948      354.091       65.644        0.034      340.023       13.755      858.207
05/25/2013  00:41:00     -308.944     -119.565       -5.508      114.229       94.513       58.583    13048.253     8932.620     3431.958        6.759        1.271      331.273       55.659        0.028      340.028       13.762      858.215
05/25/2013  00:42:00     -331.735      -72.037      -30.841      105.208       85.811       46.465    11068.822     7363.561     2159.020        6.839        1.030      339.466       35.284        0.011      340.018       13.744      858.228
05/25/2013  00:43:00     -299.831      -61.107      -11.700      136.004      115.944       58.429    18496.979    13443.050     3413.891        6.456        1.768      305.994       70.886        0.054      340.009       13.730      858.245
05/25/2013  00:44:00     -341.139      -56.658      -30.068      111.518      109.208       51.527    12436.299    11926.376     2655.000        7.375        1.351      345.812       51.017        0.022      340.013       13.737      858.253
05/25/2013  00:45:00     -334.891       38.553      -30.423      106.212      104.949       59.771    11281.060    11014.275     3572.610        7.021        1.293      337.103       47.708        0.020      340.004       13.722      858.237
05/25/2013  00:46:00     -307.137     -126.419      -15.755      123.468       90.984       58.191    15244.437     8278.087     3386.236        6.873        1.345      332.137       52.457        0.025      340.016       13.741      858.236
05/25/2013  00:47:00     -291.882     -103.079      -12.467      143.609       98.613       57.241    20623.516     9724.436     3276.577        6.479        1.681      309.549       57.834        0.035      339.997       13.709      858.239
05/25/2013  00:48:00     -340.305      -26.792      -16.798      181.867      118.360       56.986    33075.434    14009.137     3247.406        8.356        2.517      341.358       72.750        0.045      340.012       13.737      858.230
05/25/2013  00:49:00     -387.801      -61.558      -46.691       81.564      108.678       53.557     6652.738    11810.810     2868.358        8.884        1.067      392.657       35.145        0.008      340.017       13.743      858.222
05/25/2013  00:50:00     -270.490      -54.245       -2.530      117.095       88.992       53.273    13711.343     7919.637     2838.055        5.029        1.223      275.876       52.652        0.036      339.978       13.679      858.238
05/25/2013  00:51:00     -120.638      -43.713        2.955      117.753       80.066       56.610    13865.865     6410.562     3204.739        1.997        1.174      128.313       62.604        0.238      340.027       13.762      858.214
05/25/2013  00:52:00     -299.088       19.151      -19.366      166.467      132.171       61.261    27711.124    17469.089     3752.943        6.956        2.447      299.700       64.403        0.046      340.018       13.745      858.208
05/25/2013  00:53:00     -318.603      -39.589      -16.154      174.032      125.550       66.103    30287.196    15762.764     4369.541        7.687        2.521      321.053       62.324        0.038      340.010       13.732      858.198
05/25/2013  00:54:00     -333.821      -28.153      -12.946      141.428      138.278       71.094    20001.972    19120.777     5054.386        7.828        2.209      335.006       60.446        0.033      340.046       13.793      858.192
05/25/2013  00:55:00     -337.579     -122.244      -14.810      118.924       94.426       57.524    14142.861     8916.304     3308.998        7.774        1.318      359.031       30.976        0.007      340.057       13.809      858.195
05/25/2013  00:56:00     -346.624      -46.777       -1.251      140.865       97.008       54.441    19843.029     9410.472     2963.834        7.727        1.611      349.766       61.972        0.031      340.063       13.821      858.213
05/25/2013  00:57:00     -321.584      -16.604      -10.267      116.571      107.831       46.037    13588.753    11627.563     2119.442        6.556        1.367      322.012       43.592        0.018      340.047       13.793      858.209
05/25/2013  00:58:00     -311.054      -75.510      -24.562      116.731       88.060       54.599    13626.109     7754.497     2981.032        6.371        1.218      320.088       56.887        0.032      340.041       13.785      858.190
05/25/2013  00:59:00     -329.422      -40.839      -12.138      162.313       98.234       57.936    26345.621     9650.005     3356.586        7.484        1.968      331.944       67.049        0.041      340.001       13.718      858.182
05/25/2013  01:00:00     -403.571     -128.888       -8.951      162.662      123.909       74.637    26458.768    15353.478     5570.641       11.346        2.369      423.653       74.281        0.031      340.012       13.734      858.155
05/25/2013  01:01:00     -297.243      -49.128        2.411      103.302      105.623       61.527    10671.345    11156.264     3785.565        5.819        1.281      301.275       59.803        0.039      339.994       13.705      858.138
05/25/2013  01:02:00     -358.309      -96.514      -20.513      174.101      107.952       72.548    30311.111    11653.689     5263.216        9.267        2.361      371.080       82.946        0.050      340.004       13.722      858.127
05/25/2013  01:03:00     -406.796      -92.027       -1.660      177.577       99.915       68.112    31533.498     9983.097     4639.285       11.005        2.308      417.075       80.767        0.038      340.004       13.723      858.125
05/25/2013  01:04:00     -367.670        5.519       -5.460      155.049      110.851       72.206    24040.081    12287.834     5213.725        8.838        2.077      367.711       62.592        0.029      340.023       13.754      858.115
05/25/2013  01:05:00     -400.067      -43.262      -29.105      159.420      128.713       61.397    25414.594    16566.982     3769.583       10.425        2.288      402.399       65.175        0.026      339.999       13.714      858.135
05/25/2013  01:06:00     -402.112      -45.740      -18.673      182.775       99.864       75.638    33406.782     9972.840     5721.086       10.661        2.455      404.705       92.663        0.052      339.992       13.702      858.140
05/25/2013  01:07:00     -370.129     -134.721      -17.750      190.534      120.792       83.183    36303.215    14590.815     6919.360       10.663        2.891      393.885       85.529        0.047      340.015       13.741      858.141
05/25/2013  01:08:00     -294.972      -84.730       -1.721      196.384      120.832       77.907    38566.786    14600.290     6069.562        7.670        2.962      306.900       80.769        0.069      340.015       13.741      858.149
05/25/2013  01:09:00     -400.797      -60.954       -6.925      141.789      109.057       69.645    20104.227    11893.325     4850.410       10.062        1.842      405.405       69.496        0.029      340.006       13.725      858.153
05/25/2013  01:10:00     -464.070      -20.040      -30.483      146.863       90.930       62.602    21568.690     8268.323     3919.067       12.522        1.688      464.502       69.496        0.022      339.999       13.715      858.158
05/25/2013  01:11:00     -339.314      -50.476      -16.178      138.464       94.530       55.870    19172.264     8935.857     3121.474        7.458        1.561      343.048       62.148        0.033      339.980       13.681      858.149
05/25/2013  01:12:00     -236.382      -85.456        0.472      143.995      100.569       47.994    20734.495    10114.191     2303.472        4.816        1.658      251.354       59.063        0.055      339.953       13.638      858.149
05/25/2013  01:13:00     -393.003      -72.438       -4.839      175.949      131.343       73.208    30958.082    17250.975     5359.426       10.664        2.678      399.623       83.632        0.044      339.993       13.704      858.144
05/25/2013  01:14:00     -325.820        3.858      -16.474      124.470      104.800       59.498    15492.771    10983.140     3539.962        6.823        1.501      325.843       62.528        0.037      339.989       13.697      858.145
05/25/2013  01:15:00     -331.022      -94.420      -29.022      101.440       85.797       47.615    10290.155     7361.104     2267.167        6.962        0.996      344.225       44.427        0.017      339.998       13.714      858.135
05/25/2013  01:16:00     -220.238      -91.139       -6.344      104.776       83.302       54.930    10977.933     6939.281     3017.307        3.889        1.047      238.350       60.879        0.065      339.965       13.657      858.120
05/25/2013  01:17:00     -211.307     -111.343      -11.171      102.637      108.887       50.077    10534.354    11856.478     2507.741        4.103        1.245      238.847       40.644        0.029      339.979       13.681      858.125
05/25/2013  01:18:00     -203.726     -205.646      -13.059      142.381      122.010       72.276    20272.442    14886.456     5223.890        6.217        2.019      289.473       87.318        0.091      339.991       13.700      858.099
05/25/2013  01:19:00     -197.516      -66.589       -3.444      145.629      114.219       55.596    21207.931    13046.049     3090.879        4.040        1.867      208.438       71.665        0.118      339.964       13.655      858.105
05/25/2013  01:20:00     -267.002      -36.266      -22.324      169.904       83.530       68.582    28867.403     6977.247     4703.519        5.682        2.027      269.454       91.916        0.116      339.949       13.630      858.114
05/25/2013  01:21:00     -103.712      -24.462       18.223      135.118       81.176       42.128    18256.809     6589.522     1774.749        1.915        1.331      106.558       50.216        0.222      339.942       13.621      858.090
05/25/2013  01:22:00     -269.794     -172.783      -13.258      148.573      119.079       67.956    22073.916    14179.927     4618.052        7.184        2.044      320.378       74.346        0.054      339.983       13.687      858.082
05/25/2013  01:23:00     -221.601     -168.812        8.851      152.178      127.212       81.827    23158.178    16182.837     6695.716        6.185        2.302      278.576       90.202        0.105      339.970       13.666      858.074
05/25/2013  01:24:00     -282.323     -183.351      -15.629      152.431      113.214       64.165    23235.257    12817.434     4117.162        7.686        2.008      336.636       76.045        0.051      339.959       13.646      858.071
05/25/2013  01:25:00     -311.426      -94.368      -16.914      105.060      112.061       50.486    11037.650    12557.750     2548.827        6.616        1.307      325.410       40.817        0.016      339.952       13.636      858.068
05/25/2013  01:26:00     -371.582      -64.133      -23.304      183.686      100.736       63.709    33740.399    10147.782     4058.788        9.533        2.397      377.076       54.510        0.021      339.967       13.659      858.074
05/25/2013  01:27:00     -277.373      -24.728       -2.547      124.002       81.767       62.753    15376.606     6685.787     3937.895        5.177        1.300      278.473       65.553        0.055      339.954       13.638      858.086
05/25/2013  01:28:00     -181.567      -44.786        0.843      128.218      110.160       66.158    16439.761    12135.116     4376.907        3.396        1.648      187.009       72.408        0.150      339.990       13.700      858.089
05/25/2013  01:29:00     -301.405      -44.925        6.978      152.835      139.035       79.189    23358.526    19330.798     6270.894        7.093        2.448      304.735       86.054        0.080      339.983       13.687      858.106
05/25/2013  01:30:00     -187.661      -61.104        7.831      157.862      105.608       61.420    24920.440    11153.030     3772.428        3.942        1.992      197.358       69.460        0.124      340.008       13.731      858.123
05/25/2013  01:31:00     -420.053       17.953      -27.374      139.655      135.877       70.295    19503.554    18462.517     4941.405       11.020        2.145      420.437       57.314        0.019      340.018       13.745      858.138
05/25/2013  01:32:00     -297.915      -58.929      -15.252      140.722      105.983       64.256    19802.544    11232.430     4128.799        6.381        1.758      303.687       72.500        0.057      340.019       13.748      858.158
05/25/2013  01:33:00     -406.777     -132.182      -39.321      109.938       74.709       58.896    12086.404     5581.377     3468.740       10.281        1.057      427.714       58.459        0.019      340.026       13.759      858.171
05/25/2013  01:34:00     -257.843     -108.346      -15.339       87.481      106.196       52.236     7652.891    11277.643     2728.571        5.005        1.083      279.682       42.841        0.023      340.023       13.753      858.175
05/25/2013  01:35:00      -93.246      -92.089       12.983      141.666       88.096       64.571    20069.198     7760.829     4169.375        2.467        1.600      131.055       71.715        0.299      340.014       13.741      858.186
05/25/2013  01:36:00     -255.296     -158.240       -1.462      161.533      114.092       84.637    26093.018    13017.079     7163.487        6.824        2.314      300.359       95.266        0.101      340.027       13.758      858.198
05/25/2013  01:37:00     -243.757     -148.302      -12.272      126.620      124.682       62.119    16032.546    15545.557     3858.797        5.849        1.772      285.326       59.769        0.044      340.044       13.788      858.207
05/25/2013  01:38:00     -182.141      -77.487       -5.633       79.419       84.042       50.557     6307.433     7063.078     2555.976        2.757        0.796      197.939       44.681        0.051      340.016       13.742      858.228
05/25/2013  01:39:00     -170.046     -162.148      -11.995      100.181       95.460       52.242    10036.218     9112.619     2729.226        3.861        1.094      234.963       52.163        0.049      340.004       13.722      858.261
05/25/2013  01:40:00      -75.505      -85.565        4.495       79.497       74.785       41.891     6319.717     5592.736     1754.876        1.335        0.683      114.115       44.376        0.151      339.978       13.683      858.271
05/25/2013  01:41:00     -155.629      -52.222        0.542       55.742       81.344       38.906     3107.140     6616.896     1513.649        1.909        0.562      164.157       30.310        0.034      339.966       13.661      858.280
05/25/2013  01:42:00     -115.332        9.287        2.793       64.304       58.550       35.524     4134.959     3428.124     1261.990        1.111        0.441      115.705       26.445        0.052      339.987       13.696      858.280
05/25/2013  01:43:00      -65.890      -94.392        0.608       91.988       66.769       42.835     8461.827     4458.099     1834.796        1.400        0.738      115.115       46.040        0.160      340.006       13.729      858.284
05/25/2013  01:44:00     -110.658      -57.245       -9.261       55.562       65.451       24.560     3087.189     4283.860      603.171        1.179        0.399      124.588       18.483        0.022      339.979       13.683      858.273
05/25/2013  01:45:00       -7.676      -70.099        1.034       51.822       55.330       27.561     2685.515     3061.426      759.629        0.574        0.325       70.518       24.939        0.125      340.011       13.738      858.290
05/25/2013  01:46:00     -107.901      -35.312        2.654       50.695       82.001       45.804     2570.009     6724.146     2097.976        1.214        0.570      113.533       43.591        0.147      339.981       13.686      858.292
05/25/2013  01:47:00       -8.432      -18.363      -11.663       39.653       32.585       15.491     1572.357     1061.786      239.960        0.171        0.144       20.206       15.861        0.616      339.931       13.604      858.304
05/25/2013  01:48:00       15.311        2.817       14.089       30.784       46.699       22.473      947.632     2180.773      505.022        0.204        0.182       15.568       22.708        2.127      339.927       13.597      858.303
05/25/2013  01:49:00       42.234       30.749       23.715       25.802       21.243       22.236      665.762      451.254      494.443        0.245        0.081       52.242       12.103        0.054      339.921       13.587      858.310
05/25/2013  01:50:00        7.602       38.481       25.151       19.982       20.994       17.356      399.285      440.728      301.214        0.166        0.057       39.224       11.255        0.082      339.887       13.528      858.317
05/25/2013  01:51:00        5.613      -38.152       -3.072       25.667       37.818       16.120      658.802     1430.198      259.846        0.192        0.117       38.562       10.199        0.070      339.913       13.570      858.338
05/25/2013  01:52:00       28.046       -3.522       14.275       18.152       31.427       14.562      329.481      987.685      212.045        0.127        0.076       28.266        9.925        0.123      339.897       13.546      858.336
05/25/2013  01:53:00       29.705       34.363       10.117       16.032       17.440       13.091      257.039      304.168      171.384        0.145        0.037       45.422        8.844        0.038      339.777       13.344      858.320
05/25/2013  01:54:00       99.890       46.919       28.168       48.847       34.937       28.278     2386.074     1220.577      799.651        0.869        0.220      110.360       20.571        0.035      339.768       13.329      858.297
05/25/2013  01:55:00       86.286       33.465       31.606       39.098       33.507       27.683     1528.624     1122.697      766.335        0.649        0.171       92.549       21.360        0.053      339.793       13.371      858.295
05/25/2013  01:56:00       73.686       27.944       47.819       61.002       41.361       35.443     3721.297     1710.731     1256.212        0.759        0.334       78.807       36.607        0.216      339.741       13.282      858.276
05/25/2013  01:57:00       71.030       63.560       63.495       37.811       31.130       30.521     1429.674      969.075      931.501        0.822        0.167       95.316       21.355        0.050      339.706       13.223      858.265
05/25/2013  01:58:00       53.667       33.282       54.979       50.436       57.659       33.598     2543.783     3324.583     1128.796        0.700        0.350       63.149       40.427        0.410      339.712       13.232      858.246
05/25/2013  01:59:00       42.887       78.691       85.994       47.010       44.761       25.606     2209.903     2003.548      655.659        1.015        0.243       89.619       24.439        0.074      339.724       13.254      858.234
05/25/2013  02:00:00      127.167       72.987       24.573       39.506       37.340       42.164     1560.737     1394.291     1777.802        1.342        0.237      146.624       27.635        0.036      339.651       13.129      858.237
05/25/2013  02:01:00       55.303       64.489       54.514       30.914       25.332       26.724      955.702      641.711      714.169        0.625        0.116       84.954       14.955        0.031      339.638       13.108      858.242
05/25/2013  02:02:00       67.848       47.932       23.930       60.628       42.882       30.402     3675.774     1838.843      924.283        0.696        0.322       83.071       15.097        0.033      339.583       13.016      858.248
05/25/2013  02:03:00       71.582       48.381       -4.033       51.330       53.162       26.217     2634.739     2826.148      687.312        0.681        0.307       86.398       20.134        0.054      339.740       13.280      858.250
05/25/2013  02:04:00       47.569       37.302       10.136       19.791       20.064       14.962      391.673      402.568      223.856        0.239        0.051       60.450        9.409        0.024      339.742       13.284      858.252
05/25/2013  02:05:00       12.710      -24.251       19.500       25.818       30.040       27.273      666.558      902.399      743.811        0.172        0.116       27.380       12.840        0.220      339.585       13.019      858.254
05/25/2013  02:06:00       61.286      -82.902        2.262       38.869       57.341       32.756     1510.803     3287.961     1072.932        0.825        0.294      103.095       29.453        0.082      339.554       12.967      858.259
05/25/2013  02:07:00       64.970      -94.590       -5.356       21.331       34.203       15.902      455.029     1169.879      252.884        0.754        0.094      114.754       11.669        0.010      339.568       12.992      858.261
05/25/2013  02:08:00       38.232      -48.265       -3.020       14.164       18.094       11.260      200.617      327.396      126.784        0.223        0.033       61.573        9.208        0.022      339.591       13.030      858.264
05/25/2013  02:09:00       14.952      -25.571        7.472       17.304       21.871       16.414      299.426      478.319      269.428        0.099        0.052       29.621       13.506        0.208      339.588       13.024      858.262
05/25/2013  02:10:00        7.256        6.477        4.898        8.903        9.311        7.215       79.259       86.691       52.053        0.017        0.011        9.726        4.046        0.173      339.510       12.895      858.251
05/25/2013  02:11:00       23.150        2.609        1.856        9.439        8.800        7.182       89.095       77.437       51.575        0.038        0.011       23.297        5.480        0.055      339.595       13.039      858.245
05/25/2013  02:12:00       14.984       -5.494        4.279       10.072        7.731        8.853      101.445       59.765       78.377        0.026        0.012       15.959        6.242        0.153      339.563       12.983      858.259
05/25/2013  02:13:00        4.842      -13.040        3.769       11.223       11.673        7.940      125.959      136.261       63.051        0.027        0.016       13.910        6.982        0.252      339.542       12.944      858.268
05/25/2013  02:14:00       48.770       24.098       11.214       15.236       14.609       14.087      232.148      213.430      198.431        0.186        0.032       54.399        8.168        0.023      339.469       12.824      858.280
05/25/2013  02:15:00       66.385       38.014        2.318       19.757       25.694       15.011      390.324      660.181      225.320        0.357        0.064       76.498       10.298        0.018      339.435       12.768      858.293
05/25/2013  02:16:00       37.819       31.577        1.580       26.378       20.879       18.563      695.787      435.936      344.575        0.195        0.074       49.269        9.225        0.035      339.415       12.735      858.303
05/25/2013  02:17:00       54.876       43.133        2.838       20.341       14.921       13.374      413.776      222.632      178.874        0.285        0.041       69.799       10.688        0.023      339.406       12.716      858.308
05/25/2013  02:18:00        9.864       30.964        2.407       15.529       15.166       12.148      241.153      230.009      147.574        0.084        0.031       32.498        7.409        0.052      339.354       12.630      858.310
05/25/2013  02:19:00       61.371       45.270        1.997       25.338       15.193       13.690      641.997      230.837      187.417        0.344        0.053       76.261       10.616        0.019      339.333       12.595      858.308
05/25/2013  02:20:00       71.756       54.061        2.933       35.823       20.180       17.593     1283.305      407.247      309.502        0.504        0.100       89.842       12.274        0.019      339.300       12.538      858.307
05/25/2013  02:21:00       54.401       58.009        3.184       33.398       35.487       24.497     1115.398     1259.332      600.093        0.465        0.149       79.527       20.791        0.068      339.345       12.615      858.305
05/25/2013  02:22:00       84.155       71.683       -1.545       41.289       34.911       30.615     1704.776     1218.810      937.276        0.804        0.193      110.547       23.884        0.047      339.367       12.652      858.303
05/25/2013  02:23:00      118.554       90.290        8.162       45.287       32.405       39.191     2050.884     1050.080     1535.949        1.345        0.232      149.021       18.099        0.015      339.393       12.695      858.312
05/25/2013  02:24:00      124.797       93.487       15.544       58.488       53.373       47.797     3420.846     2848.700     2284.509        1.655        0.428      155.930       32.275        0.043      339.441       12.776      858.321
05/25/2013  02:25:00       84.581       33.811        8.904       49.702       35.211       29.262     2470.280     1239.819      856.258        0.647        0.228       91.088       16.007        0.031      339.380       12.672      858.337
05/25/2013  02:26:00       41.131      185.722      -18.528       65.823      123.286       38.547     4332.616    15199.516     1485.896        2.877        1.051      190.222       51.129        0.072      339.362       12.640      858.369
05/25/2013  02:27:00       69.227      105.190        5.369       85.961       81.732       55.843     7389.353     6680.122     3118.396        1.653        0.859      125.926       50.024        0.158      339.331       12.589      858.384
05/25/2013  02:28:00        7.891      183.024      -13.579       42.368       87.045       41.659     1795.025     7576.884     1735.479        2.242        0.555      183.194       47.886        0.068      339.402       12.708      858.404
05/25/2013  02:29:00       13.088      194.082      -17.071       46.480       95.632       43.336     2160.371     9145.561     1878.032        2.565        0.659      194.522       53.728        0.076      339.351       12.621      858.401
05/25/2013  02:30:00       15.918      158.368       -3.697       46.757       73.352       45.051     2186.174     5380.453     2029.613        1.747        0.480      159.166       42.948        0.073      339.296       12.531      858.397
05/25/2013  02:31:00       34.683      139.602       -5.221       47.566       81.640       39.865     2262.554     6665.111     1589.194        1.562        0.526      143.846       39.598        0.076      339.297       12.532      858.406
05/25/2013  02:32:00       79.793       78.022       -7.718       40.827       40.096       36.732     1666.811     1607.722     1349.255        0.857        0.231      111.599       27.979        0.063      339.243       12.442      858.407
05/25/2013  02:33:00       82.848       83.512       12.558       76.571       65.088       52.900     5863.112     4236.479     2798.402        1.344        0.645      117.635       37.316        0.101      339.219       12.401      858.413
05/25/2013  02:34:00       65.161      144.074        0.746       73.394       86.103       52.393     5386.737     7413.787     2744.989        2.027        0.777      158.125       45.556        0.083      339.219       12.402      858.416
05/25/2013  02:35:00       16.783      191.563      -27.141       49.488       81.760       30.777     2449.021     6684.666      947.203        2.390        0.504      192.297       27.230        0.020      339.235       12.427      858.430
05/25/2013  02:36:00        5.522      212.747      -23.947       37.207       74.429       31.050     1384.353     5539.712      964.076        2.688        0.394      212.819       34.889        0.027      339.289       12.518      858.454
05/25/2013  02:37:00       10.267      116.740      -13.081       44.325       89.751       44.545     1964.683     8055.154     1984.245        1.295        0.600      117.190       51.461        0.193      339.258       12.466      858.466
05/25/2013  02:38:00      -12.729      150.028      -12.792       70.398       66.685       40.050     4955.919     4446.872     1603.994        1.692        0.550      150.568       32.006        0.045      339.285       12.512      858.463
05/25/2013  02:39:00       24.255      107.615      -12.432       54.696       72.533       34.539     2991.677     5261.093     1192.952        1.088        0.472      110.314       34.945        0.100      339.285       12.514      858.463
05/25/2013  02:40:00      -15.284      212.362      -14.075       59.746       71.984       38.976     3569.626     5181.695     1519.156        2.790        0.514      212.911       34.400        0.026      339.225       12.408      858.470
05/25/2013  02:41:00       -9.450      204.351      -18.655       50.081       42.366       27.263     2508.083     1794.868      743.276        2.362        0.252      204.569       24.611        0.014      339.336       12.597      858.478
05/25/2013  02:42:00       -2.767       99.959        5.114       41.878       54.440       32.505     1753.773     2963.712     1056.552        0.790        0.289       99.997       26.830        0.072      339.250       12.455      858.474
05/25/2013  02:43:00      -23.681      160.610      -15.243       51.117       55.588       29.968     2612.920     3090.074      898.068        1.659        0.330      162.347       27.896        0.030      339.251       12.456      858.479
05/25/2013  02:44:00      -86.358      162.263      -25.199       30.084       57.184       24.949      905.068     3270.000      622.474        1.961        0.240      183.812       16.961        0.009      339.331       12.590      858.478
05/25/2013  02:45:00      -53.511       67.120      -11.713       32.820       40.639       23.199     1077.178     1651.532      538.212        0.539        0.163       85.840       24.282        0.080      339.335       12.598      858.489
05/25/2013  02:46:00      -33.993      114.491      -10.934       37.895       24.237       20.859     1436.007      587.408      435.081        0.842        0.123      119.431       17.919        0.023      339.390       12.691      858.499
05/25/2013  02:47:00      -15.745       61.561       -3.939       23.004       29.900       12.731      529.173      893.999      162.071        0.282        0.079       63.543        9.723        0.023      339.423       12.745      858.510
05/25/2013  02:48:00      -38.515        7.501       -2.560       22.461       14.264       13.082      504.475      203.468      171.127        0.121        0.044       39.239       13.011        0.110      339.342       12.610      858.523
05/25/2013  02:49:00      -35.136       20.296      -12.420       28.363       23.572       17.398      804.453      555.651      302.687        0.173        0.083       40.577       17.434        0.185      339.312       12.557      858.530
05/25/2013  02:50:00      -36.212        9.149      -11.705       18.540       30.932       16.344      343.742      956.766      267.126        0.155        0.078       37.350       16.777        0.202      339.283       12.509      858.523
05/25/2013  02:51:00      -57.407       58.816      -10.092       23.523       43.908       23.407      553.349     1927.952      547.887        0.494        0.151       82.188       24.951        0.092      339.362       12.642      858.521
05/25/2013  02:52:00      -92.708      105.505      -26.770       21.708       25.514       16.775      471.216      650.990      281.396        1.092        0.070      140.449       14.306        0.010      339.312       12.557      858.522
05/25/2013  02:53:00      -56.752       72.888      -20.081       22.481       23.675       10.529      505.395      560.491      110.868        0.506        0.059       92.377       14.237        0.024      339.363       12.645      858.521
05/25/2013  02:54:00      -50.218       73.277      -14.207       21.879       19.967       12.682      478.691      398.671      160.843        0.457        0.052       88.833        8.384        0.009      339.390       12.691      858.521
05/25/2013  02:55:00      -93.510       10.299      -12.672       26.847       22.422       13.139      720.766      502.745      172.640        0.520        0.070       94.075       12.134        0.017      339.272       12.492      858.517
05/25/2013  02:56:00      -85.060      -27.687      -10.409       17.042       23.626       11.296      290.438      558.183      127.602        0.454        0.049       89.453        6.948        0.006      339.147       12.280      858.523
05/25/2013  02:57:00      -75.561       13.267      -13.811       31.799       32.201       18.667     1011.155     1036.878      348.453        0.424        0.120       76.717       22.513        0.086      339.124       12.242      858.519
05/25/2013  02:58:00      -67.246       20.336      -12.937       35.217       43.586       26.168     1240.212     1899.742      684.756        0.446        0.191       70.253       28.540        0.165      339.166       12.312      858.516
05/25/2013  02:59:00      -65.289       66.880       -8.632       35.091       37.072       25.039     1231.360     1374.330      626.927        0.602        0.162       93.464       19.588        0.044      339.255       12.463      858.517
05/25/2013  03:00:00      -66.848      103.395      -21.665       41.605       62.745       20.560     1730.949     3936.997      422.729        1.086        0.305      123.123       14.889        0.015      339.359       12.637      858.527
05/25/2013  03:01:00      -81.396      114.574      -17.079       39.259       54.495       28.773     1541.256     2969.698      827.895        1.269        0.267      140.543       25.982        0.034      339.438       12.770      858.532
05/25/2013  03:02:00      -46.371       47.364       -7.463       59.065       23.671       21.387     3488.718      560.308      457.395        0.448        0.225       66.284       28.937        0.191      339.429       12.757      858.528
05/25/2013  03:03:00       38.749       44.854       10.915       21.991       20.752       16.107      483.589      430.655      259.437        0.240        0.059       59.273        9.804        0.027      339.388       12.687      858.530
05/25/2013  03:04:00       84.801       66.899        0.181       51.162       20.969       24.725     2617.512      439.679      611.306        0.767        0.183      108.012       17.215        0.025      339.413       12.728      858.527
05/25/2013  03:05:00       31.088      109.654        5.942       46.825       65.197       39.848     2192.540     4250.593     1587.838        1.053        0.402      113.976       40.421        0.126      339.252       12.457      858.539
05/25/2013  03:06:00       -2.755      126.623       -7.850       39.302       51.686       24.997     1544.650     2671.485      624.843        1.047        0.242      126.653       25.009        0.039      339.224       12.409      858.538
05/25/2013  03:07:00       11.284      158.969      -18.680       61.948       65.833       40.343     3837.547     4334.003     1627.535        1.777        0.490      159.368       37.193        0.054      339.237       12.430      858.539
05/25/2013  03:08:00       29.458      165.112      -24.852       50.308       74.848       38.563     2530.851     5602.297     1487.073        1.918        0.481      167.719       42.038        0.063      339.219       12.399      858.549
05/25/2013  03:09:00      -28.120      142.449      -18.724       32.754       42.254       17.705     1072.800     1785.403      313.472        1.230        0.159      145.198       13.401        0.009      339.202       12.373      858.559
05/25/2013  03:10:00      -71.174       20.772      -11.658       27.338       45.447       17.708      747.386     2065.396      313.568        0.438        0.156       74.143       15.985        0.046      339.238       12.435      858.563
05/25/2013  03:11:00      -49.048       26.212       -1.436       27.837       31.111       18.632      774.881      967.898      347.162        0.259        0.104       55.613       11.410        0.042      339.143       12.273      858.568
05/25/2013  03:12:00      -80.956       27.363       -2.990       30.688       19.312       17.057      941.739      372.958      290.952        0.446        0.080       85.456       18.976        0.049      339.189       12.351      858.567
05/25/2013  03:13:00       13.851       40.479        2.710       23.068       22.479       13.082      532.110      505.311      171.139        0.152        0.060       42.784        9.235        0.047      339.219       12.403      858.560
05/25/2013  03:14:00       25.806       42.382       -0.770       21.913       33.605       12.789      480.185     1129.312      163.568        0.212        0.089       49.621       15.715        0.100      339.229       12.419      858.558
05/25/2013  03:15:00       11.683       72.581      -16.031       24.583       21.356       10.177      604.306      456.066      103.581        0.341        0.058       73.516        8.002        0.012      339.300       12.539      858.561
05/25/2013  03:16:00      -25.139       51.731        2.341       17.069       24.777       18.094      291.341      613.915      327.375        0.227        0.062       57.516       14.878        0.067      339.226       12.413      858.576
05/25/2013  03:17:00      -32.531       22.216      -10.979       22.565       23.889        8.111      509.198      570.671       65.781        0.141        0.057       39.393        7.331        0.035      339.162       12.307      858.585
05/25/2013  03:18:00      -54.310        6.655       -5.086       17.419       20.869        8.018      303.416      435.511       64.282        0.191        0.040       54.717        7.180        0.017      339.032       12.086      858.597
05/25/2013  03:19:00      -21.554       17.997       -6.525       31.441       32.766       21.600      988.558     1073.607      466.551        0.168        0.126       28.080       20.074        0.511      339.072       12.155      858.611
05/25/2013  03:20:00      -41.245       19.997       -9.151       19.607       23.130       11.127      384.422      534.996      123.804        0.161        0.052       45.837        9.809        0.046      339.060       12.134      858.618
05/25/2013  03:21:00      -55.119       24.972       -8.486       27.161       22.979       15.849      737.741      528.048      251.177        0.263        0.076       60.512       14.891        0.061      339.141       12.270      858.632
05/25/2013  03:22:00      -66.381       76.524      -13.999       30.629       35.115       22.193      938.133     1233.058      492.547        0.656        0.133      101.303       18.014        0.032      339.213       12.391      858.638
05/25/2013  03:23:00     -103.266       62.334      -16.192       31.314       32.111       23.461      980.593     1031.105      550.404        0.869        0.128      120.621       24.721        0.042      339.224       12.410      858.644
05/25/2013  03:24:00     -138.642       12.463      -19.672       24.698       18.381       17.227      609.984      337.869      296.778        1.050        0.062      139.201       13.353        0.009      338.971       11.986      858.649
05/25/2013  03:25:00      -99.075       10.917      -13.978       34.666       20.020       18.016     1201.711      400.783      324.590        0.603        0.096       99.675       18.325        0.034      338.841       11.766      858.649
05/25/2013  03:26:00      -92.564       -3.804      -12.984       16.768       14.840       14.088      281.164      220.212      198.467        0.473        0.035       92.642       12.719        0.019      338.914       11.891      858.652
05/25/2013  03:27:00      -56.670       -7.831       -4.391       37.109       19.093       10.538     1377.109      364.529      111.046        0.257        0.093       57.209       12.860        0.051      338.954       11.957      858.653
05/25/2013  03:28:00      -36.596       13.993       -8.621       21.917       15.290        9.058      480.334      233.777       82.039        0.120        0.040       39.180        7.943        0.041      339.039       12.099      858.660
05/25/2013  03:29:00      -52.856        5.506       -9.495       10.153       12.487        7.731      103.080      155.918       59.762        0.162        0.016       53.142        4.876        0.008      338.954       11.957      858.665
05/25/2013  03:30:00      -59.839       18.447      -13.197       16.875       12.730        8.458      284.749      162.048       71.541        0.231        0.026       62.618        7.078        0.013      339.030       12.085      858.666
05/25/2013  03:31:00      -36.981      100.970      -17.450       30.184       27.784       11.561      911.071      771.925      133.664        0.684        0.091      107.529        3.919        0.001      339.379       12.672      858.683
05/25/2013  03:32:00      -62.906      133.637      -15.184       53.664       47.734       35.005     2879.787     2278.503     1225.341        1.421        0.319      147.703       27.710        0.035      339.333       12.594      858.698
05/25/2013  03:33:00       32.819      108.773      -10.185       58.386       47.114       25.207     3408.955     2219.767      635.382        0.964        0.313      113.616       24.465        0.046      339.424       12.748      858.690
05/25/2013  03:34:00      -47.388      114.451       -6.409       45.027       63.459       30.521     2027.473     4027.000      931.502        1.118        0.349      123.874       33.219        0.072      339.329       12.587      858.679
05/25/2013  03:35:00      -81.853      119.771      -10.853       47.428       67.777       40.723     2249.418     4593.789     1658.373        1.483        0.425      145.069       36.098        0.062      339.291       12.523      858.683
05/25/2013  03:36:00      -17.354      152.420      -17.332       41.429       60.883       25.393     1716.369     3706.703      644.826        1.495        0.303      153.405       20.615        0.018      339.380       12.672      858.676
05/25/2013  03:37:00       -1.831      165.241      -17.927       42.640       55.124       32.388     1818.204     3038.702     1048.984        1.677        0.295      165.251       34.516        0.044      339.472       12.827      858.664
05/25/2013  03:38:00      -61.014       76.894      -20.523       25.426       47.860       16.380      646.503     2290.555      268.297        0.663        0.160       98.160       12.450        0.016      339.620       13.079      858.669
05/25/2013  03:39:00      -77.974       54.763      -10.481       26.422       25.622       18.277      698.147      656.483      334.054        0.544        0.084       95.283       17.385        0.033      339.611       13.066      858.673
05/25/2013  03:40:00       -2.732       71.256       -4.695       19.937       31.401       14.647      397.491      986.027      214.530        0.335        0.080       71.308       13.116        0.034      339.492       12.862      858.672
05/25/2013  03:41:00      -35.148       54.389      -11.663       21.914       15.438        9.612      480.243      238.344       92.382        0.257        0.041       64.757        7.684        0.014      339.469       12.824      858.675
05/25/2013  03:42:00      -20.495       84.861      -10.823       31.834       29.622       11.869     1013.422      877.475      140.879        0.488        0.102       87.301        4.185        0.002      339.452       12.796      858.673
05/25/2013  03:43:00      -56.458       49.675       -9.964       17.276       28.612       12.890      298.477      818.632      166.151        0.352        0.064       75.201       11.381        0.023      339.459       12.808      858.672
05/25/2013  03:44:00      -62.578       18.254       -8.117       32.778       15.354       13.527     1074.390      235.744      182.975        0.290        0.075       65.186       13.757        0.045      339.441       12.776      858.670
05/25/2013  03:45:00        6.064       62.482       -6.125       31.852       34.224       18.544     1014.527     1171.275      343.885        0.325        0.126       62.775       14.241        0.051      339.367       12.652      858.671
05/25/2013  03:46:00       -6.141      101.368      -14.004       28.519       14.208       10.395      813.337      201.863      108.064        0.582        0.056      101.554        7.676        0.006      339.562       12.981      858.666
05/25/2013  03:47:00      -34.888       61.327      -14.951       27.771       24.552       14.470      771.201      602.821      209.379        0.339        0.079       70.556       14.311        0.041      339.477       12.837      858.653
05/25/2013  03:48:00      -54.904       -5.255       -3.496       26.625       41.853       10.971      708.899     1751.677      120.355        0.282        0.129       55.155       10.308        0.035      339.342       12.610      858.640
05/25/2013  03:49:00      -43.662       -2.579       -7.045       22.065       16.061        9.400      486.884      257.948       88.369        0.140        0.042       43.738        9.053        0.043      339.382       12.678      858.625
05/25/2013  03:50:00      -20.260      -22.685        4.663       33.370       16.191       14.513     1113.578      262.142      210.640        0.127        0.079       30.415       13.575        0.199      339.265       12.478      858.616
05/25/2013  03:51:00      -19.837       25.699       -7.994       15.164       25.739        7.473      229.955      662.520       55.847        0.103        0.047       32.465        6.544        0.041      339.312       12.560      858.605
05/25/2013  03:52:00      -13.203       18.006      -12.776       14.653       18.114       10.019      214.696      328.132      100.390        0.065        0.032       22.328        8.808        0.156      339.408       12.720      858.601
05/25/2013  03:53:00      -18.692       26.666       -9.223       29.679       14.323        9.214      880.824      205.151       84.892        0.116        0.059       32.564        7.542        0.054      339.457       12.803      858.601
05/25/2013  03:54:00        2.770       24.388      -16.253       25.710       26.710       19.523      661.025      713.428      381.146        0.131        0.088       24.544       18.661        0.578      339.458       12.805      858.589
05/25/2013  03:55:00       23.452       61.454      -12.076       11.897       13.057        6.861      141.529      170.476       47.074        0.242        0.018       65.776        5.145        0.006      339.229       12.420      858.591
05/25/2013  03:56:00       40.541       34.358       -4.870       20.747       18.388       11.104      430.424      338.110      123.299        0.187        0.045       53.142        9.428        0.031      339.233       12.425      858.590
05/25/2013  03:57:00       48.476       27.176        7.328       19.561       15.611       16.168      382.615      243.715      261.419        0.201        0.044       55.574        9.652        0.030      339.270       12.488      858.588
05/25/2013  03:58:00       36.730        8.023        7.992       21.920       20.517       14.145      480.492      420.929      200.089        0.129        0.055       37.596       11.730        0.097      339.255       12.463      858.599
05/25/2013  03:59:00       16.573       38.624       -8.692       18.449       41.310       13.571      340.378     1706.488      184.169        0.204        0.112       42.029       17.333        0.170      339.249       12.452      858.620
05/25/2013  04:00:00        9.078       -5.974       -2.678       25.033       38.001       17.627      626.670     1444.044      310.713        0.125        0.119       10.867       15.324        1.988      339.192       12.356      858.630
05/25/2013  04:01:00      -83.420      -65.712        5.474       73.056       43.834       33.121     5337.121     1921.426     1096.998        0.983        0.418      106.193       35.784        0.114      338.959       11.964      858.633
05/25/2013  04:02:00      -85.878      -81.875       -3.048       52.602       46.026       24.301     2766.976     2118.374      590.535        0.978        0.274      118.653       26.550        0.050      338.918       11.896      858.630
05/25/2013  04:03:00      -95.608      -76.467        0.222       45.795       35.399       25.118     2097.155     1253.097      630.924        0.948        0.199      122.426       24.622        0.040      338.918       11.896      858.629
05/25/2013  04:04:00      -69.677      -72.336       -8.756       25.693       30.079       16.805      660.145      904.748      282.422        0.601        0.092      100.435        8.324        0.007      338.901       11.867      858.622
05/25/2013  04:05:00      -50.500      -29.409        5.057       36.792       23.586       19.990     1353.681      556.287      399.606        0.287        0.115       58.439       16.732        0.082      338.955       11.957      858.623
05/25/2013  04:06:00      -42.817      -18.575        3.770       40.117       20.812       14.198     1609.401      433.126      201.574        0.222        0.112       46.672       17.557        0.142      338.932       11.920      858.648
05/25/2013  04:07:00      -85.236      -26.576      -11.163       31.710       21.317       17.120     1005.505      454.395      293.102        0.492        0.088       89.284       14.571        0.027      338.959       11.964      858.672
05/25/2013  04:08:00     -102.802      -27.388       -6.416       37.794       32.515       17.907     1428.360     1057.248      320.678        0.708        0.140      106.388       14.300        0.018      338.789       11.680      858.694
05/25/2013  04:09:00     -159.877      -36.742      -17.908       29.496       24.273       22.247      870.004      589.165      494.923        1.459        0.098      164.044       16.485        0.010      338.657       11.457      858.702
05/25/2013  04:10:00      -93.701      -48.585       -2.336       53.541       27.442       21.719     2866.659      753.081      471.698        0.762        0.205      105.548       22.298        0.045      338.643       11.433      858.708
05/25/2013  04:11:00      -32.189      -62.139       17.989       51.468       37.968       25.654     2648.984     1441.568      658.111        0.498        0.237       69.981       27.750        0.157      338.881       11.833      858.700
05/25/2013  04:12:00      -48.789     -139.240       -4.883       33.323       35.027       18.214     1110.435     1226.872      331.762        1.223        0.133      147.540       16.733        0.013      338.961       11.968      858.691
05/25/2013  04:13:00      -48.867      -89.819      -12.034       33.717       49.483       25.224     1136.817     2448.531      636.257        0.741        0.211      102.252       21.348        0.044      338.962       11.969      858.674
05/25/2013  04:14:00      -43.049       -4.943        3.585       43.290       20.783       19.298     1874.031      431.928      372.394        0.228        0.134       43.331       12.100        0.078      338.856       11.791      858.660
05/25/2013  04:15:00      -84.070      -35.193        0.705       29.925       33.224       17.486      895.494     1103.839      305.756        0.531        0.115       91.139       10.659        0.014      338.851       11.784      858.660
05/25/2013  04:16:00      -97.762      -55.576        4.884       46.364       43.038       24.955     2149.661     1852.292      622.758        0.865        0.231      112.455       20.995        0.035      338.782       11.667      858.668
05/25/2013  04:17:00      -88.486      -63.223        6.341       53.832       29.989       24.908     2897.851      899.321      620.402        0.814        0.221      108.752       23.641        0.047      338.764       11.637      858.670
05/25/2013  04:18:00      -42.385      -72.546        0.133       23.188       24.056       14.254      537.679      578.676      203.182        0.419        0.066       84.021       14.968        0.032      338.897       11.859      858.676
05/25/2013  04:19:00      -42.780      -69.821       -4.946       24.722       28.193       10.737      611.154      794.857      115.282        0.413        0.076       81.885       11.196        0.019      338.903       11.869      858.676
05/25/2013  04:20:00       10.275        7.799        6.353        8.638        9.813       10.409       74.615       96.286      108.339        0.024        0.014       12.900        5.436        0.178      338.770       11.648      858.675
05/25/2013  04:21:00        7.045       31.354        0.983        6.875       11.747        8.279       47.267      138.003       68.549        0.064        0.013       32.135        3.122        0.009      338.831       11.750      858.681
05/25/2013  04:22:00        6.147       49.523       -9.497       18.373       18.229       10.442      337.581      332.281      109.036        0.168        0.039       49.903        8.698        0.030      338.769       11.646      858.696
05/25/2013  04:23:00       25.627       68.592       -2.732       24.465       21.557       13.903      598.551      464.723      193.293        0.331        0.063       73.223        9.084        0.015      338.549       11.276      858.708
05/25/2013  04:24:00       85.240       66.835        1.841       40.395       28.712       28.651     1631.780      824.364      820.907        0.751        0.164      108.318       17.010        0.025      338.599       11.361      858.712
05/25/2013  04:25:00      115.356       85.180       14.352       30.506       24.689       24.972      930.642      609.562      623.603        1.147        0.108      143.397        9.021        0.004      338.708       11.543      858.729
05/25/2013  04:26:00       87.858       53.931       11.690       29.632       26.902       23.347      878.081      723.695      545.085        0.646        0.107      103.090       11.849        0.013      338.659       11.462      858.734
05/25/2013  04:27:00       76.334       39.241       16.424       34.478       19.473       24.638     1188.742      379.211      607.017        0.491        0.109       85.830       13.069        0.023      338.616       11.387      858.721
05/25/2013  04:28:00       18.131       25.678       46.843       25.143       34.481       24.313      632.164     1188.952      591.112        0.280        0.121       31.434       25.282        0.647      338.578       11.324      858.710
05/25/2013  04:29:00       25.786        6.521       28.660       27.007       26.375       25.088      729.396      695.658      629.421        0.179        0.103       26.598       20.768        0.610      338.683       11.500      858.709
05/25/2013  04:30:00       30.359      -61.030        2.920       25.686       39.100       18.103      659.786     1528.837      327.730        0.359        0.126       68.164       25.487        0.140      338.731       11.580      858.714
05/25/2013  04:31:00       25.305      -80.935       -1.933       14.808       22.390       13.001      219.273      501.296      169.017        0.404        0.044       84.799        6.754        0.006      338.877       11.829      858.719
05/25/2013  04:32:00       40.147       14.078       18.706       30.160       41.177       24.055      909.602     1695.528      578.640        0.267        0.159       42.544       19.043        0.200      338.773       11.653      858.724
05/25/2013  04:33:00       21.536      -19.566        9.779       32.459       24.856       13.889     1053.599      617.818      192.916        0.140        0.093       29.097        8.864        0.093      338.745       11.604      858.721
05/25/2013  04:34:00       17.557      -11.258       14.173       19.478       14.862       15.478      379.394      220.890      239.565        0.074        0.042       20.857        4.369        0.044      338.821       11.732      858.721
05/25/2013  04:35:00        0.295      -75.341        5.369       19.578       30.039       25.836      383.316      902.344      667.486        0.383        0.098       75.341       14.760        0.038      339.017       12.061      858.723
05/25/2013  04:36:00        7.110      -79.466        9.892       20.650       27.271       26.235      426.434      743.704      688.286        0.416        0.093       79.783       15.733        0.039      338.995       12.025      858.720
05/25/2013  04:37:00       19.145      -68.597       15.280       31.801       28.256       28.958     1011.328      798.380      838.584        0.398        0.132       71.218       15.645        0.048      338.961       11.967      858.716
05/25/2013  04:38:00       90.257       67.089       13.909       50.124       30.403       43.404     2512.437      924.366     1883.918        0.908        0.266      112.460       35.463        0.099      338.824       11.738      858.701
05/25/2013  04:39:00       59.920        4.421       10.806       41.172       45.848       36.178     1695.130     2102.013     1308.876        0.442        0.255       60.083       26.113        0.189      338.790       11.681      858.701
05/25/2013  04:40:00       15.454       41.154       33.432       22.977       23.429       31.060      527.933      548.939      964.713        0.255        0.102       43.960       20.319        0.214      338.707       11.541      858.688
05/25/2013  04:41:00        2.848       12.389       25.675       20.969       23.549       28.155      439.683      554.552      792.701        0.130        0.089       12.712       21.172        2.774      338.615       11.385      858.689
05/25/2013  04:42:00       10.359       -9.068        2.892       18.140       17.582       20.683      329.074      309.124      427.804        0.063        0.053       13.767       13.016        0.894      338.619       11.393      858.706
05/25/2013  04:43:00       -5.471        7.598        4.517       30.231       15.758       18.882      913.939      248.304      356.528        0.081        0.076        9.363       16.000        2.920      338.622       11.398      858.715
05/25/2013  04:44:00      -25.813       -7.753       -8.469       17.825       21.162       16.011      317.730      447.818      256.341        0.091        0.051       26.952        9.465        0.123      338.652       11.448      858.721
05/25/2013  04:45:00       -3.295        3.783        2.867       12.222        6.857        5.420      149.380       47.015       29.378        0.013        0.011        5.017        4.781        0.908      338.643       11.433      858.716
05/25/2013  04:46:00       40.499       13.265       -8.007       20.428       16.104       12.644      417.297      259.326      159.880        0.136        0.042       42.617       10.761        0.064      338.710       11.545      858.706
05/25/2013  04:47:00        7.116       33.598       42.813       20.990       19.321       19.793      440.585      373.300      391.777        0.211        0.060       34.343       19.552        0.324      338.648       11.440      858.701
05/25/2013  04:48:00       -6.743       70.315       84.501       16.778       31.977       24.015      281.497     1022.506      576.708        0.701        0.094       70.638       20.859        0.087      338.642       11.433      858.693
05/25/2013  04:49:00       83.222       96.807       75.408       46.791       42.334       34.554     2189.442     1792.202     1193.978        1.358        0.259      127.661       28.555        0.050      338.675       11.486      858.673
05/25/2013  04:50:00       10.693       -6.333       45.165       39.233       73.358       48.036     1539.223     5381.347     2307.505        0.571        0.461       12.427       45.220       13.241      338.698       11.525      858.665
05/25/2013  04:51:00       78.329     -144.759      -19.296       58.611       47.265       35.926     3435.212     2234.006     1290.657        1.721        0.348      164.592       35.911        0.048      338.783       11.669      858.659
05/25/2013  04:52:00       40.496      -95.636      -20.293       32.683       39.308       21.925     1068.202     1545.158      480.726        0.715        0.155      103.857       10.866        0.011      338.870       11.814      858.692
05/25/2013  04:53:00       21.191      -63.669      -19.002       28.611       38.187       25.184      818.599     1458.219      634.255        0.389        0.146       67.103       15.013        0.050      338.889       11.847      858.720
05/25/2013  04:54:00      -17.846      -47.112        7.961       26.100       36.094       16.220      681.218     1302.802      263.076        0.242        0.112       50.379       10.566        0.044      338.838       11.760      858.732
05/25/2013  04:55:00       -4.681       -4.662       15.092       19.678       29.594       16.585      387.208      875.797      275.053        0.090        0.077        6.607       14.563        4.859      338.697       11.525      858.728
05/25/2013  04:56:00        5.966        7.732       42.410       27.149       24.551       26.740      737.093      602.758      715.039        0.197        0.103        9.766       18.842        3.722      338.667       11.473      858.713
05/25/2013  04:57:00        0.232       17.088       32.297       13.044       23.653       14.362      170.151      559.454      206.279        0.114        0.047       17.090        4.340        0.064      338.614       11.384      858.725
05/25/2013  04:58:00        8.930       29.879       32.196       19.374       23.328       14.211      375.364      544.213      201.960        0.157        0.056       31.185       12.223        0.154      338.539       11.259      858.734
05/25/2013  04:59:00       -8.850       -5.521       27.552       20.608       24.163       18.497      424.686      583.835      342.123        0.111        0.068       10.430       18.519        3.152      338.567       11.308      858.721
05/25/2013  05:00:00       37.934      -58.111        2.223       30.787       37.917       25.305      947.865     1437.670      640.332        0.392        0.151       69.396       28.282        0.166      338.649       11.444      858.719
05/25/2013  05:01:00       24.668      -50.712       -7.846       19.513       22.290       18.072      380.748      496.846      326.595        0.222        0.060       56.393       12.038        0.046      338.690       11.512      858.725
05/25/2013  05:02:00       -2.422       -4.182        9.644       15.682       18.863       18.464      245.913      355.797      340.936        0.053        0.047        4.833       14.704        9.258      338.605       11.368      858.725
05/25/2013  05:03:00       19.454       16.170       18.759       34.644       22.417       22.898     1200.210      502.533      524.339        0.161        0.111       25.297       17.638        0.486      338.516       11.219      858.724
05/25/2013  05:04:00       44.922       19.268       37.364       43.051       42.251       27.593     1853.371     1785.117      761.379        0.409        0.220       48.880       31.064        0.404      338.645       11.437      858.703
05/25/2013  05:05:00       -0.384       28.042       50.791       16.251       32.762       18.553      264.080     1073.317      344.220        0.252        0.084       28.045       22.353        0.635      338.568       11.308      858.692
05/25/2013  05:06:00       -1.489      -12.333       20.437       13.218       27.808       20.261      174.728      773.289      410.505        0.097        0.068       12.423       18.296        2.169      338.596       11.354      858.687
05/25/2013  05:07:00        3.850      -18.571        5.513       12.386       14.507       15.262      153.417      210.446      232.925        0.049        0.030       18.966       10.339        0.297      338.617       11.392      858.707
05/25/2013  05:08:00        2.333        6.135        7.256       19.760       12.353       17.223      390.459      152.604      296.648        0.047        0.042        6.563       14.275        4.730      338.588       11.342      858.708
05/25/2013  05:09:00       23.372       33.352       21.772       17.519       28.938       23.264      306.902      837.407      541.222        0.191        0.084       40.726       23.504        0.333      338.539       11.259      858.697
05/25/2013  05:10:00      -20.600       38.743       -6.803       18.938       14.616        8.768      358.657      213.623       76.878        0.131        0.032       43.879       10.918        0.062      338.465       11.134      858.697
05/25/2013  05:11:00      -62.312        7.377       -4.028       20.651       11.388        8.071      426.469      129.680       65.144        0.229        0.031       62.747        4.980        0.006      338.518       11.224      858.707
05/25/2013  05:12:00      -62.129      -13.832       -6.366       18.505       10.754       10.908      342.440      115.649      118.981        0.233        0.029       63.650       10.461        0.027      338.531       11.246      858.722
05/25/2013  05:13:00      -24.364        8.412      -12.067       10.326       10.395        4.538      106.625      108.046       20.589        0.052        0.012       25.776        4.005        0.024      338.592       11.348      858.721
05/25/2013  05:14:00       23.093        6.020        2.283       16.607       17.699        9.884      275.783      313.238       97.701        0.063        0.034       23.864        9.075        0.145      338.564       11.302      858.708
05/25/2013  05:15:00        1.764       11.330       10.934       17.432       14.662       10.708      303.859      214.972      114.666        0.044        0.032       11.467        8.642        0.568      338.412       11.045      858.709
05/25/2013  05:16:00      -91.421       15.492       -6.482       31.879       11.909        6.641     1016.253      141.834       44.096        0.492        0.060       92.725        8.328        0.008      338.392       11.011      858.722
05/25/2013  05:17:00      -70.691      -17.622        2.066       35.823       24.690       19.753     1283.284      609.579      390.199        0.380        0.114       72.854       19.673        0.073      338.181       10.657      858.734
05/25/2013  05:18:00      -25.440       30.887       -3.386       16.917       39.471       14.856      286.193     1557.943      220.710        0.184        0.103       40.015       15.665        0.153      338.196       10.684      858.735
05/25/2013  05:19:00       60.267       64.527        4.913       47.302       27.187       26.173     2237.504      739.109      685.032        0.574        0.183       88.294       21.994        0.062      338.331       10.909      858.713
05/25/2013  05:20:00      187.886       77.870       22.710       65.339       42.289       48.013     4269.134     1788.330     2305.282        2.512        0.418      203.384       14.724        0.005      338.300       10.857      858.647
05/25/2013  05:21:00       38.145       81.638       81.969       62.512       48.411       34.107     3907.708     2343.627     1163.284        1.113        0.371       90.110       30.759        0.117      338.275       10.815      858.637
05/25/2013  05:22:00      -56.801      -38.081        5.182       79.182       49.936       36.309     6269.846     2493.638     1318.315        0.739        0.504       68.385       43.184        0.399      338.412       11.046      858.675
05/25/2013  05:23:00     -127.004      -98.913        7.512       68.790       54.957       38.688     4732.113     3020.253     1496.774        1.761        0.462      160.978       33.522        0.043      338.285       10.830      858.723
05/25/2013  05:24:00     -164.295      -93.538       -0.913       81.142       51.921       30.024     6584.060     2695.743      901.459        2.296        0.509      189.056       34.564        0.033      338.323       10.893      858.758
05/25/2013  05:25:00     -140.166      -73.941       -1.865       52.565       47.589       24.765     2763.051     2264.718      613.314        1.538        0.282      158.473       27.612        0.030      338.445       11.100      858.780
05/25/2013  05:26:00      -26.182       43.551       -3.148       37.431       23.379       20.412     1401.045      546.559      416.641        0.248        0.118       50.815       15.103        0.088      338.511       11.214      858.773
05/25/2013  05:27:00       96.643       75.412       19.806       34.351       27.539       23.238     1179.979      758.390      540.006        0.895        0.124      122.584       14.704        0.014      338.350       10.943      858.724
05/25/2013  05:28:00       23.337      102.873      104.117       95.355       60.482       69.918     9092.507     3658.031     4888.481        1.980        0.882      105.487       68.739        0.425      338.456       11.119      858.655
05/25/2013  05:29:00      163.036      115.813        1.060       87.603       45.727       41.751     7674.311     2090.985     1743.155        2.575        0.575      199.983       32.445        0.026      338.759       11.627      858.652
05/25/2013  05:30:00      116.654       60.290        8.257       74.928       52.109       35.154     5614.263     2715.343     1235.793        1.344        0.478      131.312        9.868        0.006      338.346       10.934      858.674
05/25/2013  05:31:00       41.866      -49.111       19.700       37.899       73.403       46.539     1436.330     5388.021     2165.917        0.677        0.450       64.535       53.784        0.695      338.531       11.247      858.691
05/25/2013  05:32:00       33.998       67.464      118.320       62.363      106.068       68.779     3889.203    11250.317     4730.517        1.979        0.994       75.546       76.388        1.022      338.448       11.104      858.665
05/25/2013  05:33:00       50.674      152.909      166.839       78.703       77.899       43.693     6194.121     6068.184     1909.068        3.398        0.709      161.087       44.774        0.077      338.359       10.955      858.665
05/25/2013  05:34:00       66.610       84.465      118.410       91.007       85.468       68.080     8282.275     7304.732     4634.950        2.290        1.011      107.570       68.788        0.409      338.370       10.976      858.655
05/25/2013  05:35:00       23.733      -16.972       37.433       36.104       40.140       31.288     1303.483     1611.213      978.928        0.307        0.195       29.177       19.986        0.469      338.322       10.895      858.689
05/25/2013  05:36:00      -34.442      -24.771       -2.192      127.802       60.186       38.855    16333.333     3622.339     1509.737        1.163        1.073       42.425       30.646        0.522      338.289       10.839      858.722
05/25/2013  05:37:00     -144.179     -113.106        2.125       76.102       69.304       42.003     5791.473     4803.041     1764.224        2.297        0.618      183.250       43.384        0.056      338.187       10.665      858.760
05/25/2013  05:38:00     -124.674      -72.655        8.590       78.085       42.769       37.368     6097.199     1829.192     1396.357        1.511        0.466      144.299       40.801        0.080      338.273       10.813      858.781
05/25/2013  05:39:00        4.827      -81.655        2.374       67.151       67.416       27.453     4509.301     4544.866      753.694        0.825        0.490       81.797       34.220        0.175      338.384       10.998      858.786
05/25/2013  05:40:00       23.748      -31.632       10.022       35.915       40.945       30.896     1289.876     1676.482      954.535        0.279        0.196       39.554       29.162        0.544      338.447       11.105      858.781
05/25/2013  05:41:00      -85.053      -61.129        5.707       75.079       45.162       30.443     5636.899     2039.573      926.777        0.980        0.430      104.741       33.064        0.100      338.314       10.882      858.815
05/25/2013  05:42:00     -129.546      -59.855        1.499       52.881       51.606       33.609     2796.409     2663.210     1129.590        1.348        0.329      142.705       26.358        0.034      338.171       10.641      858.835
05/25/2013  05:43:00      -12.202      -41.896        0.299       48.127       30.973       29.183     2316.241      959.329      851.664        0.302        0.206       43.637       21.376        0.240      338.209       10.704      858.799
05/25/2013  05:44:00       10.666      -11.167        5.799       32.239       24.200       23.753     1039.344      585.639      564.183        0.123        0.109       15.442       15.960        1.068      338.356       10.952      858.754
05/25/2013  05:45:00       55.302       34.960       21.036       48.557       26.959       24.094     2357.816      726.811      580.533        0.419        0.183       65.426       19.444        0.088      338.224       10.730      858.733
05/25/2013  05:46:00       57.372       41.893       19.769       29.069       23.195       20.933      844.986      537.998      438.208        0.363        0.091       71.039       11.401        0.026      338.221       10.725      858.732
05/25/2013  05:47:00       11.382        2.950       22.037       14.786       11.448       14.151      218.631      131.063      200.257        0.059        0.027       11.758        8.610        0.536      338.186       10.667      858.736
05/25/2013  05:48:00       11.056      -38.290       -3.424       13.840       19.702       11.058      191.551      388.181      122.273        0.115        0.035       39.854        8.829        0.049      338.388       11.005      858.742
05/25/2013  05:49:00       23.331      -54.637      -14.821       23.337       19.579       14.052      544.611      383.352      197.457        0.244        0.056       59.410        3.184        0.003      338.376       10.985      858.765
05/25/2013  05:50:00      -69.507       -6.860       -6.208       29.448       21.709       14.910      867.187      471.298      222.306        0.324        0.078       69.845       14.350        0.042      338.299       10.855      858.803
05/25/2013  05:51:00      -71.890      -47.967        9.559       68.123       34.944       25.279     4640.791     1221.090      639.007        0.703        0.325       86.423       19.920        0.053      338.138       10.586      858.819
05/25/2013  05:52:00     -127.785      -54.000       -5.996       39.178       27.890       21.223     1534.915      777.826      450.419        1.102        0.138      138.727       17.055        0.015      337.999       10.352      858.819
05/25/2013  05:53:00      -85.098      -42.451        0.117       38.446       35.064       23.353     1478.078     1229.495      545.381        0.615        0.163       95.099       20.764        0.048      338.036       10.415      858.810
05/25/2013  05:54:00       -9.834       11.330       13.712       24.359       14.737       11.643      593.354      217.173      135.569        0.068        0.047       15.003       11.629        0.601      338.015       10.380      858.809
05/25/2013  05:55:00       -3.410       29.913       41.259       14.914       26.862       16.294      222.415      721.569      265.501        0.191        0.060       30.106       12.467        0.171      338.017       10.382      858.795
05/25/2013  05:56:00       -1.704      -15.095       13.961       11.382       15.967       12.159      129.545      254.942      147.844        0.048        0.027       15.190        8.898        0.343      338.199       10.689      858.814
05/25/2013  05:57:00      -25.874       -1.816       -1.882       19.916       14.655        8.659      396.659      214.756       74.982        0.068        0.034       25.938       10.229        0.156      338.251       10.775      858.843
05/25/2013  05:58:00      -39.181        8.650       -0.065       16.747       11.486       10.808      280.471      131.924      116.820        0.107        0.026       40.124        7.116        0.031      338.044       10.428      858.857
05/25/2013  05:59:00      -28.894       13.475       -4.067        9.430       11.134        8.641       88.925      123.964       74.662        0.066        0.014       31.882        5.919        0.034      337.956       10.282      858.858
05/25/2013  06:00:00      -25.141       31.644       -2.231       12.441       11.992       11.741      154.780      143.799      137.852        0.104        0.022       40.415        8.769        0.047      337.959       10.286      858.859
05/25/2013  06:01:00      -29.263       61.658       -7.713       18.877       29.178        9.746      356.323      851.341       94.991        0.301        0.065       68.249        9.639        0.020      338.117       10.551      858.862
05/25/2013  06:02:00       -0.827       28.699       -8.232       18.679       33.783       13.943      348.917     1141.322      194.405        0.129        0.084       28.711       16.749        0.340      338.272       10.812      858.864
05/25/2013  06:03:00      -70.557       -1.630      -11.625       22.317       15.094       10.643      498.057      227.829      113.280        0.298        0.042       70.575        9.425        0.018      338.106       10.532      858.861
05/25/2013  06:04:00     -112.856        2.593      -13.363       18.929       18.677       13.299      358.322      348.830      176.850        0.690        0.044      112.886        8.415        0.006      338.044       10.429      858.874
05/25/2013  06:05:00      -75.910       47.490      -15.688       35.762       45.713       16.849     1278.930     2089.691      283.891        0.596        0.183       89.541       14.356        0.026      338.203       10.695      858.879
05/25/2013  06:06:00      -34.489       14.530        1.320       32.939       37.942       19.982     1084.969     1439.608      399.276        0.216        0.146       37.425       15.093        0.163      338.138       10.586      858.879
05/25/2013  06:07:00      -41.542      -36.761        2.380       31.407       28.948       17.801      986.421      837.980      316.865        0.261        0.107       55.471       19.718        0.126      338.005       10.364      858.877
05/25/2013  06:08:00      -27.568      -54.244       -0.686       33.249       23.821       15.084     1105.484      567.434      227.520        0.280        0.095       60.847       15.079        0.061      337.929       10.235      858.868
05/25/2013  06:09:00      -55.015      -31.084       -8.683       21.967       17.828       12.643      482.535      317.854      159.858        0.251        0.048       63.190        8.710        0.019      338.031       10.406      858.857
05/25/2013  06:10:00     -116.052      -30.757      -10.838       31.468       15.280       12.892      990.225      233.491      166.201        0.796        0.069      120.058       10.998        0.008      338.015       10.381      858.857
05/25/2013  06:11:00      -95.052      -45.947       -5.412       30.245       21.628       18.008      914.789      467.786      324.272        0.644        0.085      105.574       12.918        0.015      337.962       10.288      858.865
05/25/2013  06:12:00     -103.143      -47.941       -4.025       19.165       18.013       15.006      367.310      324.466      225.173        0.693        0.046      113.740       12.300        0.012      337.955       10.279      858.872
05/25/2013  06:13:00      -34.815      -36.013        6.453       35.561       22.694       17.688     1264.597      515.002      312.862        0.232        0.105       50.090       18.697        0.139      337.925       10.228      858.878
05/25/2013  06:14:00      -39.737      -56.016        2.422       32.117       33.044       21.610     1031.512     1091.892      466.984        0.366        0.130       68.679       20.434        0.089      337.981       10.323      858.883
05/25/2013  06:15:00      -40.876      -41.128        9.628       43.348       25.504       18.591     1879.050      650.432      345.617        0.316        0.144       57.986       20.510        0.125      337.948       10.268      858.890
05/25/2013  06:16:00      -35.109      -53.717       15.148       51.378       34.997       28.934     2639.722     1224.796      837.166        0.452        0.235       64.173       34.622        0.291      338.067       10.466      858.907
05/25/2013  06:17:00      -24.592      -43.532        6.342       38.244       32.920       26.157     1462.618     1083.736      684.204        0.288        0.162       49.997       26.794        0.287      338.095       10.513      858.906
05/25/2013  06:18:00      -47.741      -44.638       -0.227       27.642       20.323       15.797      764.088      413.039      249.560        0.285        0.071       65.359       13.750        0.044      338.126       10.567      858.916
05/25/2013  06:19:00      -39.473       -7.966        0.396       18.142       14.288       10.181      329.119      204.151      103.660        0.113        0.032       40.269        6.107        0.023      338.138       10.586      858.916
05/25/2013  06:20:00       -0.844      -12.860        0.261       10.212       14.132       12.967      104.280      199.713      168.152        0.032        0.024       12.888        8.705        0.456      338.039       10.419      858.914
05/25/2013  06:21:00      -44.558      -39.758        2.437       50.216       40.149       21.765     2521.693     1611.903      473.729        0.409        0.230       59.717       25.183        0.178      338.026       10.397      858.926
05/25/2013  06:22:00     -109.479      -80.925       -7.066       26.525       33.507       22.706      703.599     1122.706      515.545        1.046        0.117      136.141       19.313        0.020      338.002       10.358      858.944
05/25/2013  06:23:00     -103.467      -35.380        1.728       34.701       28.439       16.704     1204.164      808.792      279.037        0.713        0.115      109.349       12.967        0.014      338.002       10.358      858.958
05/25/2013  06:24:00      -46.195      -26.386        4.233       32.329       24.884       20.613     1045.164      619.229      424.909        0.247        0.104       53.200       19.865        0.139      338.010       10.372      858.967
05/25/2013  06:25:00        1.207       16.020        2.764       19.422       18.067        9.743      377.225      326.427       94.919        0.053        0.040       16.066        8.338        0.269      337.970       10.302      858.966
05/25/2013  06:26:00       50.906       58.568        4.928       25.568       23.009       19.551      653.709      529.410      382.224        0.381        0.078       77.599       13.996        0.033      338.134       10.579      858.964
05/25/2013  06:27:00       14.984       32.136       35.398       40.144       29.675       20.102     1611.531      880.615      404.103        0.270        0.145       35.458       24.652        0.483      338.272       10.811      858.953
05/25/2013  06:28:00       -1.660        6.420       32.658       19.464       24.366       23.061      378.833      593.708      531.812        0.131        0.075        6.631       19.781        8.898      338.408       11.039      858.972
05/25/2013  06:29:00       20.697       -1.125      -19.520       26.054       26.078       24.185      678.791      680.076      584.916        0.138        0.097       20.728       17.832        0.740      338.370       10.976      858.997
05/25/2013  06:30:00        8.894       14.639      -35.778       15.436       30.370       17.805      238.268      922.321      317.032        0.153        0.074       17.129       11.143        0.423      338.366       10.969      859.017
05/25/2013  06:31:00      -14.312       -9.673        9.735       25.858       16.067       14.715      668.639      258.141      216.524        0.077        0.057       17.274       16.525        0.915      338.305       10.866      859.023
05/25/2013  06:32:00      -38.898        9.522        0.550       21.118       10.847       11.834      445.958      117.667      140.049        0.115        0.035       40.047        7.612        0.036      338.210       10.708      859.026
05/25/2013  06:33:00      -66.199       27.350       -7.296       21.794       17.603       16.508      475.000      309.870      272.521        0.312        0.053       71.627       13.617        0.036      338.083       10.493      859.041
05/25/2013  06:34:00      -58.677       35.486      -16.099       21.419       22.196       11.579      458.761      492.672      134.077        0.302        0.054       68.572        9.227        0.018      338.173       10.644      859.053
05/25/2013  06:35:00      -88.287       -0.586       -5.633       19.234       18.413       11.099      369.928      339.030      123.187        0.433        0.042       88.289        8.870        0.010      338.181       10.657      859.065
05/25/2013  06:36:00     -110.732      -50.561       -7.947       24.554       24.284       16.828      602.898      589.731      283.166        0.818        0.074      121.729       13.223        0.012      338.194       10.679      859.080
05/25/2013  06:37:00      -66.612      -28.980       -2.564       43.474       25.050       18.488     1890.011      627.522      341.803        0.407        0.143       72.643       20.041        0.076      338.254       10.781      859.092
05/25/2013  06:38:00      -79.868      -25.940       -2.564       36.378       39.216       17.935     1323.395     1537.890      321.656        0.512        0.159       83.974       17.678        0.044      338.205       10.699      859.110
05/25/2013  06:39:00      -99.684      -10.567       -7.796       24.975       36.710       12.382      623.751     1347.604      153.316        0.612        0.106      100.243        5.860        0.003      338.265       10.797      859.108
05/25/2013  06:40:00       15.980       13.800       12.341       33.775       40.253       18.967     1140.742     1620.328      359.743        0.186        0.156       21.113       20.460        0.939      338.437       11.087      859.110
05/25/2013  06:41:00       44.202       96.594      -12.395       33.380       65.303       27.648     1114.257     4264.510      764.400        0.879        0.307      106.227       34.017        0.103      338.404       11.032      859.095
05/25/2013  06:42:00       -3.880       83.636       -9.611       30.662       46.400       24.291      940.170     2152.996      590.041        0.539        0.184       83.725       20.469        0.060      338.442       11.095      859.087
05/25/2013  06:43:00      -21.193       67.515        2.282       33.882       49.622       22.360     1148.015     2462.373      499.949        0.456        0.206       70.763       27.138        0.147      338.495       11.185      859.097
05/25/2013  06:44:00      -66.100       70.808      -14.753       34.913       27.885       16.581     1218.914      777.595      274.939        0.594        0.114       96.866        6.637        0.005      338.290       10.841      859.112
05/25/2013  06:45:00      -99.383      -61.389       -6.012       48.436       52.770       29.867     2346.009     2784.669      892.022        0.985        0.301      116.815       28.293        0.059      338.299       10.857      859.121
05/25/2013  06:46:00      -16.457        6.763       42.068       82.136       84.990       48.557     6746.259     7223.242     2357.822        0.920        0.816       17.793       54.433        9.359      338.463       11.132      859.117
05/25/2013  06:47:00       25.889       84.072       -0.743       91.019       54.910       61.415     8284.538     3015.135     3771.788        1.140        0.754       87.968       45.015        0.262      338.351       10.945      859.145
05/25/2013  06:48:00       41.894       46.241        4.310       81.001       47.418       37.584     6561.145     2248.485     1412.545        0.707        0.511       62.397       27.499        0.194      338.373       10.981      859.140
05/25/2013  06:49:00      -69.434       57.374      -12.427       54.113       86.299       26.160     2928.201     7447.462      684.367        0.966        0.553       90.071       10.221        0.013      338.342       10.929      859.145
05/25/2013  06:50:00     -138.043      -63.774       -0.289       76.812       61.413       33.097     5900.013     3771.615     1095.414        1.694        0.538      152.062       13.115        0.007      338.311       10.876      859.140
05/25/2013  06:51:00     -143.512     -103.317       -2.290       86.432       61.363       39.579     7470.456     3765.398     1566.483        2.204        0.640      176.834       36.312        0.042      338.321       10.892      859.143
05/25/2013  06:52:00     -105.284       52.130      -11.342       44.092       60.507       34.225     1944.109     3661.052     1171.359        1.035        0.339      117.483       38.325        0.106      338.291       10.842      859.172
05/25/2013  06:53:00     -127.581       85.471      -18.076       66.120       50.846       23.400     4371.808     2585.303      547.565        1.571        0.375      153.565       18.779        0.015      338.263       10.795      859.189
05/25/2013  06:54:00     -136.386      -32.238      -16.548       47.346       35.580       20.069     2241.600     1265.941      402.764        1.191        0.196      140.144       21.711        0.024      338.315       10.885      859.208
05/25/2013  06:55:00      -73.256      -24.361       11.546       53.052       42.997       29.827     2814.532     1848.742      889.631        0.582        0.278       77.200       30.047        0.151      338.414       11.049      859.214
05/25/2013  06:56:00      -48.371      -59.033        3.684       57.302       33.816       31.879     3283.489     1143.523     1016.269        0.564        0.272       76.319       35.658        0.218      338.472       11.147      859.203
05/25/2013  06:57:00      -36.855      -53.298        5.383       47.569       36.029       25.266     2262.792     1298.115      638.389        0.421        0.210       64.800       24.917        0.148      338.441       11.095      859.206
05/25/2013  06:58:00      -28.581      -97.720       16.526       57.963       56.425       32.097     3359.667     3183.796     1030.193        0.911        0.379      101.814       36.978        0.132      338.414       11.050      859.211
05/25/2013  06:59:00      -28.859     -124.056        0.048       37.982       29.478       24.533     1442.637      868.927      601.847        0.957        0.146      127.369       14.850        0.014      338.387       11.006      859.210
05/25/2013  07:00:00      -35.815     -137.033        6.109       64.200       66.390       28.262     4121.624     4407.623      798.745        1.471        0.466      141.636       23.536        0.028      338.364       10.966      859.217
05/25/2013  07:01:00     -110.645      -84.151      -12.103       26.692       28.556       24.392      712.489      815.436      594.985        1.080        0.106      139.010        8.430        0.004      338.367       10.971      859.220
05/25/2013  07:02:00      -44.101      -19.706       13.072       38.938       28.705       18.015     1516.161      823.981      324.558        0.258        0.133       48.303       20.384        0.178      338.574       11.318      859.212
05/25/2013  07:03:00      -55.578      -68.224        5.828       40.367       55.426       26.431     1629.517     3072.073      698.594        0.659        0.270       87.997       18.270        0.043      338.513       11.214      859.220
05/25/2013  07:04:00      -81.245     -100.527       -6.785       60.002       66.779       25.885     3600.183     4459.453      670.011        1.274        0.436      129.254       32.674        0.064      338.490       11.174      859.215
05/25/2013  07:05:00      -96.757      -59.619       -4.274       37.928       53.863       25.543     1438.569     2901.187      652.431        0.896        0.250      113.650       19.502        0.029      338.485       11.169      859.205
05/25/2013  07:06:00      -74.438      -60.890        2.328       31.293       27.908       19.524      979.268      778.871      381.194        0.570        0.107       96.170       13.931        0.021      338.484       11.167      859.211
05/25/2013  07:07:00      -55.042      -70.075        5.207       28.841       35.830       18.293      831.798     1283.809      334.637        0.521        0.123       89.107        8.763        0.010      338.518       11.224      859.206
05/25/2013  07:08:00      -87.659     -109.834        3.082      107.797       57.218       44.405    11620.152     3273.857     1971.808        1.831        0.843      140.527       48.067        0.117      338.561       11.295      859.197
05/25/2013  07:09:00     -142.302     -105.947       -4.500       43.587       36.520       25.714     1899.807     1333.728      661.194        1.769        0.195      177.410       18.718        0.011      338.537       11.255      859.190
05/25/2013  07:10:00      -50.878      -72.721        0.583       41.128       39.491       26.394     1691.545     1559.561      696.633        0.591        0.197       88.751       25.839        0.085      338.624       11.402      859.188
05/25/2013  07:11:00     -100.227      -97.968       -9.327       43.282       24.743       23.454     1873.367      612.240      550.112        1.138        0.152      140.154       18.168        0.017      338.572       11.314      859.194
05/25/2013  07:12:00      -98.315      -98.560        1.006       63.493       60.749       38.179     4031.378     3690.492     1457.616        1.428        0.459      139.212       37.803        0.074      338.639       11.427      859.212
05/25/2013  07:13:00     -105.873     -100.202        0.740       51.105       53.295       31.617     2611.749     2840.367      999.622        1.385        0.323      145.773       28.117        0.037      338.649       11.445      859.227
05/25/2013  07:14:00      -63.612      -72.081       14.131       61.877       51.389       34.880     3828.739     2640.844     1216.616        0.856        0.384       96.136       31.546        0.108      338.768       11.645      859.236
05/25/2013  07:15:00      -32.863      -31.851       18.830       47.647       32.689       33.746     2270.220     1068.556     1138.826        0.346        0.224       45.765       33.545        0.537      338.888       11.846      859.236
05/25/2013  07:16:00      -65.896      -44.257        2.297       49.306       57.751       24.437     2431.065     3335.161      597.180        0.633        0.318       79.379       19.607        0.061      338.953       11.954      859.245
05/25/2013  07:17:00      -10.383      -29.376       14.386       38.413       30.466       23.786     1475.570      928.192      565.767        0.207        0.148       31.157       22.915        0.541      339.121       12.238      859.239
05/25/2013  07:18:00      -68.065      -91.767        7.994       45.098       33.873       28.291     2033.798     1147.356      800.360        0.855        0.199      114.254       27.977        0.060      338.790       11.679      859.241
05/25/2013  07:19:00      -98.298      -25.093       -4.221       64.273       61.799       31.828     4130.968     3819.080     1013.003        0.964        0.448      101.451       27.495        0.073      338.790       11.681      859.238
05/25/2013  07:20:00      -34.557      -57.715        0.918       31.485       34.656       13.996      991.328     1201.021      195.899        0.346        0.119       67.269       14.547        0.047      338.881       11.833      859.242
05/25/2013  07:21:00      -44.329      -53.051       12.281       54.599       39.636       28.227     2981.085     1571.049      796.756        0.514        0.267       69.134       36.323        0.276      339.124       12.242      859.245
05/25/2013  07:22:00      -63.259      -72.626        6.342       58.671       50.221       27.092     3442.314     2522.179      733.956        0.801        0.335       96.313       27.114        0.079      338.939       11.932      859.245
05/25/2013  07:23:00      -72.423      -67.340       14.147       76.764       39.673       34.654     5892.666     1573.969     1200.898        0.932        0.433       98.892       43.764        0.196      338.890       11.848      859.241
05/25/2013  07:24:00      -65.003      -66.660        4.077       57.147       38.802       35.239     3265.804     1505.588     1241.807        0.735        0.301       93.107       35.240        0.143      338.915       11.892      859.252
05/25/2013  07:25:00      -38.030      -57.849       10.330       40.403       41.362       29.732     1632.363     1710.812      884.017        0.456        0.211       69.230       32.194        0.216      339.118       12.233      859.259
05/25/2013  07:26:00      -57.863      -77.041       -1.188       35.688       33.691       22.724     1273.625     1135.111      516.384        0.610        0.146       96.351       19.118        0.039      338.965       11.975      859.252
05/25/2013  07:27:00      -62.626      -60.556       -0.378       49.779       33.904       31.963     2477.911     1149.462     1021.605        0.612        0.232       87.116       31.647        0.132      339.009       12.049      859.265
05/25/2013  07:28:00      -36.864      -60.044        4.184       36.724       52.657       25.121     1348.620     2772.788      631.060        0.487        0.238       70.458       29.224        0.172      339.129       12.251      859.254
05/25/2013  07:29:00      -30.897      -68.721        2.676       31.217       33.366       24.421      974.486     1113.296      596.400        0.418        0.134       75.347       20.682        0.075      339.075       12.161      859.254
05/25/2013  07:30:00      -50.561      -86.656       -1.392       37.417       35.917       20.785     1400.057     1290.066      432.024        0.659        0.156      100.328       12.879        0.016      339.072       12.155      859.246
05/25/2013  07:31:00      -33.477      -73.163       -1.113       14.204       13.209       13.796      201.744      174.486      190.330        0.352        0.028       80.458        6.344        0.006      339.031       12.086      859.254
05/25/2013  07:32:00      -35.914      -41.929        7.651       20.624       30.684       12.112      425.351      941.498      146.707        0.231        0.076       55.207        6.056        0.012      339.154       12.292      859.250
05/25/2013  07:33:00       -9.993      -15.581       -2.694       21.007       43.571       18.913      441.313     1898.442      357.698        0.152        0.135       18.510       20.882        1.273      339.358       12.637      859.265
05/25/2013  07:34:00      -27.885      -47.553       -6.015       37.498       31.346       16.983     1406.091      982.571      288.419        0.288        0.134       55.126        9.560        0.030      339.179       12.335      859.252
05/25/2013  07:35:00      -34.329      -60.819       -0.807       19.297       24.174       16.458      372.378      584.406      270.852        0.305        0.061       69.839       13.559        0.038      339.110       12.221      859.259
05/25/2013  07:36:00        7.199      -33.549       14.257       21.605       27.315       20.349      466.788      746.086      414.078        0.150        0.081       34.313       19.477        0.322      339.663       13.152      859.253
05/25/2013  07:37:00       -0.911      -82.708        4.151       38.430       40.029       28.637     1476.863     1602.338      820.098        0.538        0.195       82.713       12.343        0.022      339.477       12.837      859.227
05/25/2013  07:38:00      -18.223      -31.519       14.466       29.259       31.002       26.257      856.082      961.133      689.411        0.202        0.125       36.408       14.327        0.155      339.765       13.321      859.222
05/25/2013  07:39:00       -8.388       -5.145       17.158       18.172       32.845       28.941      330.225     1078.804      837.560        0.132        0.112        9.840       15.440        2.462      339.896       13.543      859.217
05/25/2013  07:40:00       -0.882      -15.796       39.910       14.856       25.547        9.927      220.698      652.671       98.545        0.141        0.049       15.820        8.137        0.265      340.109       13.903      859.223
05/25/2013  07:41:00      -56.003       42.877        4.563       44.557       29.970       29.478     1985.347      898.222      868.931        0.437        0.188       70.532       33.636        0.227      339.723       13.252      859.217
05/25/2013  07:42:00      -76.389      112.419      -16.687       49.557       46.415       29.696     2455.869     2154.317      881.845        1.212        0.275      135.917       29.073        0.046      339.485       12.850      859.222
05/25/2013  07:43:00      -42.660       24.604      -15.120       72.036       48.640       24.554     5189.171     2365.804      602.895        0.540        0.408       49.247       35.473        0.519      339.411       12.727      859.223
05/25/2013  07:44:00       48.110       -1.539       22.806       29.517       43.294       25.308      871.243     1874.386      640.480        0.311        0.169       48.134       11.441        0.056      339.908       13.565      859.227
05/25/2013  07:45:00      -32.007      133.778       -4.720       81.689       53.588       35.146     6673.170     2871.713     1235.267        1.486        0.539      137.553       34.151        0.062      339.683       13.184      859.253
05/25/2013  07:46:00      -17.890      143.592       -3.530       40.738       76.251       34.938     1659.546     5814.219     1220.644        1.482        0.435      144.702       35.705        0.061      339.844       13.454      859.255
05/25/2013  07:47:00       -0.839      169.879       -5.923       41.399       80.735       40.256     1713.890     6518.104     1620.582        1.937        0.493      169.881       40.012        0.055      339.797       13.375      859.254
05/25/2013  07:48:00      -50.462      139.871       -7.353       43.234       84.300       34.347     1869.197     7106.554     1179.714        1.616        0.508      148.695       26.167        0.031      339.737       13.274      859.260
05/25/2013  07:49:00      -42.705      192.491      -21.825       41.003       66.242       29.166     1681.239     4387.995      850.653        2.314        0.346      197.172       25.361        0.017      339.483       12.845      859.267
05/25/2013  07:50:00      -56.221       48.680       -0.949       47.780       34.656       30.169     2282.939     1201.052      910.167        0.496        0.220       74.367       32.417        0.190      339.585       13.019      859.271
05/25/2013  07:51:00      -43.644       51.262        1.051       42.502       42.650       24.731     1806.453     1819.053      611.636        0.438        0.212       67.325       20.908        0.096      339.885       13.526      859.283
05/25/2013  07:52:00      -83.060       25.679       -9.484       28.373       23.988       19.075      805.000      575.405      363.843        0.470        0.087       86.939       16.681        0.037      339.507       12.887      859.305
05/25/2013  07:53:00      -84.495       29.457      -20.527       32.662       21.839       17.593     1066.821      476.956      309.529        0.514        0.093       89.483       19.212        0.046      339.493       12.863      859.320
05/25/2013  07:54:00       -6.701       11.127        8.941       21.142       25.852       24.403      446.970      668.331      595.504        0.098        0.086       12.989       19.116        2.166      340.138       13.953      859.322
05/25/2013  07:55:00      -16.756       16.955       10.267       22.316       46.398       20.433      498.014     2152.763      417.506        0.187        0.153       23.838       14.419        0.366      340.294       14.215      859.328
05/25/2013  07:56:00      -89.457       12.419       -7.779       35.271       33.652       19.244     1244.052     1132.452      370.343        0.548        0.137       90.315       19.073        0.045      339.541       12.947      859.327
05/25/2013  07:57:00      -49.584      -17.489        4.148       21.106       17.557       14.332      445.459      308.246      205.408        0.187        0.048       52.578       11.897        0.051      339.581       13.013      859.315
05/25/2013  07:58:00      -44.166       29.298       -4.426       22.676       27.290       16.437      514.220      744.719      270.180        0.218        0.076       53.000        8.810        0.028      339.634       13.101      859.310
05/25/2013  07:59:00       -8.811       51.459        7.416       61.568       68.180       38.971     3790.673     4648.449     1518.720        0.637        0.498       52.208       38.403        0.541      339.987       13.696      859.315
05/25/2013  08:00:00      -29.720      112.409        8.135       34.434       80.577       37.222     1185.699     6492.702     1385.444        1.132        0.453      116.271       43.443        0.140      340.230       14.107      859.322
05/25/2013  08:01:00      -12.007      101.209        6.378       36.141       52.506       35.059     1306.207     2756.844     1229.132        0.786        0.265      101.919       33.578        0.109      340.042       13.790      859.329
05/25/2013  08:02:00      -34.593       48.551        9.973       37.071       37.149       37.665     1374.243     1380.033     1418.627        0.391        0.209       59.614       35.439        0.353      340.122       13.925      859.330
05/25/2013  08:03:00       -9.823       48.004       -5.561       32.739       39.894       32.084     1071.820     1591.544     1029.362        0.306        0.185       48.999       25.608        0.273      340.082       13.856      859.340
05/25/2013  08:04:00       -7.099       60.595       -5.141       25.636       42.274       30.923      657.193     1787.123      956.213        0.357        0.170       61.009       25.735        0.178      340.252       14.146      859.343
05/25/2013  08:05:00       50.922       14.344       11.322       29.435       25.388       24.677      866.394      644.572      608.947        0.252        0.106       52.903       11.399        0.046      339.864       13.490      859.339
05/25/2013  08:06:00       39.506       30.639       11.466       39.586       30.098       24.020     1567.086      905.864      576.937        0.284        0.152       49.995       17.662        0.125      339.961       13.652      859.331
05/25/2013  08:07:00       -2.521      100.121       -3.962       30.685       47.475       30.265      941.570     2253.873      915.958        0.708        0.206      100.153       24.941        0.062      340.122       13.925      859.327
05/25/2013  08:08:00       26.124       75.947       10.010       46.622       47.873       28.301     2173.635     2291.789      800.927        0.591        0.263       80.314       24.403        0.092      340.260       14.158      859.327
05/25/2013  08:09:00      126.456       75.684       40.388       54.211       49.536       33.771     2938.814     2453.767     1140.470        1.494        0.327      147.374       11.665        0.006      339.875       13.507      859.330
05/25/2013  08:10:00      132.386       66.712       12.957       33.094       41.502       29.343     1095.212     1722.443      860.989        1.291        0.184      148.245       16.008        0.012      339.686       13.189      859.328
05/25/2013  08:11:00      161.478       95.224       29.798       63.369       49.756       45.258     4015.678     2475.698     2048.329        2.228        0.427      187.464       30.740        0.027      339.767       13.324      859.326
05/25/2013  08:12:00      120.031       60.864       10.537       89.567       47.413       43.476     8022.304     2248.020     1890.167        1.519        0.608      134.580       36.047        0.072      339.971       13.669      859.319
05/25/2013  08:13:00      171.461       94.012       16.202       48.290       45.751       40.306     2331.970     2093.125     1624.586        2.227        0.302      195.544       30.364        0.024      339.739       13.278      859.313
05/25/2013  08:14:00       88.229       35.365        6.081       79.649       52.081       40.674     6343.921     2712.428     1654.357        0.989        0.536       95.052       34.694        0.133      340.127       13.935      859.311
05/25/2013  08:15:00       18.404       17.990       21.822       65.541       53.735       30.021     4295.672     2887.499      901.269        0.461        0.404       25.736       24.532        0.909      340.371       14.345      859.307
05/25/2013  08:16:00       -1.156       27.215       52.661       21.430       26.544       20.809      459.229      704.561      432.994        0.256        0.080       27.240       13.259        0.237      340.503       14.570      859.321
05/25/2013  08:17:00        5.353       31.852       45.351       24.320       31.994       15.706      591.480     1023.637      246.677        0.248        0.093       32.299       12.960        0.161      340.630       14.783      859.323
05/25/2013  08:18:00      -13.870       27.010       39.212       12.213       24.379       23.104      149.157      594.353      533.783        0.187        0.064       30.363       13.213        0.189      340.853       15.163      859.324
05/25/2013  08:19:00      -26.099       36.182       19.319       33.257       23.557       20.861     1106.036      554.940      435.198        0.223        0.105       44.613       19.390        0.189      340.441       14.467      859.340
05/25/2013  08:20:00       -8.024        8.048       37.712       15.842       17.746       12.660      250.973      314.909      160.278        0.114        0.036       11.364        8.862        0.608      341.036       15.471      859.338
05/25/2013  08:21:00       10.186       33.687       24.456       42.010       33.976       20.611     1764.826     1154.348      424.831        0.259        0.167       35.193       16.867        0.230      340.681       14.869      859.346
05/25/2013  08:22:00       78.173       82.278       -5.708       37.615       43.301       36.846     1414.857     1874.980     1357.636        0.878        0.232      113.493       29.725        0.069      339.969       13.666      859.341
05/25/2013  08:23:00       64.472       38.483       10.453       47.351       35.043       31.149     2242.110     1228.045      970.250        0.509        0.222       75.084       27.892        0.138      340.136       13.949      859.338
05/25/2013  08:24:00       93.221       31.026       28.931       37.857       38.224       33.459     1433.161     1461.052     1119.494        0.725        0.201       98.249       21.619        0.048      340.019       13.752      859.336
05/25/2013  08:25:00      114.511       71.929       -3.143       33.762       25.232       29.379     1139.864      636.645      863.116        1.047        0.132      135.228       20.272        0.022      339.918       13.581      859.334
05/25/2013  08:26:00       55.687       69.782       63.689       61.020       37.606       42.516     3723.442     1414.237     1807.592        0.948        0.347       89.278       34.809        0.152      340.539       14.630      859.325
05/25/2013  08:27:00       64.088       83.494       63.322       63.465       51.889       49.165     4027.854     2692.491     2417.182        1.211        0.457      105.255       32.297        0.094      340.402       14.397      859.336
05/25/2013  08:28:00      137.822       75.130       39.536      103.728       61.265       55.200    10759.395     3753.391     3047.007        2.188        0.878      156.970       15.030        0.009      340.330       14.273      859.342
05/25/2013  08:29:00      202.620      137.309       41.018      101.456       77.365       68.540    10293.405     5985.413     4697.669        4.128        1.049      244.762       38.719        0.025      339.983       13.686      859.347
05/25/2013  08:30:00      196.323      144.555       35.555       96.226       81.613       65.530     9259.422     6660.680     4294.185        4.046        1.011      243.801       35.095        0.021      340.014       13.739      859.352
05/25/2013  08:31:00      221.888      140.300       40.817       86.253       70.692       65.569     7439.512     4997.388     4299.322        4.366        0.837      262.523       24.968        0.009      340.029       13.765      859.359
05/25/2013  08:32:00      103.325       73.983       86.017       91.469       73.299       62.321     8366.588     5372.723     3883.926        2.058        0.881      127.080       60.502        0.227      340.179       14.020      859.363
05/25/2013  08:33:00      106.820      -33.655       50.351       77.593       85.801       63.546     6020.636     7361.767     4038.067        1.625        0.871      111.996       47.239        0.178      340.235       14.114      859.366
05/25/2013  08:34:00       89.048       -1.295       70.082       88.260       83.026       53.091     7789.757     6893.394     2818.639        1.517        0.875       89.057       58.790        0.436      340.221       14.090      859.379
05/25/2013  08:35:00      168.211      113.009       29.005       66.478       40.999       59.344     4419.284     1680.879     3521.666        2.576        0.481      202.647       37.116        0.034      339.819       13.412      859.389
05/25/2013  08:36:00       52.092       53.891       68.908       78.094       58.031       47.139     6098.670     3367.563     2222.082        1.103        0.584       74.952       37.441        0.250      340.315       14.249      859.380
05/25/2013  08:37:00       63.169       76.376       90.772       75.893       99.841       76.519     5759.795     9968.263     5855.131        1.982        1.079       99.114       56.749        0.328      340.341       14.294      859.383
05/25/2013  08:38:00      108.335       62.452       52.262       60.763       50.162       40.859     3692.191     2516.242     1669.491        1.312        0.394      125.047       29.396        0.055      339.928       13.598      859.393
05/25/2013  08:39:00       60.208       46.854       65.757       50.582       64.404       49.803     2558.500     4147.874     2480.367        0.966        0.459       76.291       44.649        0.343      340.098       13.886      859.384
05/25/2013  08:40:00       72.920       -1.563       63.554       69.117       60.128       58.063     4777.126     3615.381     3371.287        1.056        0.588       72.937       46.965        0.415      340.122       13.925      859.372
05/25/2013  08:41:00       36.486       11.153       65.545       52.212       72.727       52.383     2726.118     5289.225     2743.989        0.825        0.538       38.153       42.339        1.231      340.533       14.619      859.353
05/25/2013  08:42:00       20.973       83.516      101.172       39.260       42.605       21.475     1541.334     1815.166      461.161        1.073        0.191       86.109       21.854        0.064      340.190       14.039      859.362
05/25/2013  08:43:00       37.894       20.609       64.250       36.291       83.848       51.297     1317.044     7030.518     2631.426        0.848        0.549       43.136       60.386        1.960      339.998       13.715      859.366
05/25/2013  08:44:00       -0.835      -31.123       25.244       17.706       55.958       38.100      313.491     3131.341     1451.636        0.325        0.245       31.134       38.529        1.531      340.412       14.415      859.367
05/25/2013  08:45:00       59.838       38.419       23.215       37.176       41.346       36.684     1382.058     1709.498     1345.720        0.502        0.222       71.110       30.656        0.186      340.032       13.773      859.364
05/25/2013  08:46:00       55.200       33.734       34.185       32.805       37.758       25.780     1076.200     1425.651      664.597        0.426        0.158       64.692       15.881        0.060      340.259       14.156      859.354
05/25/2013  08:47:00        4.799      -11.678       49.863       31.978       54.475       26.713     1022.583     2967.537      713.566        0.367        0.235       12.625       30.433        5.810      340.748       14.984      859.357
05/25/2013  08:48:00        1.045       38.936       70.754       30.444       37.291       29.199      926.844     1390.588      852.562        0.485        0.158       38.950       15.976        0.168      340.812       15.092      859.341
05/25/2013  08:49:00       13.638       31.516       33.948       46.673       29.316       33.748     2178.372      859.431     1138.909        0.325        0.209       34.341       26.225        0.583      340.505       14.572      859.350
05/25/2013  08:50:00       41.724        7.661       42.024       57.501       60.358       44.473     3306.352     3643.123     1977.831        0.624        0.446       42.422       41.360        0.951      340.651       14.819      859.348
05/25/2013  08:51:00       26.549       58.835       77.970       48.828       59.790       42.936     2384.190     3574.839     1843.493        0.902        0.390       64.548       37.338        0.335      340.519       14.596      859.351
05/25/2013  08:52:00       43.254       -7.771       64.922       52.675       82.335       51.186     2774.628     6779.133     2619.993        0.916        0.609       43.947       46.162        1.103      340.592       14.718      859.351
05/25/2013  08:53:00       61.850     -106.866      -14.720       52.742       55.773       41.157     2781.711     3110.602     1693.871        1.152        0.379      123.474       33.349        0.073      340.182       14.025      859.363
05/25/2013  08:54:00       59.916     -125.925      -26.213       51.831       53.468       44.477     2686.456     2858.790     1978.179        1.383        0.376      139.453       29.148        0.044      340.305       14.234      859.357
05/25/2013  08:55:00       77.581     -122.201      -14.760       67.766       43.149       44.863     4592.238     1861.813     2012.690        1.482        0.423      144.748       34.902        0.058      340.115       13.913      859.364
05/25/2013  08:56:00       43.983        6.434       51.126       53.392       90.682       52.945     2850.669     8223.219     2803.213        0.923        0.694       44.451       51.524        1.344      340.189       14.038      859.361
05/25/2013  08:57:00       33.427       28.245       23.647       31.730       38.653       22.368     1006.764     1494.070      500.335        0.274        0.150       43.762       23.671        0.293      340.171       14.008      859.366
05/25/2013  08:58:00      -15.273        3.748       26.858       18.878       25.165       23.393      356.391      633.294      547.243        0.125        0.077       15.727       16.901        1.155      340.956       15.337      859.356
05/25/2013  08:59:00       25.204      -61.908        2.499       33.389       69.810       41.168     1114.838     4873.462     1694.799        0.608        0.384       66.842       42.913        0.412      340.440       14.463      859.355
05/25/2013  09:00:00       26.775       44.564       86.721       64.941       84.415       58.900     4217.340     7125.934     3469.265        1.252        0.741       51.989       64.091        1.520      340.671       14.851      859.338
05/25/2013  09:01:00       19.371        8.648       75.043       37.494       84.362       47.473     1405.786     7116.948     2253.688        0.843        0.539       21.214       53.243        6.299      340.730       14.953      859.347
05/25/2013  09:02:00       26.178      -19.830       50.733       37.897       69.047       37.600     1436.215     4767.441     1413.757        0.563        0.381       32.841       37.152        1.280      340.746       14.980      859.344
05/25/2013  09:03:00       11.115       33.436       55.039       31.631       36.155       30.771     1000.536     1307.178      946.841        0.376        0.163       35.235       25.610        0.528      340.908       15.254      859.346
05/25/2013  09:04:00       22.642      -39.603       20.530       51.096       57.233       49.933     2610.851     3275.673     2493.262        0.544        0.419       45.618       46.318        1.031      340.869       15.188      859.340
05/25/2013  09:05:00       -3.255       63.338       88.173       41.355       51.555       26.897     1710.250     2657.917      723.475        0.844        0.255       63.422       30.864        0.237      340.905       15.249      859.336
05/25/2013  09:06:00        8.240       22.367       69.852       37.377       64.877       32.984     1397.009     4209.011     1087.947        0.607        0.335       23.836       27.468        1.328      340.864       15.179      859.333
05/25/2013  09:07:00        3.501       23.863       80.576       29.643       71.294       26.116      878.720     5082.813      682.025        0.686        0.332       24.119       18.646        0.598      340.728       14.950      859.326
05/25/2013  09:08:00       -4.619       12.917       69.879       32.916       48.617       31.540     1083.477     2363.613      994.761        0.476        0.222       13.718       26.022        3.599      341.019       15.442      859.312
05/25/2013  09:09:00      -46.619      -25.781       21.716       42.786       43.860       26.254     1830.667     1923.717      689.251        0.388        0.222       53.272       25.772        0.234      340.844       15.145      859.321
05/25/2013  09:10:00       12.759       39.188       45.635       39.485       44.511       46.875     1559.053     1981.253     2197.277        0.476        0.287       41.213       32.458        0.620      340.873       15.194      859.322
05/25/2013  09:11:00       24.404       38.926       29.684       36.611       29.158       30.011     1340.330      850.215      900.659        0.304        0.155       45.944       22.031        0.230      340.720       14.935      859.333
05/25/2013  09:12:00       75.070       66.755       29.748       57.849       49.020       36.265     3346.460     2402.993     1315.128        0.902        0.353      100.458       25.480        0.064      340.955       15.335      859.323
05/25/2013  09:13:00       56.731       19.992       79.284       53.008       81.775       50.741     2809.816     6687.099     2574.631        1.099        0.604       60.151       51.988        0.747      340.782       15.040      859.321
05/25/2013  09:14:00       44.542       56.113       87.797       56.320       84.710       53.186     3171.993     7175.806     2828.723        1.301        0.659       71.643       49.541        0.478      340.769       15.018      859.317
05/25/2013  09:15:00       20.842       -0.236       54.247       56.042       63.210       44.776     3140.659     3995.559     2004.888        0.626        0.457       20.843       43.925        4.441      341.071       15.530      859.321
05/25/2013  09:16:00       34.256     -112.192       -6.453       60.734       85.207       50.350     3688.654     7260.315     2535.120        1.364        0.674      117.305       40.542        0.119      340.650       14.817      859.316
05/25/2013  09:17:00       41.551      -69.757       17.904       49.208       77.269       42.407     2421.473     5970.575     1798.374        0.855        0.510       81.194       36.498        0.202      340.809       15.086      859.313
05/25/2013  09:18:00       72.779     -101.376       42.661       73.622      105.919       52.081     5420.180    11218.759     2712.389        1.837        0.968      124.795       70.997        0.324      340.686       14.878      859.314
05/25/2013  09:19:00       69.213       39.264       27.401       53.454       64.495       52.645     2857.382     4159.579     2771.530        0.843        0.489       79.574       36.686        0.213      340.299       14.223      859.320
05/25/2013  09:20:00      115.385       58.424       34.546       60.577       40.675       38.556     3669.577     1654.423     1486.585        1.236        0.341      129.334       11.853        0.008      340.415       14.421      859.313
05/25/2013  09:21:00      149.242       81.484       29.304       59.845       57.448       51.848     3581.473     3300.267     2688.264        1.967        0.479      170.038       39.890        0.055      340.640       14.799      859.284
05/25/2013  09:22:00      117.629       81.296       -4.551       52.185       38.064       30.861     2723.258     1448.880      952.391        1.279        0.256      142.988       17.847        0.016      340.392       14.381      859.278
05/25/2013  09:23:00        4.701       59.279        8.967       29.950       39.068       29.897      897.018     1526.284      893.850        0.347        0.166       59.465       21.855        0.135      340.936       15.302      859.256
05/25/2013  09:24:00        8.958       -6.776       20.097       55.177       56.579       32.977     3044.555     3201.164     1087.511        0.393        0.367       11.232       31.815        8.024      341.203       15.753      859.235
05/25/2013  09:25:00       37.607       25.704       70.499       63.834       86.905       58.555     4074.755     7552.396     3428.704        1.105        0.753       45.552       67.681        2.208      341.157       15.675      859.234
05/25/2013  09:26:00       70.519        4.704       23.064       75.011       59.136       40.817     5626.706     3497.070     1666.036        0.816        0.539       70.676       38.487        0.297      340.829       15.120      859.219
05/25/2013  09:27:00       14.117       39.694       95.508       51.898       95.356       63.143     2693.356     9092.802     3986.977        1.333        0.789       42.130       63.264        2.255      341.369       16.035      859.205
05/25/2013  09:28:00       53.245       62.035       91.544       49.230       77.109       48.058     2423.619     5945.750     2309.597        1.287        0.534       81.751       48.090        0.346      340.745       14.978      859.208
05/25/2013  09:29:00       32.712      -13.985       42.483       70.870       87.224       61.944     5022.545     7608.076     3837.107        0.977        0.823       35.576       65.887        3.430      341.031       15.460      859.187
05/25/2013  09:30:00       30.795      -56.171       25.572       41.337       77.157       51.415     1708.759     5953.246     2643.458        0.753        0.515       64.059       46.591        0.529      341.177       15.708      859.186
05/25/2013  09:31:00       22.824      -94.352        5.759       45.756       44.001       41.270     2093.592     1936.114     1703.206        0.759        0.287       97.073       31.793        0.107      340.835       15.130      859.173
05/25/2013  09:32:00       10.179       19.580       72.546       25.761       54.909       29.276      663.645     3015.005      857.106        0.514        0.227       22.068       33.056        2.244      341.266       15.861      859.158
05/25/2013  09:33:00       10.167       60.346       70.616       21.206       42.418       26.075      449.685     1799.302      679.894        0.583        0.146       61.196       26.759        0.191      341.103       15.584      859.129
05/25/2013  09:34:00       38.440       32.363       45.154       36.283       36.979       26.077     1316.433     1367.437      680.007        0.396        0.168       50.249       13.719        0.075      341.262       15.854      859.121
05/25/2013  09:35:00       64.779       34.403       14.914       42.404       38.036       29.433     1798.101     1446.741      866.308        0.486        0.206       73.348       20.727        0.080      341.287       15.896      859.102
05/25/2013  09:36:00       48.356       40.461       11.077       56.533       45.278       37.699     3195.994     2050.122     1421.202        0.538        0.333       63.051       31.953        0.257      341.402       16.089      859.094
05/25/2013  09:37:00      118.069      116.560      -13.691       43.289       47.811       38.913     1873.916     2285.901     1514.240        1.669        0.284      165.911       32.237        0.038      340.561       14.667      859.092
05/25/2013  09:38:00      129.488       77.034        9.257       57.965       34.743       36.299     3359.904     1207.104     1317.651        1.433        0.294      150.669       20.462        0.018      340.624       14.772      859.084
05/25/2013  09:39:00       95.155       48.442       25.122       85.213       52.495       39.570     7261.326     2755.762     1565.815        1.181        0.579      106.776       28.905        0.073      340.970       15.358      859.085
05/25/2013  09:40:00       12.861      125.251        0.031       62.568       64.272       43.228     3914.745     4130.949     1868.631        1.288        0.496      125.910       37.029        0.086      341.175       15.705      859.081
05/25/2013  09:41:00      -19.546      112.105        0.369       31.558       65.371       39.057      995.901     4273.356     1525.466        0.987        0.340      113.796       39.535        0.121      341.162       15.684      859.079
05/25/2013  09:42:00       49.851       51.627       31.421       45.414       45.828       38.950     2062.436     2100.229     1517.112        0.591        0.284       71.767       34.491        0.231      341.431       16.140      859.065
05/25/2013  09:43:00      144.351       83.883       18.204       92.541       63.714       55.083     8563.899     4059.425     3034.174        2.193        0.783      166.954       44.422        0.071      341.406       16.095      859.045
05/25/2013  09:44:00       42.593       75.883        8.021       62.577       69.910       52.898     3915.844     4887.365     2798.166        0.962        0.580       87.019       48.954        0.316      341.203       15.752      859.058
05/25/2013  09:45:00        8.594       95.186       -4.628       40.909       66.075       31.921     1673.583     4365.862     1018.933        0.811        0.353       95.573       33.679        0.124      341.115       15.605      859.043
05/25/2013  09:46:00       26.455       83.193       -5.002       44.581       49.778       39.633     1987.497     2477.848     1570.740        0.684        0.302       87.298       32.457        0.138      341.456       16.184      859.040
05/25/2013  09:47:00      102.418       48.535       -2.111       46.580       31.436       39.612     2169.662      988.241     1569.100        0.879        0.236      113.336       16.480        0.021      340.716       14.929      859.027
05/25/2013  09:48:00       -9.763       44.335       -0.158       19.308       31.285       28.735      372.799      978.778      825.712        0.212        0.109       45.397       19.565        0.186      341.173       15.703      859.027
05/25/2013  09:49:00      -26.602       43.054        5.498       27.086       39.553       28.206      733.627     1564.446      795.565        0.284        0.155       50.609       16.561        0.107      341.383       16.059      859.026
05/25/2013  09:50:00      -22.523       54.707       19.407       27.022       49.169       28.512      730.163     2417.575      812.911        0.392        0.198       59.162       25.585        0.187      341.947       17.017      859.024
05/25/2013  09:51:00      -28.142       56.210        8.539       30.605       54.097       30.958      936.657     2926.502      958.407        0.442        0.241       62.861       34.769        0.306      341.456       16.183      859.036
05/25/2013  09:52:00      -35.936        5.856        9.764       23.115       20.555       18.910      534.288      422.497      357.598        0.137        0.066       36.410       14.583        0.160      341.174       15.706      859.033
05/25/2013  09:53:00       11.198       14.813       21.108       34.767       19.244       15.683     1208.759      370.333      245.942        0.131        0.091       18.569       14.696        0.626      341.346       15.995      859.026
05/25/2013  09:54:00       49.206       94.106        3.758       67.525       47.570       33.827     4559.563     2262.870     1144.265        0.963        0.398      106.194       28.422        0.072      341.248       15.828      859.023
05/25/2013  09:55:00       67.374       62.363       22.027       75.520       41.189       31.318     5703.272     1696.553      980.824        0.865        0.419       91.807       23.699        0.067      341.301       15.917      859.015
05/25/2013  09:56:00      155.484      110.136       38.224       64.412       66.032       62.551     4148.947     4360.240     3912.606        2.509        0.621      190.539       53.131        0.078      340.743       14.971      859.011
05/25/2013  09:57:00       96.437       40.753       11.760       67.643       44.888       34.396     4575.609     2014.898     1183.079        0.944        0.389      104.695       27.636        0.070      340.894       15.230      859.013
05/25/2013  09:58:00       88.323       66.947       30.675       57.487       39.231       34.486     3304.775     1539.058     1189.292        0.963        0.302      110.828       25.514        0.053      340.881       15.208      859.001
05/25/2013  09:59:00       24.439       38.893       44.982       33.127       33.858       27.569     1097.431     1146.393      760.048        0.357        0.150       45.934       20.923        0.207      341.431       16.138      858.991
05/25/2013  10:00:00       79.130      102.094       69.286       55.575       47.893       56.258     3088.576     2293.783     3164.958        1.501        0.427      129.169       38.805        0.090      341.055       15.502      858.971
05/25/2013  10:01:00      177.928      101.474        7.794       71.693       58.463       59.210     5139.906     3417.871     3505.820        2.704        0.603      204.830       39.225        0.037      341.086       15.552      858.971
05/25/2013  10:02:00      154.743      106.845      -11.633       68.412       58.531       54.687     4680.211     3425.843     2990.665        2.329        0.555      188.046       34.852        0.034      341.019       15.440      858.968
05/25/2013  10:03:00       74.926      129.809      -21.425       99.585       77.413       57.559     9917.197     5992.709     3313.007        2.107        0.961      149.880       46.557        0.096      340.805       15.078      858.972
05/25/2013  10:04:00      -64.163      -14.853       -1.165       28.848       32.017       20.593      832.180     1025.087      424.072        0.331        0.114       65.859       13.588        0.043      341.019       15.440      858.948
05/25/2013  10:05:00      -38.665      -10.500        0.385       35.567       23.663       21.534     1265.016      559.930      463.710        0.195        0.114       40.066       21.045        0.276      341.435       16.147      858.934
05/25/2013  10:06:00       22.555       38.291       67.531       43.028       73.749       71.645     1851.395     5438.869     5133.055        0.948        0.621       44.440       63.912        2.068      341.500       16.256      858.929
05/25/2013  10:07:00       34.066       49.634       66.168       59.895       51.726       45.179     3587.450     2675.554     2041.162        0.815        0.415       60.199       35.254        0.343      341.894       16.924      858.927
05/25/2013  10:08:00       43.917      -41.051       35.092       69.841       94.552       50.409     4877.790     8940.006     2541.090        1.060        0.818       60.116       51.134        0.723      341.849       16.848      858.909
05/25/2013  10:09:00       53.954      -17.115       72.481       73.432      116.795       66.765     5392.208    13641.046     4457.558        1.597        1.175       56.603       68.834        1.479      341.895       16.926      858.922
05/25/2013  10:10:00      109.817       52.283       63.826       72.012       70.368       53.239     5185.664     4951.683     2834.421        1.592        0.649      121.628       32.225        0.070      341.183       15.718      858.928
05/25/2013  10:11:00       64.743       10.397       48.354       68.484       53.790       41.106     4690.008     2893.338     1689.671        0.795        0.464       65.573       35.224        0.289      341.637       16.489      858.914
05/25/2013  10:12:00       66.850       66.751       58.373       68.117       52.459       46.583     4639.866     2751.986     2170.002        1.095        0.478       94.470       35.925        0.145      341.720       16.629      858.900
05/25/2013  10:13:00       26.898       85.284      109.587       45.531       94.473       52.944     2073.101     8925.216     2803.091        1.690        0.690       89.425       46.308        0.268      341.729       16.645      858.881
05/25/2013  10:14:00       65.653       20.291       72.353       73.432      105.478       65.601     5392.235    11125.622     4303.484        1.539        1.041       68.717       76.506        1.240      341.804       16.771      858.872
05/25/2013  10:15:00      112.085     -243.220      -19.981       61.350       77.440       35.328     3763.762     5996.930     1248.082        4.156        0.550      267.804       21.535        0.006      340.995       15.398      858.879
05/25/2013  10:16:00       57.300     -192.396      -23.373       58.456       81.035       45.903     3417.052     6566.739     2107.096        2.647        0.605      200.748       15.628        0.006      341.062       15.513      858.886
05/25/2013  10:17:00        8.710      -92.473        1.890       51.438       60.811       44.531     2645.864     3697.967     1983.021        0.848        0.416       92.882       39.510        0.181      341.701       16.596      858.877
05/25/2013  10:18:00       21.020     -125.814      -14.374       55.159       64.154       49.187     3042.534     4115.773     2419.369        1.303        0.479      127.557       33.157        0.068      341.642       16.496      858.877
05/25/2013  10:19:00       49.585     -138.287      -18.963       58.480       65.030       34.414     3419.924     4228.851     1184.355        1.539        0.442      146.908       24.580        0.028      341.216       15.775      858.888
05/25/2013  10:20:00        3.247      -31.691       31.708       52.709       55.456       36.454     2778.220     3075.419     1328.882        0.460        0.359       31.857       39.746        1.557      341.961       17.038      858.888
05/25/2013  10:21:00       16.389      -22.530       37.877       60.679       72.869       58.804     3681.923     5309.863     3457.885        0.733        0.622       27.860       57.095        4.200      342.209       17.458      858.889
05/25/2013  10:22:00       26.268       20.011       42.844       43.434       85.851       45.920     1886.509     7370.354     2108.676        0.714        0.568       33.022       45.781        1.922      341.608       16.439      858.883
05/25/2013  10:23:00       78.050     -204.020      -10.888       65.636      129.340       61.424     4308.082    16728.911     3772.950        3.632        1.240      218.440       65.455        0.090      341.428       16.131      858.855
05/25/2013  10:24:00      126.688     -238.575      -56.131      114.443      123.247       71.671    13097.313    15189.924     5136.691        5.477        1.671      270.126       64.309        0.057      341.350       15.998      858.841
05/25/2013  10:25:00      136.891     -190.370      -20.299       98.804       83.731       66.322     9762.221     7010.840     4398.567        3.828        1.059      234.478       65.128        0.077      341.072       15.530      858.866
05/25/2013  10:26:00      -15.738      -78.118       24.755       42.222       73.194       37.993     1782.735     5357.372     1443.480        0.777        0.429       79.687       25.449        0.102      341.245       15.824      858.881
05/25/2013  10:27:00      104.237       67.573       51.433      105.779       60.727       50.326    11189.224     3687.763     2532.667        1.774        0.870      124.224       49.456        0.158      341.330       15.967      858.879
05/25/2013  10:28:00      156.646       78.496       25.524       54.828       53.848       50.153     3006.111     2899.567     2515.293        1.988        0.421      175.213       19.153        0.012      341.270       15.865      858.868
05/25/2013  10:29:00       83.421       77.935       41.034       71.670       48.171       46.321     5136.528     2320.444     2145.638        1.216        0.480      114.162       21.574        0.036      341.653       16.515      858.856
05/25/2013  10:30:00       33.142       27.057       69.152       86.894       70.861       60.007     7550.632     5021.298     3600.824        1.139        0.809       42.784       61.618        2.074      342.391       17.768      858.839
05/25/2013  10:31:00       17.587       37.136       68.736       56.453       84.852       58.573     3186.956     7199.910     3430.773        1.011        0.691       41.090       56.513        1.892      342.168       17.389      858.835
05/25/2013  10:32:00      -37.660      -53.963       -0.167       46.177       53.249       30.289     2132.286     2835.423      917.447        0.511        0.294       65.804       34.215        0.270      342.112       17.295      858.838
05/25/2013  10:33:00       11.572        2.963       16.289       40.710       35.911       34.152     1657.268     1289.581     1166.348        0.226        0.206       11.945       15.972        1.788      342.678       18.256      858.828
05/25/2013  10:34:00      101.504       83.950       85.089      123.397       72.311       53.015    15226.889     5228.897     2810.607        2.392        1.163      131.722       22.516        0.029      342.323       17.651      858.802
05/25/2013  10:35:00      155.287      105.449      109.536      106.973       93.239       70.260    11443.278     8693.486     4936.524        3.615        1.254      187.706       64.837        0.119      342.124       17.311      858.782
05/25/2013  10:36:00       69.272      100.932      119.205       99.196       97.740       55.389     9839.885     9553.023     3067.940        2.582        1.123      122.417       47.912        0.153      342.098       17.269      858.788
05/25/2013  10:37:00       48.735       95.567      121.056       78.880       83.201       62.106     6222.092     6922.449     3857.170        2.158        0.850      107.276       47.264        0.194      341.873       16.888      858.769
05/25/2013  10:38:00      215.809      144.913       55.950       90.673       76.692       94.401     8221.605     5881.703     8911.609        4.686        1.151      259.949       78.644        0.092      341.209       15.759      858.784
05/25/2013  10:39:00      114.303       35.879       32.491       68.239       59.253       45.265     4656.516     3510.866     2048.919        1.281        0.511      119.802       24.029        0.040      341.324       15.956      858.777
05/25/2013  10:40:00      120.617       92.940       61.367       93.932       54.809       49.376     8823.309     3004.079     2438.004        2.061        0.713      152.270       37.713        0.061      341.492       16.240      858.768
05/25/2013  10:41:00      165.598       91.693        6.464       77.712       41.927       39.177     6039.120     1757.878     1534.810        2.260        0.467      189.289       20.067        0.011      341.472       16.205      858.770
05/25/2013  10:42:00       69.297       50.756       12.154       51.240       53.715       41.254     2625.501     2885.263     1701.920        0.737        0.361       85.896        9.219        0.012      341.671       16.547      858.760
05/25/2013  10:43:00       16.292       51.599       79.180       47.020       44.135       32.040     2210.847     1947.891     1026.566        0.719        0.259       54.110       23.323        0.186      342.421       17.819      858.752
05/25/2013  10:44:00      106.165     -130.911       -2.303       75.373      105.117       57.114     5681.115    11049.642     3261.993        2.420        1.000      168.549       62.630        0.138      342.060       17.204      858.754
05/25/2013  10:45:00       23.667      -55.445       24.294       50.240       69.322       43.289     2524.085     4805.499     1873.962        0.671        0.460       60.285       38.840        0.415      342.101       17.277      858.751
05/25/2013  10:46:00        5.906       25.424       85.345       41.619       55.461       40.838     1732.156     3075.964     1667.764        0.722        0.324       26.100       35.503        1.850      342.822       18.500      858.740
05/25/2013  10:47:00       46.788       47.732      114.303       95.391      133.905       94.588     9099.536    17930.653     8946.876        2.675        1.799       66.839       94.683        2.007      342.217       17.471      858.727
05/25/2013  10:48:00       64.889      -32.485       77.319       64.711      109.310       81.223     4187.461    11948.690     6597.113        1.698        1.137       72.566       81.910        1.274      341.845       16.840      858.743
05/25/2013  10:49:00       61.586      138.294      134.511       90.705      108.797       62.904     8227.479    11836.699     3956.857        3.251        1.201      151.388       69.828        0.213      341.947       17.013      858.735
05/25/2013  10:50:00      157.553      128.437       79.490       60.269       59.185       62.904     3632.380     3502.914     3956.873        2.936        0.555      203.270       50.419        0.062      341.266       15.857      858.730
05/25/2013  10:51:00       93.929       84.580       49.146       43.959       48.163       48.758     1932.402     2319.676     2377.387        1.251        0.331      126.398       40.369        0.102      341.610       16.440      858.726
05/25/2013  10:52:00       29.906      -41.216       26.568       46.370       98.549       39.927     2150.136     9711.887     1594.150        0.838        0.673       50.923       48.439        0.905      342.135       17.331      858.711
05/25/2013  10:53:00       47.930      -15.213       36.262       58.110       80.207       48.531     3376.810     6433.207     2355.272        0.800        0.608       50.286       42.076        0.700      342.173       17.397      858.726
05/25/2013  10:54:00      110.464        3.963       54.048       85.762      123.373       70.901     7355.070    15220.897     5026.917        2.137        1.380      110.535       68.015        0.379      341.797       16.758      858.723
05/25/2013  10:55:00       86.267      -83.067       19.088       58.791       96.022       46.704     3456.343     9220.270     2181.271        1.478        0.743      119.759       59.632        0.248      341.695       16.586      858.726
05/25/2013  10:56:00       19.415      -41.508       19.613       71.238       70.393       58.693     5074.837     4955.110     3444.886        0.798        0.674       45.824       51.227        1.250      342.217       17.473      858.709
05/25/2013  10:57:00      -26.742      -65.490        8.217       63.797       71.913       41.496     4070.081     5171.452     1721.886        0.802        0.548       70.740       35.827        0.257      342.482       17.925      858.712
05/25/2013  10:58:00      -37.765     -124.762       -1.232       61.697       60.614       44.529     3806.513     3674.018     1982.793        1.323        0.473      130.352       26.132        0.040      341.903       16.939      858.733
05/25/2013  10:59:00     -188.325     -120.246       -5.914       89.449       68.718       40.117     8001.198     4722.184     1609.389        3.214        0.717      223.440       47.741        0.046      341.601       16.426      858.731
05/25/2013  11:00:00     -113.089      -67.341        3.371       65.548       63.358       38.458     4296.501     4014.234     1479.044        1.356        0.489      131.620       31.787        0.058      341.680       16.562      858.729
05/25/2013  11:01:00     -116.306      -20.582      -10.780       59.619       56.344       26.654     3554.411     3174.651      710.459        1.075        0.372      118.113       16.434        0.019      341.446       16.162      858.722
05/25/2013  11:02:00      -54.009      -21.022      -12.378       32.552       47.373       22.539     1059.602     2244.180      508.019        0.366        0.191       57.956       14.841        0.066      341.729       16.645      858.707
05/25/2013  11:03:00      -78.969     -108.740       15.556       94.577       92.946       46.966     8944.875     8638.885     2205.805        1.904        0.989      134.389       52.062        0.150      342.180       17.409      858.716
05/25/2013  11:04:00     -165.984     -104.818       -6.812       73.913       85.759       41.402     5463.098     7354.648     1714.144        2.656        0.727      196.310       43.760        0.050      341.506       16.262      858.731
05/25/2013  11:05:00     -144.087     -106.000      -17.863       95.145       84.028       46.615     9052.515     7060.787     2172.935        2.530        0.914      178.877       46.710        0.068      341.421       16.119      858.737
05/25/2013  11:06:00     -146.083       23.823       -4.115       48.826       65.881       36.387     2383.985     4340.313     1324.001        1.499        0.402      148.013       30.595        0.043      341.459       16.186      858.736
05/25/2013  11:07:00      -57.829        5.642        7.193       32.151       21.079       21.524     1033.683      444.319      463.302        0.268        0.097       58.104       19.198        0.109      341.845       16.841      858.728
05/25/2013  11:08:00       32.251       54.030       16.041       48.715       43.194       34.601     2373.119     1865.764     1197.237        0.483        0.272       62.923       27.169        0.186      342.357       17.713      858.699
05/25/2013  11:09:00      112.703       96.903       12.325       46.504       39.441       38.378     2162.647     1555.577     1472.840        1.372        0.260      148.635       21.886        0.022      341.718       16.625      858.688
05/25/2013  11:10:00      111.027       65.449       17.233       53.638       44.844       39.303     2876.998     2010.955     1544.690        1.167        0.322      128.882       14.289        0.012      341.865       16.872      858.682
05/25/2013  11:11:00       42.674       49.863       20.332       38.136       48.219       33.932     1454.386     2325.051     1151.385        0.482        0.247       65.630       21.971        0.112      342.354       17.706      858.696
05/25/2013  11:12:00       27.034       42.178       35.543       46.507       29.938       24.977     2162.855      896.269      623.863        0.373        0.184       50.098       15.938        0.101      342.261       17.548      858.703
05/25/2013  11:13:00       85.302      -35.088       25.765       87.534       95.861       66.897     7662.197     9189.357     4475.262        1.525        1.066       92.237       69.576        0.569      342.297       17.609      858.690
05/25/2013  11:14:00       71.237       23.205       60.375       79.160      124.820       83.105     6266.334    15580.042     6906.471        1.900        1.438       74.922       84.416        1.270      342.039       17.168      858.688
05/25/2013  11:15:00       90.070      -22.485       66.438      114.062       93.624       67.166    13010.056     8765.396     4511.217        1.966        1.314       92.834       56.346        0.368      342.175       17.400      858.673
05/25/2013  11:16:00       54.584      -18.677       42.025       78.594      116.689       63.790     6177.036    13616.420     4069.146        1.447        1.193       57.691       74.077        1.649      342.220       17.476      858.681
05/25/2013  11:17:00       53.290      -41.319       45.856       92.094      103.578       60.922     8481.277    10728.467     3711.547        1.478        1.146       67.432       63.500        0.887      342.565       18.062      858.693
05/25/2013  11:18:00      100.301     -130.933       -2.989       67.212       64.940       43.114     4517.434     4217.197     1858.797        1.890        0.530      164.936       42.423        0.066      341.898       16.929      858.695
05/25/2013  11:19:00       26.116      -62.292        6.629       66.092       74.206       39.283     4368.177     5506.477     1543.117        0.801        0.571       67.545       49.261        0.532      342.133       17.331      858.708
05/25/2013  11:20:00       19.044      -59.324       -7.132       51.341       56.811       33.704     2635.849     3227.479     1135.976        0.546        0.350       62.305       27.306        0.192      342.756       18.389      858.703
05/25/2013  11:21:00      -36.612      -25.278       19.676       83.879       46.647       37.181     7035.719     2175.908     1382.422        0.648        0.530       44.491       42.614        0.917      342.751       18.380      858.696
05/25/2013  11:22:00      -99.426      -75.906       10.102       59.501       61.354       36.584     3540.360     3764.357     1338.416        1.219        0.432      125.089       30.864        0.061      341.998       17.101      858.678
05/25/2013  11:23:00      100.813      -58.168       39.347      127.925      104.546       72.007    16364.908    10929.951     5184.940        2.378        1.624      116.391       73.995        0.404      342.365       17.722      858.652
05/25/2013  11:24:00       94.970     -127.342       -2.132       83.330      135.380       73.161     6943.811    18327.696     5352.578        2.793        1.531      158.856       87.120        0.301      342.233       17.498      858.627
05/25/2013  11:25:00       88.844      -75.577       31.534       81.702      106.074       73.300     6675.194    11251.689     5372.858        1.895        1.165      116.640       81.642        0.490      342.312       17.633      858.630
05/25/2013  11:26:00      176.458     -203.846        2.036      109.440      196.495       95.355    11977.041    38610.189     9092.630        6.618        2.984      269.612      119.785        0.197      342.049       17.184      858.616
05/25/2013  11:27:00       40.631       45.784      102.256       85.701      105.610       72.370     7344.677    11153.431     5237.351        1.897        1.187       61.213       71.683        1.371      342.234       17.501      858.647
05/25/2013  11:28:00       85.276       63.869      117.987      106.434       84.925       54.021    11328.266     7212.177     2918.253        2.336        1.073      106.542       49.284        0.214      342.271       17.563      858.666
05/25/2013  11:29:00       13.389       31.322       28.674       66.210       52.090       40.440     4383.779     2713.318     1635.397        0.536        0.437       34.064       33.465        0.965      342.046       17.182      858.677
05/25/2013  11:30:00      -42.355        2.126       -5.321       34.355       26.227       17.910     1180.285      687.838      320.770        0.201        0.109       42.408        7.410        0.031      342.358       17.711      858.659
05/25/2013  11:31:00      -47.470       -7.311       -9.460       54.646       47.213       18.967     2986.183     2229.087      359.747        0.398        0.279       48.030       16.192        0.114      342.099       17.273      858.644
05/25/2013  11:32:00       61.724      -55.378       31.286       74.065      111.565       58.723     5485.632    12446.801     3448.437        1.461        1.069       82.925       52.898        0.407      342.427       17.827      858.610
05/25/2013  11:33:00       49.942      -47.317       31.014       65.335      121.967       62.760     4268.638    14875.874     3938.816        1.439        1.154       68.798       75.487        1.204      342.230       17.494      858.608
05/25/2013  11:34:00       63.909     -142.733      -14.941       71.475       92.528       54.680     5108.668     8561.366     2989.852        2.067        0.833      156.387       56.179        0.129      342.123       17.311      858.565
05/25/2013  11:35:00        8.411       36.050       73.340       46.461       91.634       50.286     2158.635     8396.705     2528.640        0.991        0.654       37.018       48.238        1.698      342.663       18.229      858.541
05/25/2013  11:36:00      156.880       82.459       92.852      181.682      130.345       97.792    33008.317    16989.924     9563.326        4.979        2.978      177.231       87.334        0.243      342.280       17.578      858.538
05/25/2013  11:37:00      120.576       44.460       70.660      123.801      129.943      105.636    15326.726    16885.120    11158.880        3.243        2.169      128.511       82.839        0.416      342.339       17.678      858.535
05/25/2013  11:38:00       80.715       45.422      121.860       93.285      131.502       85.853     8702.111    17292.823     7370.716        2.839        1.668       92.618       87.336        0.889      342.291       17.594      858.558
05/25/2013  11:39:00      111.902       11.284       96.966      120.303      114.255       64.078    14472.839    13054.179     4105.999        2.684        1.582      112.469       68.451        0.370      342.139       17.339      858.563
05/25/2013  11:40:00      104.680       67.092       97.690      104.229      101.694       56.408    10863.774    10341.741     3181.831        2.469        1.219      124.335       48.249        0.151      342.140       17.340      858.553
05/25/2013  11:41:00      136.232     -196.153       -0.665       95.944      170.373       86.986     9205.306    29026.794     7566.479        5.141        2.290      238.820      111.018        0.216      342.059       17.200      858.568
05/25/2013  11:42:00       67.816      -80.790       38.212       73.557      123.416       69.813     5410.565    15231.600     4873.810        1.905        1.276      105.480       74.749        0.502      342.397       17.776      858.566
05/25/2013  11:43:00      105.788     -110.879        7.091       56.464       82.933       51.716     3188.152     6877.868     2674.504        1.814        0.637      153.249       44.392        0.084      342.245       17.519      858.560
05/25/2013  11:44:00       53.270      -77.409       41.470       76.506      122.872       64.964     5853.228    15097.618     4220.260        1.786        1.259       93.967       78.293        0.694      342.616       18.150      858.555
05/25/2013  11:45:00       49.224     -139.595      -16.118       76.120       69.742       41.715     5794.299     4863.986     1740.180        1.728        0.620      148.019       30.488        0.042      341.782       16.733      858.575
05/25/2013  11:46:00       -9.822       -1.300      -10.768       57.485       24.182       27.219     3304.498      584.776      740.865        0.242        0.232        9.907       13.477        1.851      342.129       17.322      858.546
05/25/2013  11:47:00       25.043       -3.552       -3.858       24.842       26.098       26.401      617.101      681.096      697.027        0.132        0.100       25.294       11.790        0.217      342.393       17.771      858.520
05/25/2013  11:48:00      105.692        6.398       62.868      129.353       87.892       70.670    16732.302     7725.072     4994.286        2.230        1.473      105.886       62.224        0.345      342.477       17.914      858.500
05/25/2013  11:49:00      148.742      -35.635       94.997      108.845      167.888       98.677    11847.291    28186.477     9737.142        4.109        2.489      152.951      109.231        0.510      342.732       18.345      858.434
05/25/2013  11:50:00      150.048      -29.243       58.497      148.319      173.262       99.227    21998.613    30019.570     9846.085        4.432        3.093      152.871      117.303        0.589      342.323       17.649      858.450
05/25/2013  11:51:00       80.419      -61.304       33.335       89.766      114.242       76.442     8057.981    13051.260     5843.395        1.914        1.348      101.121       64.586        0.408      342.927       18.678      858.430
05/25/2013  11:52:00      120.451      -52.128      100.731      153.430      257.050      159.609    23540.889    66074.516    25475.033        7.121        5.755      131.247      195.546        2.220      342.570       18.070      858.391
05/25/2013  11:53:00      182.314     -233.657      -33.086      125.211      156.211       82.539    15677.741    24401.792     6812.679        6.790        2.345      296.368       75.247        0.064      342.557       18.046      858.401
05/25/2013  11:54:00      216.576     -141.913       42.164      151.311      164.764       87.172    22895.066    27147.166     7599.005        6.322        2.882      258.929      114.111        0.194      342.438       17.846      858.395
05/25/2013  11:55:00       57.559       73.657      129.649       80.135      100.110       67.786     6421.547    10022.045     4594.926        2.329        1.052       93.479       68.248        0.533      342.771       18.411      858.391
05/25/2013  11:56:00      101.075      -38.528       87.702       99.586      169.161       96.942     9917.403    28615.309     9397.677        3.365        2.397      108.169       84.599        0.612      342.894       18.622      858.367
05/25/2013  11:57:00      165.998      135.354      130.949      144.009      115.055      106.443    20738.588    13237.606    11330.045        5.416        2.265      214.187       71.857        0.113      342.559       18.051      858.375
05/25/2013  11:58:00      240.144       69.884       97.426      164.052      149.290      103.205    26913.000    22287.560    10651.286        6.594        2.993      250.105      102.060        0.167      342.655       18.215      858.362
05/25/2013  11:59:00      199.745       -3.223      111.894      187.341      167.534       99.909    35096.740    28067.781     9981.876        6.278        3.657      199.771      126.856        0.403      342.646       18.199      858.369
05/25/2013  12:00:00       64.174       66.892      153.836       95.432      169.998      106.290     9107.286    28899.413    11297.661        4.077        2.465       92.698      114.905        1.537      342.807       18.473      858.334
05/25/2013  12:01:00      195.727      -94.563       69.575      160.477      243.317      138.099    25752.735    59203.193    19071.429        7.804        5.201      217.374      179.117        0.679      342.489       17.931      858.325
05/25/2013  12:02:00       71.703       69.113      141.171      116.645      123.910       84.417    13606.003    15353.662     7126.218        3.296        1.804       99.589       83.474        0.703      342.789       18.442      858.329
05/25/2013  12:03:00      135.770      149.129      138.879      145.704      106.791       95.364    21229.731    11404.356     9094.210        5.084        2.086      201.675       69.583        0.119      342.264       17.550      858.331
05/25/2013  12:04:00      159.062      118.503      151.678      158.809      129.352       97.392    25220.327    16732.016     9485.181        5.689        2.572      198.352       88.085        0.197      342.575       18.079      858.322
05/25/2013  12:05:00      188.785       31.554       99.737      139.060      122.459       99.978    19337.796    14996.248     9995.658        4.545        2.216      191.404       71.399        0.139      342.667       18.235      858.293
05/25/2013  12:06:00      106.568        4.537      104.238      109.687      183.536      113.485    12031.189    33685.302    12878.867        4.041        2.930      106.664      129.107        1.465      342.865       18.571      858.311
05/25/2013  12:07:00      275.509     -193.937       58.589      222.269      326.528      179.533    49403.701   106620.366    32231.973       15.257        9.413      336.923      239.869        0.507      342.587       18.098      858.247
05/25/2013  12:08:00      163.012     -117.892       47.744      163.419      282.973      115.549    26705.741    80073.509    13351.572        8.142        6.007      201.175      160.815        0.639      342.703       18.296      858.276
05/25/2013  12:09:00      200.641     -116.475       41.642      164.138      235.690      120.744    26941.240    55549.618    14579.161        7.630        4.854      231.999      158.807        0.469      342.480       17.917      858.301
05/25/2013  12:10:00      127.745     -122.374       17.684       86.828      147.763       54.197     7539.104    21833.865     2937.361        3.195        1.616      176.902       49.240        0.077      342.406       17.789      858.295
05/25/2013  12:11:00      136.159      111.187       97.430      109.498       82.833       69.102    11989.751     6861.288     4775.077        3.201        1.181      175.789       40.026        0.052      342.615       18.147      858.274
05/25/2013  12:12:00      273.253      186.614       74.777      176.796      120.040       99.705    31256.997    14409.644     9941.009        8.534        2.780      330.896       92.427        0.078      342.695       18.281      858.259
05/25/2013  12:13:00      387.617      206.880       54.194      151.450      132.159       94.740    22937.053    17466.037     8975.731       12.267        2.469      439.370       40.335        0.008      342.451       17.866      858.256
05/25/2013  12:14:00      115.633      153.198      154.812      121.783      146.620      118.548    14831.153    21497.299    14053.715        5.559        2.519      191.939      104.714        0.298      342.225       17.484      858.269
05/25/2013  12:15:00      164.928      140.874      100.134      113.011       97.907       95.965    12771.497     9585.802     9209.302        4.431        1.578      216.903       78.028        0.129      342.131       17.325      858.257
05/25/2013  12:16:00      164.410      118.974      105.283      125.444       79.894       69.739    15736.113     6383.084     4863.589        3.962        1.349      202.942       49.273        0.059      342.721       18.326      858.254
05/25/2013  12:17:00      108.656      101.383      105.482      107.350       78.931       66.664    11524.045     6230.042     4444.075        2.770        1.110      148.609       50.233        0.114      342.737       18.354      858.242
05/25/2013  12:18:00      185.661      131.787       77.671      146.499       86.306       74.379    21461.868     7448.809     5532.209        4.615        1.722      227.679       39.309        0.030      342.994       18.792      858.221
05/25/2013  12:19:00      123.152       84.972       72.272      122.061      116.818       93.459    14898.822    13646.337     8734.552        3.244        1.864      149.622       69.167        0.214      342.928       18.678      858.200
05/25/2013  12:20:00      211.651      126.178       29.719      131.044       87.709       70.357    17172.477     7692.803     4950.105        4.570        1.491      246.409       47.848        0.038      342.978       18.765      858.209
05/25/2013  12:21:00      191.009       88.188       32.584      167.817       94.994       69.630    28162.420     9023.873     4848.346        4.367        2.102      210.384       56.200        0.071      342.897       18.625      858.197
05/25/2013  12:22:00      124.906      152.142      103.162      131.819       76.814       97.142    17376.138     5900.371     9436.585        4.105        1.636      196.847       94.615        0.231      342.697       18.285      858.190
05/25/2013  12:23:00      206.503      101.890       54.457      137.764      113.286       76.409    18978.835    12833.611     5838.345        4.681        1.883      230.272       37.285        0.026      342.779       18.425      858.196
05/25/2013  12:24:00      222.112      165.547       40.847       97.945       94.559       78.199     9593.199     8941.423     6115.013        5.152        1.232      277.019       44.937        0.026      342.688       18.269      858.189
05/25/2013  12:25:00       92.684       83.964       16.331       93.085       65.788       76.391     8664.777     4328.076     5835.614        1.736        0.941      125.060       53.372        0.182      342.963       18.740      858.171
05/25/2013  12:26:00       99.536       69.894       35.328       87.685       63.376       47.339     7688.624     4016.568     2241.020        1.499        0.697      121.625       30.707        0.064      342.999       18.800      858.171
05/25/2013  12:27:00       95.129       81.107       51.301       87.432       67.281       50.249     7644.280     4526.783     2524.920        1.648        0.735      125.012       33.879        0.073      343.334       19.371      858.183
05/25/2013  12:28:00      137.106       11.113       70.230      148.413      124.575       86.380    22026.338    15518.879     7461.462        3.442        2.250      137.555       59.963        0.190      343.135       19.031      858.179
05/25/2013  12:29:00      104.077       55.972      104.786      123.754      170.340       91.767    15315.139    29015.783     8421.248        3.884        2.638      118.173       87.626        0.550      343.020       18.835      858.202
05/25/2013  12:30:00       28.840     -119.137       19.145       77.393       98.766       58.535     5989.635     9754.729     3426.290        1.728        0.959      122.578       49.757        0.165      343.154       19.065      858.229
05/25/2013  12:31:00       92.268      -29.062       39.642       99.605      139.578       65.504     9921.117    19482.151     4290.793        2.231        1.685       96.737       47.887        0.245      343.114       18.997      858.236
05/25/2013  12:32:00      115.468       14.200       59.580       68.011      103.920       59.211     4625.549    10799.426     3505.902        1.800        0.947      116.337       28.951        0.062      343.099       18.973      858.235
05/25/2013  12:33:00      235.009      158.306       38.986      114.293      116.069       86.189    13062.910    13472.072     7428.468        5.788        1.698      283.355       63.356        0.050      343.033       18.857      858.226
05/25/2013  12:34:00      201.156      163.392       93.001      122.922       93.158       92.237    15109.766     8678.470     8507.653        5.405        1.615      259.154       69.990        0.073      343.048       18.881      858.215
05/25/2013  12:35:00       52.892       55.262      117.715       80.683      139.094       63.153     6509.722    19347.231     3988.261        2.477        1.492       76.495       78.793        1.061      343.067       18.917      858.215
05/25/2013  12:36:00       13.985        6.671       57.717       60.129       67.008       49.424     3615.482     4490.086     2442.702        0.706        0.527       15.495       44.231        8.149      343.209       19.159      858.211
05/25/2013  12:37:00       76.248       82.447       73.499       57.598       55.480       52.398     3317.550     3078.046     2745.567        1.358        0.457      112.300       35.019        0.097      343.213       19.167      858.197
05/25/2013  12:38:00       79.955       28.316       24.896       69.527       75.084       53.876     4834.004     5637.661     2902.663        1.059        0.669       84.821       33.150        0.153      343.286       19.290      858.179
05/25/2013  12:39:00      117.736       99.355       13.265       62.847       59.564       49.693     3949.733     3547.873     2469.355        1.694        0.498      154.056       26.661        0.030      343.022       18.840      858.163
05/25/2013  12:40:00       -7.543       48.950        3.259       49.233       64.267       30.806     2423.927     4130.248      948.995        0.498        0.375       49.528       30.826        0.387      343.423       19.525      858.133
05/25/2013  12:41:00       14.548       15.608       11.586       54.251       57.884       48.887     2943.148     3350.581     2389.928        0.464        0.434       21.336       36.940        2.998      343.655       19.920      858.106
05/25/2013  12:42:00       -1.006       26.298       16.633       31.652       30.337       27.824     1001.871      920.328      774.164        0.183        0.135       26.317       15.405        0.343      343.483       19.627      858.094
05/25/2013  12:43:00     -122.584      187.391      -39.972      104.760      103.788       47.655    10974.574    10772.015     2271.030        3.787        1.201      223.925       41.453        0.034      343.123       19.010      858.057
05/25/2013  12:44:00      -71.933      120.241      -23.992       98.709       83.068       59.648     9743.441     6900.374     3557.898        2.020        1.010      140.115       60.490        0.186      343.590       19.808      858.049
05/25/2013  12:45:00     -180.579      142.287      -40.974       85.721       70.123       44.971     7348.169     4917.221     2022.368        3.441        0.714      229.901       44.672        0.038      343.616       19.850      858.061
05/25/2013  12:46:00     -178.224      109.155      -34.123       58.711       63.539       35.642     3446.950     4037.255     1270.375        2.680        0.438      208.994       24.631        0.014      343.683       19.966      858.119
05/25/2013  12:47:00     -244.046      101.006      -25.545      156.445      161.408       75.820    24474.924    26052.458     5748.664        6.334        2.814      264.122       75.648        0.082      343.636       19.884      858.121
05/25/2013  12:48:00     -156.801      -30.954      -17.802      160.531       70.952       57.803    25770.323     5034.238     3341.133        3.000        1.707      159.827       76.159        0.227      343.294       19.303      858.158
05/25/2013  12:49:00        4.223      -22.852       33.623       58.907      125.586       59.642     3470.081    15771.799     3557.187        1.223        1.140       23.239       24.607        1.121      343.385       19.459      858.161
05/25/2013  12:50:00      -28.939       86.753       17.354       97.789       90.122       66.025     9562.661     8121.902     4359.265        1.535        1.102       91.452       59.519        0.424      343.490       19.638      858.121
05/25/2013  12:51:00      -61.810       65.453       -9.713       78.201      109.194       54.978     6115.445    11923.273     3022.588        1.463        1.053       90.025       43.118        0.229      343.377       19.445      858.117
05/25/2013  12:52:00        3.778      143.199      -10.830       37.438       78.876       37.149     1401.608     6221.412     1380.031        1.482        0.450      143.249       29.479        0.042      343.368       19.430      858.126
05/25/2013  12:53:00        1.452      -19.267        1.903       30.301       31.932       23.781      918.153     1019.674      565.536        0.144        0.125       19.322       20.603        1.137      343.274       19.271      858.113
05/25/2013  12:54:00     -115.055       66.900       -1.182       58.046       92.835       39.210     3369.372     8618.284     1537.453        1.562        0.676      133.091       31.973        0.058      343.408       19.497      858.116
05/25/2013  12:55:00      -99.333       79.845        9.748      104.725       42.409       32.197    10967.423     1798.492     1036.619        1.507        0.690      127.445       39.878        0.098      343.634       19.882      858.122
05/25/2013  12:56:00      -13.642       48.759       26.013       44.278       59.286       37.010     1960.506     3514.855     1369.766        0.504        0.342       50.632       24.114        0.227      343.846       20.245      858.120
05/25/2013  12:57:00      -74.519      -90.172      -11.641       86.137       56.228       39.270     7419.596     3161.581     1542.130        1.297        0.606      116.979       32.234        0.076      343.472       19.606      858.125
05/25/2013  12:58:00      -82.572     -163.475       -0.898       91.674       82.025       46.864     8404.119     6728.080     2196.220        2.543        0.866      183.145       43.463        0.056      343.465       19.593      858.159
05/25/2013  12:59:00      -64.184     -203.118       -5.287       97.153       83.796       63.607     9438.612     7021.832     4045.837        3.295        1.025      213.017       56.632        0.071      343.590       19.807      858.166
05/25/2013  13:00:00       -8.689     -257.141       -6.336       79.237      119.290       50.121     6278.425    14230.096     2512.124        4.463        1.151      257.288       24.402        0.009      343.179       19.108      858.176
05/25/2013  13:01:00       28.609       -2.435        8.783       43.230       84.954       45.233     1868.833     7217.133     2046.036        0.601        0.557       28.713       42.448        2.186      343.458       19.585      858.136
05/25/2013  13:02:00       25.559      -10.237       19.727       49.182       53.405       39.847     2418.841     2852.139     1587.815        0.400        0.343       27.533       33.233        1.457      343.595       19.817      858.120
05/25/2013  13:03:00       21.649      -22.128        2.883       56.237       91.908       46.149     3162.600     8447.065     2129.769        0.735        0.687       30.956       47.023        2.307      343.368       19.430      858.101
05/25/2013  13:04:00       -3.323      -66.395        2.889       25.895       66.384       32.519      670.527     4406.882     1057.498        0.528        0.307       66.478       27.360        0.169      343.217       19.174      858.091
05/25/2013  13:05:00      -36.209       31.355       21.934       26.105       19.864       21.389      681.475      394.586      457.472        0.215        0.077       47.898       13.555        0.080      343.660       19.929      858.041
05/25/2013  13:06:00      -21.259       13.866       27.788       25.355       19.213       17.807      642.876      369.151      317.073        0.137        0.066       25.381       14.871        0.343      344.097       20.676      858.037
05/25/2013  13:07:00      -83.757      -99.258       -4.293       35.200       61.012       28.006     1239.017     3722.515      784.323        1.131        0.287      129.875       20.027        0.024      343.323       19.354      858.045
05/25/2013  13:08:00      -53.235     -177.389       -4.573       86.799      113.602       44.889     7534.142    12905.454     2014.988        2.838        1.123      185.205       40.649        0.048      343.831       20.216      858.055
05/25/2013  13:09:00      -70.258     -214.915      -12.064       87.527      131.276       40.379     7660.963    17233.404     1630.475        3.889        1.326      226.108       21.892        0.009      343.514       19.679      858.065
05/25/2013  13:10:00     -210.386     -129.770        0.097      156.513      134.273       60.213    24496.266    18029.175     3625.591        5.362        2.308      247.189       67.434        0.074      343.719       20.027      858.061
05/25/2013  13:11:00     -257.751     -125.742      -16.600      141.958      121.875       55.617    20151.957    14853.412     3093.222        6.030        1.905      286.787       61.522        0.046      343.502       19.656      858.074
05/25/2013  13:12:00     -325.191     -102.550       -8.365      146.386      119.740       64.413    21428.978    14337.597     4149.062        7.812        1.996      340.978       75.875        0.050      343.403       19.486      858.087
05/25/2013  13:13:00     -158.543      -95.218       10.881      157.023       75.222       44.887    24656.262     5658.318     2014.810        3.332        1.616      184.939       54.046        0.085      343.548       19.735      858.067
05/25/2013  13:14:00     -248.156      -96.200      -17.893      121.423      110.339       59.222    14743.469    12174.701     3507.227        5.079        1.521      266.150       48.846        0.034      343.312       19.332      858.053
05/25/2013  13:15:00     -137.872      -93.575        5.945      133.236       80.480       63.343    17751.758     6477.023     4012.389        2.802        1.412      166.628       73.453        0.194      343.668       19.940      858.029
05/25/2013  13:16:00     -192.119     -130.820        5.504      152.768      121.366       65.000    23337.927    14729.817     4224.980        4.817        2.115      232.430       69.949        0.091      343.907       20.347      858.013
05/25/2013  13:17:00      -57.874     -101.822       23.119      125.406       70.831       85.519    15726.715     5017.099     7313.544        2.115        1.403      117.120       74.060        0.400      343.902       20.339      858.048
05/25/2013  13:18:00       -4.194     -195.686      -11.495       49.544       55.355       35.481     2454.564     3064.123     1258.910        2.261        0.339      195.731       24.267        0.015      343.221       19.179      858.007
05/25/2013  13:19:00      -37.369      -88.774       -3.064       60.776       53.172       26.224     3693.716     2827.222      687.685        0.825        0.360       96.318       28.927        0.090      343.543       19.729      857.988
05/25/2013  13:20:00      -92.690      -36.577        3.501       69.768       64.018       41.919     4867.544     4098.359     1757.229        1.033        0.536       99.646       38.843        0.152      343.944       20.413      857.983
05/25/2013  13:21:00      -99.810      -20.017       12.192      151.189       87.971       77.396    22857.977     7738.957     5990.081        2.354        1.829      101.797       80.825        0.630      344.072       20.628      857.961
05/25/2013  13:22:00     -255.532       60.827      -27.549      151.863      112.019       61.318    23062.358    12548.295     3759.843        5.456        1.969      262.672       70.346        0.072      344.182       20.816      857.961
05/25/2013  13:23:00     -306.694      -83.747      -24.654      128.514      131.097       58.677    16515.886    17186.530     3443.044        6.941        1.857      317.922       46.214        0.021      343.810       20.181      857.960
05/25/2013  13:24:00     -223.018      111.060      -11.427       80.503       78.770       58.014     6480.768     6204.783     3365.631        3.912        0.803      249.141       45.272        0.033      343.853       20.254      857.938
05/25/2013  13:25:00     -319.194       60.931      -21.924      103.924       93.069       47.466    10800.283     8661.878     2253.029        6.389        1.086      324.957       39.588        0.015      343.720       20.027      857.906
05/25/2013  13:26:00     -219.832       50.332      -43.326      109.020      103.732       44.493    11885.391    10760.414     1979.602        3.868        1.231      225.520       39.093        0.030      343.545       19.729      857.881
05/25/2013  13:27:00      -36.166       54.151       -4.396       93.162       64.875       38.228     8679.216     4208.726     1461.351        0.930        0.717       65.118       41.838        0.413      343.558       19.756      857.871
05/25/2013  13:28:00      -62.049       71.502        8.936       94.771       85.305       45.044     8981.617     7277.005     2028.923        1.366        0.914       94.671       35.552        0.141      343.984       20.480      857.880
05/25/2013  13:29:00      -59.595      161.563       -6.879       53.156       73.357       42.459     2825.610     5381.321     1802.760        1.985        0.500      172.204       37.188        0.047      343.907       20.349      857.882
05/25/2013  13:30:00     -158.592       30.620      -11.704      104.919       69.816       44.675    11008.040     4874.334     1995.900        2.205        0.894      161.521       42.799        0.070      344.101       20.680      857.878
05/25/2013  13:31:00     -413.973       98.191      -49.877      154.065      136.659       70.486    23736.004    18675.646     4968.290       11.543        2.369      425.459       67.346        0.025      343.565       19.763      857.862
05/25/2013  13:32:00     -402.996      -23.758      -40.435      139.202      141.793       60.617    19377.307    20105.163     3674.393       10.387        2.158      403.696       62.109        0.024      343.617       19.852      857.829
05/25/2013  13:33:00     -428.321       37.675      -43.606      163.204      211.159       77.827    26635.453    44588.199     6057.089       13.202        3.864      429.975       81.881        0.036      343.524       19.693      857.835
05/25/2013  13:34:00     -248.217      -97.696        2.780      106.697       88.729       53.747    11384.232     7872.921     2888.784        4.665        1.107      266.751       49.792        0.035      343.937       20.399      857.826
05/25/2013  13:35:00     -263.022     -108.389        3.637      174.589      111.179       62.760    30481.477    12360.722     3938.860        6.385        2.339      284.480       78.954        0.077      344.187       20.827      857.839
05/25/2013  13:36:00     -216.274      -65.217       -5.708      113.555       83.593       57.445    12894.804     6987.757     3299.881        3.712        1.159      225.893       60.667        0.072      343.814       20.190      857.833
05/25/2013  13:37:00      -57.689      -84.402        8.160       89.734       75.329       48.300     8052.165     5674.432     2332.907        1.329        0.803      102.234       42.646        0.174      344.253       20.941      857.814
05/25/2013  13:38:00     -276.639     -117.483      -22.710       64.377       82.035       42.296     4144.401     6729.667     1788.944        5.175        0.633      300.552       31.990        0.011      343.710       20.008      857.783
05/25/2013  13:39:00      -62.756       -6.234       37.674      100.791       70.677       48.323    10158.851     4995.281     2335.148        1.144        0.874       63.065       51.896        0.677      344.096       20.671      857.764
05/25/2013  13:40:00       18.481       26.785        3.014       52.627       51.029       50.316     2769.617     2603.947     2531.744        0.449        0.395       32.542       21.544        0.438      343.979       20.473      857.733
05/25/2013  13:41:00      -88.796       49.165        6.306       81.372      131.363       54.206     6621.409    17256.117     2938.311        1.857        1.341      101.498       46.072        0.206      344.153       20.769      857.733
05/25/2013  13:42:00       30.150      -15.678        9.999       93.034       98.175       53.665     8655.363     9638.257     2879.894        1.121        1.059       33.982       25.167        0.548      344.049       20.591      857.721
05/25/2013  13:43:00     -238.650      -21.208       -3.814      129.405      107.239       53.297    16745.600    11500.130     2840.601        4.425        1.554      239.591       67.530        0.079      344.022       20.544      857.701
05/25/2013  13:44:00     -350.255     -116.317        4.694      177.445      138.484       80.818    31486.741    19177.896     6531.609        9.670        2.860      369.064       90.454        0.060      344.137       20.739      857.676
05/25/2013  13:45:00     -597.652     -188.401      -31.959      249.854      169.893       81.856    62426.903    28863.748     6700.463       24.583        4.900      626.644       98.953        0.025      343.781       20.132      857.666
05/25/2013  13:46:00     -467.241     -165.768       -5.645      223.398      141.140       88.041    49906.653    19920.479     7751.223       16.169        3.879      495.776      101.478        0.042      343.662       19.930      857.706
05/25/2013  13:47:00     -339.603      -44.098       -4.956      171.471      143.723       64.303    29402.311    20656.186     4134.939        8.574        2.710      342.455       70.157        0.042      343.914       20.358      857.699
05/25/2013  13:48:00     -427.393       21.832      -26.514      169.657      155.775       75.073    28783.608    24265.810     5635.990       12.126        2.934      427.950       72.721        0.029      343.958       20.434      857.713
05/25/2013  13:49:00     -423.571      -53.415      -40.550      123.911      115.004       73.621    15353.936    13225.851     5420.041       10.895        1.700      426.926       70.349        0.027      343.710       20.011      857.713
05/25/2013  13:50:00     -316.980     -154.156      -25.892      137.462       94.041       68.160    18895.693     8843.786     4645.853        7.864        1.619      352.477       77.410        0.048      343.667       19.937      857.718
05/25/2013  13:51:00     -246.458      -47.086      -20.988       96.439       82.281       45.067     9300.508     6770.232     2031.043        4.075        0.905      250.916       27.368        0.012      344.008       20.519      857.720
05/25/2013  13:52:00     -122.927      -77.803       18.954      143.096       95.227       61.811    20476.549     9068.250     3820.629        2.744        1.668      145.480       72.944        0.251      344.071       20.627      857.710
05/25/2013  13:53:00     -319.332        0.213      -18.884      211.820       74.607       51.259    44867.781     5566.157     2627.487        7.769        2.653      319.332       73.795        0.053      344.053       20.595      857.703
05/25/2013  13:54:00     -261.621      -92.431       -6.315      134.715       89.873       44.762    18148.076     8077.153     2003.680        5.262        1.411      277.469       42.547        0.024      343.594       19.813      857.708
05/25/2013  13:55:00     -130.674     -213.536        0.371      113.873      109.397       67.891    12967.058    11967.788     4609.234        4.610        1.477      250.347       61.765        0.061      343.642       19.893      857.711
05/25/2013  13:56:00     -107.283     -199.618       -4.601      114.419      115.558       42.695    13091.762    13353.733     1822.849        3.982        1.413      226.621       33.482        0.022      343.790       20.147      857.702
05/25/2013  13:57:00     -139.361      -12.251       22.866      123.958      128.306       60.724    15365.600    16462.461     3687.461        2.780        1.776      139.898       70.243        0.252      343.934       20.393      857.692
05/25/2013  13:58:00     -192.514       30.333      -12.358       77.404       72.940       46.022     5991.326     5320.250     2118.033        2.578        0.671      194.889       41.585        0.046      344.129       20.726      857.659
05/25/2013  13:59:00     -239.348      -38.000      -11.982      111.048      115.846       57.271    12331.548    13420.301     3279.928        4.395        1.452      242.346       63.874        0.069      344.147       20.758      857.662
05/25/2013  14:00:00      -98.114       -4.169       -4.584      108.405       50.640       50.800    11751.741     2564.384     2580.655        1.328        0.845       98.202       67.436        0.472      344.072       20.631      857.645
05/25/2013  14:01:00      -86.201        3.668        4.418       85.916       58.962       33.639     7381.477     3476.507     1131.598        0.972        0.599       86.279       36.727        0.181      344.475       21.319      857.657
05/25/2013  14:02:00     -251.718      -92.919       -3.396      198.699      103.955       60.884    39481.247    10806.659     3706.894        6.299        2.700      268.320       76.586        0.081      344.505       21.371      857.658
05/25/2013  14:03:00     -442.570     -122.442      -17.316      172.504      138.976       82.919    29757.800    19314.208     6875.506       13.354        2.797      459.195       87.740        0.037      343.666       19.934      857.642
05/25/2013  14:04:00     -103.158      -37.116       41.755      172.686      163.927       81.527    29820.523    26872.100     6646.720        3.854        3.167      109.632       76.536        0.487      344.326       21.065      857.621
05/25/2013  14:05:00     -163.018      142.032      -31.055      105.813      156.018       55.023    11196.423    24341.754     3027.585        4.313        1.928      216.213       51.234        0.056      343.917       20.364      857.635
05/25/2013  14:06:00     -251.050       48.130      -26.497      152.090      139.681       53.949    23131.453    19510.654     2910.516        5.579        2.278      255.622       41.631        0.027      344.097       20.671      857.661
05/25/2013  14:07:00      -88.446      -26.264        8.880      105.529       66.253       51.665    11136.394     4389.478     2669.222        1.339        0.910       92.263       47.913        0.270      344.566       21.475      857.675
05/25/2013  14:08:00     -126.187       -6.391       10.768      123.484       76.434       57.672    15248.417     5842.170     3326.004        2.024        1.221      126.348       65.182        0.266      344.440       21.259      857.655
05/25/2013  14:09:00     -181.770       41.860        2.419      135.190      116.799       62.856    18276.292    13642.036     3950.937        3.533        1.793      186.528       63.713        0.117      344.313       21.041      857.647
05/25/2013  14:10:00     -216.361       72.484        4.541      174.227      128.088       82.309    30355.017    16406.537     6774.785        5.280        2.677      228.180       88.425        0.150      344.263       20.956      857.671
05/25/2013  14:11:00     -271.800      -19.623      -14.811      137.297      129.596       55.035    18850.563    16795.070     3028.832        5.657        1.934      272.508       65.745        0.058      344.012       20.525      857.665
05/25/2013  14:12:00     -167.732     -120.746       -3.622       89.263       79.748       48.903     7967.970     6359.739     2391.519        2.972        0.836      206.673       44.884        0.047      343.813       20.188      857.657
05/25/2013  14:13:00      -70.691      100.280        5.809       74.648      130.941       56.994     5572.288    17145.426     3248.268        2.052        1.298      122.692       57.286        0.218      344.107       20.690      857.666
05/25/2013  14:14:00     -110.561      180.561      -16.533       90.261       89.737       65.967     8147.090     8052.759     4351.665        3.282        1.028      211.722       59.278        0.078      344.055       20.601      857.636
05/25/2013  14:15:00     -174.625      262.705      -33.661       97.590       90.821       64.487     9523.841     8248.513     4158.598        6.128        1.097      315.449       64.771        0.042      343.904       20.342      857.612
05/25/2013  14:16:00     -141.488      151.667      -16.597      111.024       92.288       56.726    12326.436     8517.028     3217.860        3.368        1.203      207.417       64.411        0.096      344.022       20.544      857.600
05/25/2013  14:17:00      -55.078      189.755       -8.862       79.439       93.561       61.623     6310.518     8753.710     3797.425        2.899        0.943      197.587       51.787        0.069      344.089       20.658      857.568
05/25/2013  14:18:00     -322.520      -87.526      -10.602      135.921      101.232       74.566    18474.653    10247.850     5560.018        7.303        1.714      334.186       73.643        0.049      344.207       20.858      857.567
05/25/2013  14:19:00     -134.891      -86.814       10.152      139.854       99.142       49.318    19559.180     9829.100     2432.250        2.882        1.591      160.412       62.328        0.151      344.281       20.987      857.551
05/25/2013  14:20:00      -93.281        4.270       16.465      132.700       61.489       46.784    17609.210     3780.934     2188.749        1.628        1.179       93.378       67.510        0.523      344.605       21.543      857.536
05/25/2013  14:21:00     -231.521      -90.327      -12.254      154.337      124.898       65.507    23819.796    15599.519     4291.219        5.280        2.186      248.518       61.207        0.061      344.243       20.920      857.511
05/25/2013  14:22:00     -470.438     -134.182      -19.938      240.404      184.268       90.706    57793.879    33954.746     8227.594       16.983        4.999      489.200      110.624        0.051      344.260       20.950      857.533
05/25/2013  14:23:00     -502.762     -118.942      -13.373      241.171      171.684      105.263    58163.368    29475.415    11080.281       18.289        4.936      516.640      129.182        0.063      344.150       20.762      857.530
05/25/2013  14:24:00     -432.784     -228.336      -15.657      217.302      148.072       84.169    47219.986    21925.277     7084.393       15.794        3.811      489.325       92.444        0.036      343.887       20.312      857.553
05/25/2013  14:25:00     -352.131     -224.565      -17.584      177.561      142.276       85.303    31527.834    20242.594     7276.538       11.688        2.952      417.643       89.629        0.046      343.894       20.324      857.552
05/25/2013  14:26:00     -320.116     -113.397      -18.682      178.498      151.022       73.824    31861.390    22807.692     5450.035        8.789        3.006      339.607       81.381        0.057      344.153       20.765      857.540
05/25/2013  14:27:00     -330.573     -123.905      -17.237      171.994      139.052       70.473    29582.086    19335.570     4966.387        8.940        2.694      353.031       80.845        0.052      344.208       20.860      857.517
05/25/2013  14:28:00     -313.040      -67.742      -13.467      211.168      166.662       67.857    44591.808    27776.350     4604.621        8.986        3.849      320.286       86.148        0.072      344.582       21.500      857.514
05/25/2013  14:29:00     -333.694     -198.438       10.947      217.211      145.769       94.794    47180.651    21248.539     8985.948       11.412        3.871      388.239      107.622        0.077      344.114       20.698      857.536
05/25/2013  14:30:00     -198.255       27.413       -2.138      148.211      143.246       73.485    21966.615    20519.313     5400.050        4.397        2.394      200.141       65.851        0.108      344.060       20.609      857.546
05/25/2013  14:31:00     -164.965      -82.357       14.505      123.387      105.661       62.936    15224.457    11164.167     3960.935        3.227        1.517      184.381       56.892        0.095      344.231       20.900      857.510
05/25/2013  14:32:00     -157.205       11.208        0.568       99.110       88.373       50.170     9822.846     7809.721     2517.061        2.249        1.007      157.604       46.322        0.086      344.696       21.696      857.512
05/25/2013  14:33:00      -81.021     -144.673       13.793      112.289      105.374       66.154    12608.862    11103.763     4376.315        2.788        1.404      165.815       52.848        0.102      344.633       21.591      857.513
05/25/2013  14:34:00     -194.112     -207.965        6.989      118.567      161.338       67.949    14058.206    26029.945     4617.019        6.283        2.235      284.480       62.811        0.049      344.516       21.386      857.487
05/25/2013  14:35:00     -222.003     -156.636      -18.519      124.250      112.773       64.306    15437.955    12717.765     4135.256        5.322        1.615      271.699       69.963        0.066      344.463       21.297      857.480
05/25/2013  14:36:00     -188.411     -130.470        3.570      149.395      109.969       66.375    22318.752    12093.288     4405.610        4.567        1.941      229.175       69.688        0.092      344.869       21.992      857.473
05/25/2013  14:37:00     -123.639      -75.706       -1.851       83.187       98.173       51.657     6920.138     9637.892     2668.398        2.012        0.961      144.976       48.060        0.110      344.659       21.633      857.490
05/25/2013  14:38:00     -277.008     -205.423        6.534      136.521      118.578       83.869    18638.070    14060.659     7033.957        7.935        1.987      344.865       84.456        0.060      344.617       21.560      857.507
05/25/2013  14:39:00     -273.794     -202.097        4.204      208.607      138.155       95.325    43516.711    19086.915     9086.807        9.375        3.585      340.304      108.629        0.102      344.158       20.777      857.517
05/25/2013  14:40:00     -406.852     -123.426       -1.333      167.139      228.041       86.749    27935.586    52002.586     7525.397       13.410        4.373      425.162       89.943        0.045      344.185       20.822      857.479
05/25/2013  14:41:00     -318.496     -177.316      -16.542      176.253      133.138       71.677    31065.284    17725.836     5137.617        9.353        2.696      364.528       78.138        0.046      344.231       20.899      857.464
05/25/2013  14:42:00     -633.724     -113.540      -28.369      201.148      173.917       93.385    40460.498    30247.054     8720.722       24.735        3.971      643.815       78.976        0.015      344.134       20.734      857.441
05/25/2013  14:43:00     -391.076     -126.011       -4.156      229.741      147.417       75.751    52781.126    21731.892     5738.175       12.453        4.013      410.876       83.842        0.042      344.326       21.063      857.463
05/25/2013  14:44:00     -369.341      -95.764      -17.273      173.843      153.539       96.462    30221.386    23574.078     9304.915       10.448        3.155      381.554       89.304        0.055      344.225       20.891      857.497
05/25/2013  14:45:00     -236.717      -63.424       23.006      207.684      144.620      102.956    43132.564    20914.942    10600.003        6.760        3.732      245.067      125.424        0.262      344.497       21.355      857.523
05/25/2013  14:46:00     -141.714       22.301       14.429      132.942       86.518       57.092    17673.575     7485.378     3259.472        2.460        1.421      143.458       62.518        0.190      344.597       21.528      857.549
05/25/2013  14:47:00     -130.875       38.478       -0.929      108.384       43.894       38.181    11746.985     1926.683     1457.811        1.687        0.757      136.414       42.786        0.098      344.052       20.596      857.526
05/25/2013  14:48:00     -204.972      -16.638      -20.328      116.422       70.883       43.296    13554.112     5024.344     1874.557        3.157        1.023      205.646       48.874        0.056      344.287       20.998      857.519
05/25/2013  14:49:00     -368.563      -96.762      -33.036      173.939      117.712       65.259    30254.652    13856.135     4258.733        9.732        2.418      381.054       73.232        0.037      344.041       20.575      857.508
05/25/2013  14:50:00     -224.479      111.405      -17.108      163.283       59.172       49.882    26661.396     3501.364     2488.221        4.787        1.633      250.603       56.324        0.051      344.165       20.788      857.531
05/25/2013  14:51:00      -19.646      147.957       -5.219       65.622       94.377       46.667     4306.230     8907.050     2177.825        1.885        0.770      149.256       30.411        0.042      344.284       20.990      857.492
05/25/2013  14:52:00      -11.660      112.735       15.361       40.862       75.029       51.732     1669.742     5629.308     2676.205        1.153        0.499      113.336       47.522        0.176      344.251       20.936      857.462
05/25/2013  14:53:00      -15.512       50.974       15.582       26.809       35.499       30.099      718.706     1260.207      905.972        0.298        0.144       53.282       23.243        0.190      344.416       21.221      857.430
05/25/2013  14:54:00      -66.777       27.592      -14.486       40.174       34.970       21.737     1613.961     1222.914      472.514        0.437        0.165       72.253       17.770        0.060      344.091       20.665      857.441
05/25/2013  14:55:00     -181.657      -63.880      -22.948      101.746       89.767       45.371    10352.338     8058.128     2058.512        2.903        1.023      192.561       25.971        0.018      344.432       21.243      857.450
05/25/2013  14:56:00     -318.714       58.533      -28.822      100.140      120.019       58.490    10028.054    14404.618     3421.067        6.684        1.393      324.044       46.064        0.020      344.291       21.002      857.444
05/25/2013  14:57:00     -321.356      -43.854      -25.073      102.816      154.806       55.577    10571.154    23965.037     3088.786        7.172        1.881      324.335       53.437        0.027      344.291       21.001      857.451
05/25/2013  14:58:00     -317.482      -14.277        2.268      249.583      148.109       75.096    62291.736    21936.307     5639.476        9.542        4.493      317.803      101.879        0.103      344.264       20.956      857.430
05/25/2013  14:59:00     -474.272      -29.910      -31.829      205.111      160.394       92.748    42070.697    25726.354     8602.255       15.161        3.820      475.214      109.027        0.053      344.414       21.211      857.403
05/25/2013  15:00:00     -378.610      -10.318      -21.215      190.438      175.261       81.417    36266.577    30716.466     6628.712       10.874        3.681      378.750       73.707        0.038      344.440       21.257      857.404
05/25/2013  15:01:00     -285.051       29.258       15.380      198.122      116.783       76.698    39252.276    13638.221     5882.553        7.055        2.939      286.548       89.653        0.098      344.544       21.435      857.391
05/25/2013  15:02:00     -210.195     -180.019       11.360      169.906      126.788       75.134    28868.094    16075.306     5645.092        6.364        2.529      276.747       87.468        0.100      344.157       20.773      857.379
05/25/2013  15:03:00      -65.592      -33.248       33.099      110.773      126.472       64.196    12270.601    15995.050     4121.188        1.944        1.619       73.537       69.082        0.882      344.706       21.714      857.348
05/25/2013  15:04:00     -163.366      -36.411        4.118      132.973      123.086       66.403    17681.720    15150.104     4409.394        3.263        1.862      167.375       61.294        0.134      344.614       21.556      857.334
05/25/2013  15:05:00     -343.066     -155.428      -11.295      182.418      139.111       75.040    33276.201    19351.987     5630.931       10.011        2.913      376.633       78.822        0.044      344.601       21.532      857.328
05/25/2013  15:06:00     -421.055     -183.074      -21.651      162.109      189.710       89.862    26279.373    35990.010     8075.129       14.080        3.517      459.133       93.854        0.042      344.463       21.297      857.334
05/25/2013  15:07:00     -299.411     -115.520       -6.054      194.368      121.559       88.439    37778.918    14776.569     7821.432        8.169        3.019      320.923      108.650        0.115      344.700       21.703      857.322
05/25/2013  15:08:00     -208.417     -112.599       18.790      213.452      145.668       82.369    45561.846    21219.212     6784.611        6.501        3.678      236.889      105.029        0.197      344.859       21.974      857.328
05/25/2013  15:09:00     -180.158       -9.009       -6.847      148.661      107.355       66.970    22099.995    11525.000     4485.030        3.534        1.906      180.383       68.210        0.143      344.829       21.923      857.325
05/25/2013  15:10:00     -273.860      -69.663       13.796      252.316      133.084       97.280    63663.485    17711.299     9463.494        8.543        4.542      282.582      127.749        0.204      344.529       21.409      857.340
05/25/2013  15:11:00     -591.652      -98.083      -40.089      181.869      160.624       81.447    33076.413    25800.150     6633.570       21.338        3.276      599.727       85.486        0.020      344.050       20.591      857.330
05/25/2013  15:12:00     -406.488      -37.883      -44.609      237.855      167.707       95.376    56574.793    28125.613     9096.544       13.121        4.690      408.250       79.014        0.037      344.295       21.009      857.292
05/25/2013  15:13:00     -315.859      -68.272       -6.982      179.631      104.424       66.985    32267.178    10904.408     4486.969        7.606        2.383      323.153       78.721        0.059      344.360       21.120      857.299
05/25/2013  15:14:00     -745.306      135.776      -55.745      234.821      155.251       74.940    55140.946    24102.920     5616.058       33.093        4.243      757.572       73.932        0.010      344.061       20.609      857.263
05/25/2013  15:15:00     -667.095     -149.557      -34.741      317.653      194.257      108.510   100903.634    37735.601    11774.516       30.948        7.521      683.654      137.776        0.041      344.193       20.835      857.282
05/25/2013  15:16:00     -550.971     -262.623       -0.157      281.734      144.367      104.557    79373.900    20841.819    10932.271       24.183        5.557      610.361      110.029        0.032      343.784       20.136      857.336
05/25/2013  15:17:00     -354.602     -149.447      -21.413       85.443       99.001       52.217     7300.446     9801.139     2726.652        8.418        0.991      384.808       44.787        0.014      343.925       20.376      857.343
05/25/2013  15:18:00     -187.590     -157.777        5.921      137.281      119.783       77.412    18846.160    14348.000     5992.571        4.965        1.959      245.119       78.991        0.104      344.345       21.094      857.335
05/25/2013  15:19:00     -251.777     -130.544        0.777      196.132      125.052       82.788    38467.624    15638.112     6853.849        7.069        3.048      283.608       99.978        0.124      344.567       21.474      857.362
05/25/2013  15:20:00     -357.847      -81.406      -17.385      131.120      106.997       64.166    17192.512    11448.332     4117.289        8.387        1.638      366.990       74.838        0.042      344.371       21.138      857.374
05/25/2013  15:21:00     -264.611      -62.867       -8.600      134.813       97.856       59.154    18174.642     9575.710     3499.171        5.264        1.562      271.976       56.144        0.043      344.376       21.148      857.349
05/25/2013  15:22:00      -62.447      -41.994        9.430       95.489       89.266       58.357     9118.227     7968.404     3405.487        1.312        1.025       75.254       49.241        0.428      344.621       21.569      857.335
05/25/2013  15:23:00     -361.281     -218.234        3.908      285.302      194.062      110.676    81397.009    37660.171    12249.154       15.471        6.565      422.078      116.486        0.076      344.396       21.181      857.345
05/25/2013  15:24:00     -290.854      -51.045       -7.277      189.309      140.997       76.547    35837.926    19880.057     5859.400        7.441        3.079      295.299       85.511        0.084      344.337       21.080      857.350
05/25/2013  15:25:00     -319.421     -273.592      -15.661      171.963      132.338       83.847    29571.337    17513.475     7030.370       11.561        2.706      420.574       85.741        0.042      344.254       20.939      857.357
05/25/2013  15:26:00     -357.792     -195.729      -10.907      195.250      138.726       88.568    38122.716    19244.851     7844.205       11.582        3.261      407.829      102.826        0.064      344.024       20.546      857.359
05/25/2013  15:27:00     -366.910     -281.879       -1.043      197.000      176.799      107.371    38808.901    31257.929    11528.537       14.782        4.080      462.687      117.449        0.064      343.978       20.467      857.338
05/25/2013  15:28:00     -369.359     -277.223       -6.997      216.993      159.781       89.267    47085.912    25530.042     7968.599       14.694        4.029      461.821       84.805        0.034      344.189       20.829      857.317
05/25/2013  15:29:00     -304.976     -218.137        9.970      203.710      155.128       96.253    41497.735    24064.775     9264.562       10.775        3.741      374.958      111.475        0.088      344.097       20.672      857.338
05/25/2013  15:30:00     -263.300     -163.468       -0.423      130.547      101.786       55.784    17042.649    10360.450     3111.910        6.328        1.526      309.917       55.922        0.033      343.959       20.435      857.332
05/25/2013  15:31:00     -275.501     -167.576       -6.586      225.823      146.795       91.846    50995.827    21548.680     8435.644        9.249        4.049      322.463      106.370        0.109      344.373       21.143      857.358
05/25/2013  15:32:00     -255.656     -155.277       -5.151      184.155      123.332       78.074    33913.035    15210.756     6095.576        7.235        2.761      299.117       78.328        0.069      344.440       21.257      857.359
05/25/2013  15:33:00     -648.797     -151.775       -2.702      217.962      143.609       84.188    47507.549    20623.529     7087.547       25.959        3.761      666.313       87.766        0.017      344.036       20.567      857.350
05/25/2013  15:34:00     -410.673     -140.803        9.560      243.658      158.706       73.811    59369.215    25187.539     5448.072       13.927        4.500      434.140       93.171        0.046      344.141       20.746      857.348
05/25/2013  15:35:00     -577.767       44.051      -47.483      210.721      198.129       85.623    44403.497    39255.073     7331.240       21.448        4.549      579.444       83.168        0.021      343.964       20.444      857.320
05/25/2013  15:36:00     -504.675      -11.159      -44.731      173.456      130.172       70.495    30086.956    16944.767     4969.531       15.440        2.600      504.798       66.513        0.017      344.008       20.519      857.255
05/25/2013  15:37:00     -486.851     -187.723      -37.876      199.326      146.687       67.617    39730.691    21516.942     4572.084       16.975        3.291      521.789       60.042        0.013      344.286       20.994      857.247
05/25/2013  15:38:00     -404.833     -121.971      -12.223      204.843      185.767       81.082    41960.666    34509.416     6574.239       13.097        4.152      422.808       91.998        0.047      344.406       21.199      857.266
05/25/2013  15:39:00     -324.090     -173.396      -11.083      142.325      142.546       78.162    20256.306    20319.278     6109.300        9.095        2.334      367.561       69.502        0.036      344.434       21.245      857.267
05/25/2013  15:40:00     -334.044     -235.557      -18.617      189.165      181.002      108.867    35783.553    32761.759    11851.976       12.389        4.020      408.745      119.248        0.085      344.391       21.174      857.246
05/25/2013  15:41:00     -202.774      -93.153      -10.882      152.121      148.457       67.785    23140.851    22039.496     4594.843        4.984        2.489      223.147       74.836        0.112      344.808       21.888      857.294
05/25/2013  15:42:00     -339.256     -227.221       -0.820      185.605      146.239       87.689    34449.165    21385.928     7689.291       11.511        3.176      408.319      102.257        0.063      344.479       21.325      857.288
05/25/2013  15:43:00     -429.450     -225.825      -19.654      196.033      150.564      104.023    38429.111    22669.388    10820.800       15.385        3.596      485.205      108.713        0.050      344.401       21.190      857.279
05/25/2013  15:44:00     -514.273     -146.198      -22.075      189.473      171.058       73.337    35900.153    29260.748     5378.308       17.843        3.527      534.650       81.093        0.023      344.340       21.086      857.284
05/25/2013  15:45:00     -461.405     -249.441        3.147      291.273      235.770      112.566    84840.143    55587.654    12671.210       21.409        7.655      524.514      131.634        0.063      344.232       20.901      857.278
05/25/2013  15:46:00     -443.913     -174.932      -22.248      205.497      183.574       99.137    42229.018    33699.544     9828.048       15.694        4.288      477.137      103.567        0.047      344.254       20.938      857.308
05/25/2013  15:47:00     -453.492     -242.726       -3.721      311.931      202.918      113.011    97301.190    41175.694    12771.505       20.789        7.562      514.364      136.278        0.070      344.183       20.817      857.329
05/25/2013  15:48:00     -563.662     -186.763      -18.561      240.329      189.296       91.097    57757.789    35832.803     8298.685       22.740        5.094      593.798      100.024        0.028      343.984       20.479      857.373
05/25/2013  15:49:00     -438.928     -298.648      -15.662      224.541      183.485       93.427    50418.825    33666.664     8728.619       18.744        4.641      530.894       98.493        0.034      344.061       20.609      857.379
05/25/2013  15:50:00     -214.796      -20.812       -5.019      174.330      148.180       73.944    30390.906    21957.446     5467.783        5.220        2.891      215.802       81.794        0.144      344.133       20.733      857.353
05/25/2013  15:51:00     -248.062      -88.219        2.010      154.295       99.752       68.287    23806.944     9950.508     4663.148        5.386        1.921      263.282       70.239        0.071      344.294       21.009      857.321
05/25/2013  15:52:00     -147.972      -74.306        4.378      150.282      119.120       79.272    22584.562    14189.569     6284.098        3.524        2.153      165.581       90.030        0.296      344.680       21.669      857.309
05/25/2013  15:53:00     -568.158     -138.522      -23.955      195.348      186.063       88.203    38160.715    34619.608     7779.709       21.155        4.028      584.801       92.911        0.025      344.110       20.693      857.318
05/25/2013  15:54:00     -415.900      -90.349       -4.678      221.203      135.821       82.804    48930.771    18447.378     6856.443       12.768        3.712      425.600      106.860        0.063      344.252       20.934      857.290
05/25/2013  15:55:00     -359.652      -20.709      -21.773      154.970      127.723       65.659    24015.606    16313.060     4311.157        8.744        2.232      360.247       67.186        0.035      344.455       21.283      857.288
05/25/2013  15:56:00     -199.044      -34.832        0.592      122.892       89.133       51.693    15102.480     7944.634     2672.118        3.327        1.286      202.069       59.130        0.086      344.914       22.068      857.281
05/25/2013  15:57:00     -270.979     -154.593        3.178      205.932      169.332       89.503    42408.115    28673.243     8010.767        8.820        3.955      311.975      108.789        0.122      344.693       21.690      857.298
05/25/2013  15:58:00     -347.551      -93.693       -8.609      291.187      142.215       90.801    84789.627    20225.047     8244.846       12.143        5.663      359.959      123.493        0.118      344.452       21.278      857.273
05/25/2013  15:59:00     -442.363     -123.087      -20.361      227.650      132.400       76.493    51824.726    17529.644     5851.107       14.322        3.760      459.169       91.744        0.040      344.145       20.753      857.271
05/25/2013  16:00:00     -312.639     -170.330       -3.065      193.620      125.345       72.296    37488.700    15711.257     5226.722        9.259        2.921      356.027       83.456        0.055      344.249       20.932      857.223
05/25/2013  16:01:00     -416.937     -218.260      -32.910      156.239       99.725       70.952    24410.697     9944.987     5034.168       13.097        1.969      470.610       68.878        0.021      344.132       20.731      857.204
05/25/2013  16:02:00     -347.839     -116.694       -1.394      184.715      126.686       68.537    34119.720    16049.242     4697.253        9.473        2.743      366.892       75.166        0.042      344.438       21.254      857.186
05/25/2013  16:03:00     -488.760     -124.110       -4.720      255.296      205.758      105.643    65175.927    42336.518    11160.345       18.647        5.934      504.271       97.481        0.037      344.257       20.945      857.136
05/25/2013  16:04:00     -353.930     -222.746        1.872      169.175      160.100       83.872    28620.128    25631.940     7034.569       11.808        3.064      418.190       93.669        0.050      344.007       20.517      857.155
05/25/2013  16:05:00     -280.747     -301.831        2.996      233.980      197.234       98.538    54746.725    38901.200     9709.717       13.663        5.168      412.215      110.851        0.072      344.283       20.988      857.127
05/25/2013  16:06:00     -701.506     -339.369      -39.454      256.584      232.384      112.258    65835.529    54002.297    12601.898       37.062        6.622      779.283      122.800        0.025      343.978       20.468      857.144
05/25/2013  16:07:00     -390.148     -285.172        3.253      300.422      258.627      127.904    90253.082    66887.834    16359.503       20.350        8.675      483.259      159.208        0.109      344.102       20.680      857.139
05/25/2013  16:08:00     -499.161     -242.093       -4.931      232.407      197.201      102.543    54013.223    38888.120    10514.993       20.559        5.171      554.771      123.068        0.049      344.060       20.608      857.169
05/25/2013  16:09:00     -395.459     -133.504       -4.948      234.722      155.638       91.658    55094.438    24223.325     8401.133       13.096        4.386      417.386      106.084        0.065      344.263       20.956      857.140
05/25/2013  16:10:00     -411.424     -212.880      -14.337      217.488      185.067       90.951    47301.194    34249.811     8272.053       15.229        4.491      463.236       97.809        0.045      344.288       20.996      857.120
05/25/2013  16:11:00     -376.179     -118.131       -6.353      226.537      195.942       94.662    51319.082    38393.120     8960.868       12.707        4.934      394.292      108.966        0.076      344.275       20.975      857.145
05/25/2013  16:12:00     -239.945     -169.886       16.108      202.005      185.776      107.960    40806.031    34512.575    11655.399        8.682        4.349      293.998      117.554        0.160      344.354       21.110      857.136
05/25/2013  16:13:00     -274.127     -263.333        1.050      230.583      173.525      125.669    53168.592    30110.870    15792.663       12.176        4.954      380.118      132.714        0.122      344.284       20.991      857.128
05/25/2013  16:14:00     -333.394      -97.439      -16.211      178.939      133.369       82.010    32019.329    17787.205     6725.661        8.871        2.827      347.341       92.532        0.071      344.452       21.278      857.131
05/25/2013  16:15:00     -168.356      -70.673        8.917      144.005      146.677       76.470    20737.414    21514.152     5847.670        4.075        2.405      182.588       70.807        0.150      344.639       21.599      857.134
05/25/2013  16:16:00     -273.612     -187.669        2.069      163.001      115.889       75.354    26569.403    13430.334     5678.283        7.788        2.284      331.788       85.867        0.067      344.484       21.333      857.130
05/25/2013  16:17:00     -473.668     -298.325      -11.102      326.588      246.571      124.711   106659.660    60797.072    15552.912       24.822        9.150      559.785      164.886        0.087      344.191       20.831      857.135
05/25/2013  16:18:00     -476.427     -194.454       -4.456      216.206      178.944      108.588    46745.047    32020.901    11791.402       17.767        4.528      514.582      118.331        0.053      344.210       20.864      857.164
05/25/2013  16:19:00     -377.525     -135.256       16.542      289.199      171.557      117.412    83636.013    29431.637    13785.639       14.395        6.343      401.023      146.011        0.133      344.240       20.916      857.163
05/25/2013  16:20:00     -558.136     -122.553      -22.342      272.877      159.571       86.677    74461.958    25462.898     7512.963       21.722        5.372      571.433      117.509        0.042      344.203       20.852      857.143
05/25/2013  16:21:00     -486.846     -141.221      -26.381      238.974      245.870      114.438    57108.497    60451.870    13095.971       19.414        6.533      506.914       99.740        0.039      344.164       20.786      857.136
05/25/2013  16:22:00     -380.045     -224.545       -1.978      180.465      129.126       89.668    32567.684    16673.625     8040.356       12.606        2.864      441.423       96.752        0.048      344.163       20.784      857.144
05/25/2013  16:23:00     -269.167     -219.162       -6.724      186.352      164.903       86.471    34726.985    27192.838     7477.188        9.495        3.470      347.106       98.257        0.080      344.269       20.964      857.145
05/25/2013  16:24:00     -405.683     -155.971      -12.714      154.655      173.137       82.919    23918.286    29976.557     6875.588       12.491        3.039      434.632       64.056        0.022      344.344       21.092      857.153
05/25/2013  16:25:00     -326.194     -151.677        3.970      177.094      180.635       91.082    31362.152    32629.024     8295.845       10.084        3.614      359.734       85.767        0.057      344.345       21.094      857.106
05/25/2013  16:26:00     -370.282     -180.938       -6.155      251.275      184.131      105.769    63139.220    33904.394    11187.045       13.904        5.412      412.126      126.589        0.094      344.467       21.304      857.096
05/25/2013  16:27:00     -520.981     -190.056      -16.065      255.903      217.959       94.267    65486.432    47506.239     8886.284       21.482        6.094      554.565      111.940        0.041      344.196       20.840      857.112
05/25/2013  16:28:00     -655.833     -165.122      -22.713      318.081      218.458      106.290   101175.757    47724.005    11297.574       30.902        8.010      676.301      139.372        0.042      343.990       20.488      857.090
05/25/2013  16:29:00     -581.520     -146.199       -6.688      270.221      210.539      121.362    73019.595    44326.818    14728.615       24.581        6.604      599.617      134.735        0.050      344.064       20.614      857.113
05/25/2013  16:30:00     -428.552     -263.875      -28.751      257.168      177.543      101.903    66135.293    31521.575    10384.124       18.106        5.402      503.276      115.580        0.053      344.064       20.614      857.148
05/25/2013  16:31:00     -309.326     -110.948      -11.045      195.638      176.142       78.598    38274.287    31025.888     6177.595        9.178        3.774      328.622       86.582        0.069      344.149       20.761      857.140
05/25/2013  16:32:00     -415.826     -239.570       19.373      295.682      210.253      109.306    87428.076    44206.291    11947.790       18.711        7.179      479.901      132.915        0.077      344.057       20.603      857.087
05/25/2013  16:33:00     -321.615     -161.558      -19.973      211.890      156.708       91.093    44897.562    24557.503     8298.020       10.383        3.888      359.913       90.698        0.064      344.314       21.042      857.104
05/25/2013  16:34:00     -595.182     -184.048      -20.375      268.750      177.806       99.660    72226.518    31614.812     9932.136       25.113        5.689      622.989       97.375        0.024      344.111       20.694      857.093
05/25/2013  16:35:00     -750.118        5.978      -64.706      256.436      222.284      108.694    65759.187    49410.011    11814.480       34.692        6.349      750.142      126.178        0.028      343.966       20.446      857.078
05/25/2013  16:36:00     -661.654      -50.777      -51.983      297.980      251.315       99.689    88791.954    63159.169     9937.960       30.245        8.094      663.599      117.299        0.031      343.970       20.452      857.021
05/25/2013  16:37:00     -472.953     -203.909       -9.844      241.119      188.381       91.086    58138.409    35487.291     8296.660       18.362        5.096      515.037       98.230        0.036      344.111       20.694      857.078
05/25/2013  16:38:00     -421.572      -25.657      -12.275      238.406      168.152       91.025    56837.313    28275.058     8285.498       13.595        4.670      422.352       96.796        0.053      344.330       21.068      857.090
05/25/2013  16:39:00     -453.021     -108.119      -23.880      191.958      167.476       85.097    36847.892    28048.176     7241.421       14.480        3.607      465.744       80.089        0.030      344.151       20.764      857.064
05/25/2013  16:40:00     -383.702     -118.935      -12.302      200.849      159.250       73.032    40340.165    25360.633     5333.689       11.627        3.552      401.712       80.362        0.040      344.307       21.030      857.075
05/25/2013  16:41:00     -356.513     -123.103       -1.010      215.955      179.768       90.632    46636.410    32316.424     8214.118       11.470        4.358      377.168       98.730        0.069      344.248       20.930      857.080
05/25/2013  16:42:00     -327.390      -78.486       -3.388      169.774      140.585       67.881    28823.045    19764.206     4607.875        8.327        2.660      336.666       65.727        0.038      344.398       21.185      857.080
05/25/2013  16:43:00     -474.133     -294.906        1.897      330.451      280.557      115.023   109197.663    78712.223    13230.372       25.642       10.057      558.365      155.825        0.078      344.204       20.855      857.046
05/25/2013  16:44:00     -464.247     -185.246      -11.415      268.959      215.077      119.297    72338.787    46257.933    14231.869       19.138        6.641      499.842      125.258        0.063      344.090       20.659      857.065
05/25/2013  16:45:00     -353.347     -270.534       -0.287      256.183      188.528      104.601    65629.626    35542.693    10941.391       15.506        5.606      445.020      108.797        0.060      344.094       20.665      857.060
05/25/2013  16:46:00     -447.952     -212.010       -9.196      325.283      195.327       91.943   105808.715    38152.535     8453.514       19.903        7.621      495.590      128.963        0.068      343.957       20.432      857.038
05/25/2013  16:47:00     -430.477     -175.394      -22.221      201.263      167.464       91.460    40506.966    28044.218     8364.999       14.673        3.846      464.837       64.658        0.019      344.070       20.624      857.062
05/25/2013  16:48:00     -542.532      -33.592      -29.290      209.731      181.850       79.393    43987.145    33069.546     6303.264       18.983        4.168      543.571       84.345        0.024      344.082       20.645      857.002
05/25/2013  16:49:00     -255.506       -7.489        6.441      175.911       96.031       76.229    30944.622     9221.943     5810.934        5.567        2.299      255.616       81.766        0.102      344.395       21.180      857.050
05/25/2013  16:50:00     -291.114     -110.543       -3.369      174.416      183.692       82.908    30420.867    33742.588     6873.694        8.400        3.552      311.396       77.182        0.061      344.384       21.160      857.035
05/25/2013  16:51:00     -239.193     -108.721        3.989      169.218      157.948       92.327    28634.611    24947.652     8524.325        6.557        3.105      262.742       90.050        0.117      344.366       21.130      857.029
05/25/2013  16:52:00     -422.615     -347.266      -22.972      262.112      209.356      112.383    68702.467    43830.047    12629.913       21.242        6.258      546.989      124.120        0.051      344.125       20.718      857.017
05/25/2013  16:53:00     -533.254     -260.085      -48.479      248.672      276.428      123.035    61837.726    76412.465    15137.733       25.385        7.669      593.299      139.692        0.055      344.127       20.722      857.018
05/25/2013  16:54:00     -464.327     -150.477        8.123      254.110      213.382      108.820    64571.779    45532.027    11841.802       18.011        6.097      488.102      123.100        0.064      344.061       20.609      857.051
05/25/2013  16:55:00     -337.317     -218.866        0.631      201.883      157.954       97.333    40756.912    24949.542     9473.710       11.842        3.759      402.101      114.153        0.081      344.076       20.636      857.082
05/25/2013  16:56:00     -314.458      -99.943        2.768      228.591      179.596       99.414    52253.641    32254.654     9883.100       10.162        4.720      329.958      119.043        0.130      344.140       20.744      857.074
05/25/2013  16:57:00     -478.681     -131.500       -5.683      224.608      148.552       75.421    50448.726    22067.564     5688.273       16.232        3.910      496.415       94.949        0.037      344.118       20.708      857.053
05/25/2013  16:58:00     -536.635     -198.368      -35.921      280.351      272.282      112.150    78596.795    74137.601    12577.659       24.694        8.266      572.125      133.249        0.054      343.973       20.459      857.057
05/25/2013  16:59:00     -418.249     -229.647       20.390      306.868      195.420      123.019    94167.901    38188.868    15133.732       18.776        7.375      477.148      143.767        0.091      344.142       20.748      857.044
05/25/2013  17:00:00     -348.592      -58.310        2.266      283.391      181.017      105.122    80310.538    32767.085    11050.591       12.450        6.206      353.435      121.845        0.119      344.183       20.817      857.049
05/25/2013  17:01:00     -421.977     -129.343      -14.542      276.707      167.780       88.961    76566.905    28150.105     7914.053       15.380        5.632      441.355      117.342        0.071      344.117       20.704      857.053
05/25/2013  17:02:00     -353.828      -58.085       -2.413      270.695      151.388       83.406    73275.618    22918.398     6956.621       11.585        5.158      358.564      116.989        0.106      344.070       20.625      857.061
05/25/2013  17:03:00     -231.976     -110.088        9.096      177.941      169.156       81.710    31662.947    28613.607     6676.596        6.647        3.348      256.772       94.528        0.136      344.213       20.869      857.078
05/25/2013  17:04:00     -554.796      -47.739      -32.892      253.931      191.687      104.331    64481.023    36743.961    10884.888       21.162        5.605      556.846      116.033        0.043      344.148       20.758      857.056
05/25/2013  17:05:00     -480.504     -145.768      -14.829      227.791      161.299       90.939    51888.693    26017.229     8269.849       16.925        4.309      502.128      105.376        0.044      344.066       20.617      857.088
05/25/2013  17:06:00     -378.681     -335.031      -10.279      221.457      218.893      131.395    49043.140    47914.188    17264.651       18.497        5.711      505.613      135.265        0.072      343.862       20.268      857.093
05/25/2013  17:07:00     -520.944     -413.791       13.842      277.753      214.089      137.451    77146.815    45834.112    18892.673       29.231        7.094      665.287      157.029        0.056      343.939       20.399      857.043
05/25/2013  17:08:00     -338.969     -277.417       15.854      282.699      205.741      119.734    79918.961    42329.230    14336.315       16.433        6.829      438.019      149.956        0.117      343.902       20.339      857.120
05/25/2013  17:09:00     -447.382     -195.137      -15.890      308.458      159.333      120.657    95146.533    25386.915    14558.232       18.676        6.755      488.087      153.056        0.098      343.897       20.330      857.149
05/25/2013  17:10:00     -317.988     -135.506        0.711      201.200      179.575       96.859    40481.609    32247.232     9381.628       10.078        4.106      345.656       80.098        0.054      343.832       20.219      857.121
05/25/2013  17:11:00     -203.252      -25.027       17.752      140.631      120.086       64.357    19776.938    14420.749     4141.838        4.029        1.917      204.787       64.783        0.100      344.129       20.727      857.098
05/25/2013  17:12:00     -433.446        1.722      -29.867      169.764      144.232       80.580    28819.970    20802.938     6493.196       12.243        2.806      433.450       71.050        0.027      344.069       20.623      857.099
05/25/2013  17:13:00     -358.901     -251.158       -4.547      229.829      194.732       86.039    52821.324    37920.668     7402.630       14.501        4.907      438.053       89.307        0.042      343.916       20.361      857.116
05/25/2013  17:14:00     -411.236     -159.246      -15.271      254.718      208.998      100.814    64881.424    43680.201    10163.363       15.670        5.936      440.993      116.511        0.070      343.964       20.443      857.089
05/25/2013  17:15:00     -464.394     -161.524      -15.258      250.610      198.818      103.580    62805.542    39528.662    10728.725       17.750        5.653      491.682      114.103        0.054      343.944       20.410      857.096
05/25/2013  17:16:00     -434.750     -202.856       -3.228      259.146      187.021      105.805    67156.437    34976.887    11194.749       17.173        5.666      479.748      124.431        0.067      343.856       20.260      857.130
05/25/2013  17:17:00     -247.686     -142.853       14.061      194.916      142.873       94.671    37992.288    20412.786     8962.522        7.465        3.368      285.929      100.037        0.122      343.852       20.253      857.124
05/25/2013  17:18:00     -471.131     -124.484      -20.696      247.235      159.760       89.660    61125.217    25523.195     8038.961       16.627        4.734      487.299      111.703        0.053      343.896       20.327      857.105
05/25/2013  17:19:00     -499.822     -180.082       -6.375      323.551      195.908      114.058   104685.063    38380.030    13009.132       21.916        7.804      531.273      145.575        0.075      343.906       20.346      857.095
05/25/2013  17:20:00     -482.662     -127.983      -10.584      340.953      276.689      127.925   116249.095    76556.849    16364.861       22.928       10.459      499.341      173.848        0.121      343.985       20.480      857.112
05/25/2013  17:21:00     -240.884     -142.968       22.283      228.927      201.597      110.587    52407.452    40641.262    12229.506        9.210        5.264      280.116      120.292        0.184      343.974       20.462      857.124
05/25/2013  17:22:00     -320.906     -199.773        4.491      193.379      188.854       95.124    37395.527    35665.684     9048.492       11.250        4.105      378.008      106.882        0.080      343.807       20.176      857.123
05/25/2013  17:23:00     -484.296     -231.760       -8.007      350.994      223.368      114.045   123196.697    49893.391    13006.210       23.718        9.305      536.894      147.538        0.076      343.752       20.082      857.109
05/25/2013  17:24:00     -432.735      -55.305      -22.886      258.035      133.132       99.382    66582.163    17724.174     9876.780       14.250        4.709      436.255      111.653        0.066      343.820       20.197      857.112
05/25/2013  17:25:00     -446.094     -275.618       -0.728      259.469      194.000      117.242    67324.022    37636.080    13745.610       19.682        5.935      524.371      123.423        0.055      343.825       20.207      857.097
05/25/2013  17:26:00     -466.166      -95.112       -7.051      238.801      157.817       95.932    57026.018    24906.249     9203.029       15.876        4.557      475.770      101.909        0.046      343.780       20.129      857.091
05/25/2013  17:27:00     -236.013     -160.363       12.318      205.293      179.989       97.429    42145.373    32396.206     9492.445        8.279        4.202      285.339       99.769        0.122      343.779       20.129      857.089
05/25/2013  17:28:00     -473.106     -136.200      -11.691      270.540      180.711       91.920    73192.053    32656.584     8449.322       17.839        5.715      492.321      103.020        0.044      343.717       20.022      857.096
05/25/2013  17:29:00     -279.339      -99.125       -7.080      143.351      159.224       76.937    20549.465    25352.173     5919.302        6.985        2.591      296.405       48.344        0.027      343.722       20.030      857.111
05/25/2013  17:30:00     -278.935     -145.576        3.306      186.320      147.427       81.393    34715.201    21734.594     6624.768        8.103        3.154      314.638       94.166        0.090      343.847       20.245      857.119
05/25/2013  17:31:00     -375.323     -110.210        0.576      220.995      170.574       97.180    48838.806    29095.383     9443.980       12.018        4.369      391.170       98.003        0.063      343.748       20.074      857.106
05/25/2013  17:32:00     -382.032     -261.379      -21.574      211.227      167.800       88.307    44616.996    28156.816     7798.092       14.764        4.029      462.891       80.800        0.030      343.685       19.967      857.126
05/25/2013  17:33:00     -434.543     -160.407       -4.033      259.725      183.922       99.830    67457.123    33827.463     9965.968       16.289        5.563      463.204      122.680        0.070      343.600       19.821      857.130
05/25/2013  17:34:00     -460.272     -181.823        3.174      290.537      228.182      118.183    84411.779    52067.024    13967.336       19.766        7.522      494.883      135.880        0.075      343.525       19.694      857.084
05/25/2013  17:35:00     -282.444     -131.039        8.703      215.892      164.118      103.872    46609.162    26934.743    10789.471        9.066        4.217      311.361      118.862        0.146      343.684       19.966      857.102
05/25/2013  17:36:00     -471.029     -282.320      -23.898      281.770      211.128      110.990    79394.469    44574.963    12318.803       21.919        6.814      549.156      119.806        0.048      343.617       19.851      857.118
05/25/2013  17:37:00     -623.327     -277.741      -20.022      237.657      209.983      113.004    56481.025    44092.810    12769.797       28.969        5.667      682.405      110.870        0.026      343.492       19.639      857.099
05/25/2013  17:38:00     -488.436     -283.556       -9.654      247.539      217.367      123.424    61275.435    47248.439    15233.549       22.139        6.188      564.777      130.588        0.053      343.497       19.646      857.134
05/25/2013  17:39:00     -318.527     -159.591       -2.696      203.510      220.941       97.426    41416.338    48815.047     9491.798       11.331        4.986      356.271      101.868        0.082      343.589       19.803      857.144
05/25/2013  17:40:00     -424.547     -141.030      -20.827      239.770      203.271       99.516    57489.631    41319.015     9903.415       15.462        5.436      447.359      109.568        0.060      343.517       19.682      857.132
05/25/2013  17:41:00     -474.084     -309.129      -13.930      248.279      175.429      112.418    61642.464    30775.228    12637.758       21.277        5.253      565.965      119.857        0.045      343.486       19.627      857.126
05/25/2013  17:42:00     -449.812     -197.450      -22.020      291.256      185.242      109.186    84830.031    34314.465    11921.516       18.641        6.553      491.240      133.430        0.074      343.468       19.597      857.087
05/25/2013  17:43:00     -343.169     -217.736       -7.617      191.801      149.756       84.288    36787.483    22426.991     7104.413       11.576        3.316      406.416       91.953        0.051      343.533       19.707      857.114
05/25/2013  17:44:00     -453.087      -74.152      -30.853      228.429      161.121      100.803    52179.960    25960.086    10161.213       15.001        4.415      459.115      111.734        0.059      343.539       19.719      857.107
05/25/2013  17:45:00     -353.257     -107.045        3.184      240.730      158.092       95.304    57950.832    24993.105     9082.784       11.413        4.601      369.119      118.241        0.103      343.544       19.726      857.114
05/25/2013  17:46:00     -539.676      -85.015      -34.913      285.981      191.959      107.286    81785.162    36848.296    11510.303       21.490        6.507      546.331      124.728        0.052      343.462       19.588      857.083
05/25/2013  17:47:00     -281.031      -41.900        9.810      192.001      182.400       85.824    36864.522    33269.782     7365.679        7.915        3.875      284.137       94.695        0.111      343.589       19.805      857.091
05/25/2013  17:48:00     -388.434     -261.563      -13.456      240.776      208.423      131.847    57972.994    43439.948    17383.699       16.912        5.940      468.290      136.184        0.085      343.482       19.622      857.087
05/25/2013  17:49:00     -398.528     -179.870       -1.496      222.064      218.890      108.214    49312.600    47912.626    11710.196       15.004        5.447      437.239      114.049        0.068      343.426       19.525      857.092
05/25/2013  17:50:00     -553.225     -346.088      -18.470      294.514      269.957      121.234    86738.458    72877.032    14697.695       30.022        8.716      652.561      131.660        0.041      343.285       19.285      857.086
05/25/2013  17:51:00     -511.436     -257.450        2.866      284.784      183.288      108.279    81101.744    33594.505    11724.356       22.712        6.321      572.579      129.616        0.051      343.345       19.389      857.081
05/25/2013  17:52:00     -310.336     -141.079      -11.154      228.489      163.874       99.249    52207.301    26854.664     9850.351       10.261        4.446      340.898      100.262        0.087      343.470       19.601      857.109
05/25/2013  17:53:00     -373.723     -306.655        9.636      303.259      234.254      123.220    91966.221    54874.909    15183.129       19.788        8.101      483.432      139.922        0.084      343.322       19.348      857.112
05/25/2013  17:54:00     -308.398     -128.961       11.349      242.975      206.048      108.870    59037.001    42455.897    11852.658       11.259        5.667      334.276      123.322        0.136      343.371       19.433      857.127
05/25/2013  17:55:00     -511.041     -299.123      -33.941      208.749      199.580      118.720    43576.192    39831.989    14094.550       22.463        4.875      592.146      120.098        0.041      343.269       19.258      857.114
05/25/2013  17:56:00     -298.157     -222.150        5.791      188.799      144.975       99.447    35645.007    21017.759     9889.763       10.241        3.328      371.817      103.853        0.078      343.290       19.293      857.129
05/25/2013  17:57:00     -242.958     -101.931       -3.538      173.845      117.090       85.923    30222.095    13710.047     7382.729        6.036        2.566      263.474       97.943        0.138      343.396       19.476      857.152
05/25/2013  17:58:00     -231.438     -108.038        9.869      217.078      138.080       89.254    47122.965    19065.960     7966.355        6.973        3.708      255.413      114.285        0.200      343.474       19.609      857.154
05/25/2013  17:59:00     -471.970     -204.815        5.679      360.840      237.762      133.195   130205.681    56530.845    17740.849       23.457       10.224      514.494      168.711        0.108      343.252       19.230      857.079
05/25/2013  18:00:00     -423.713      -76.556      -16.243      288.923      159.745       76.665    83476.384    25518.312     5877.593       15.025        5.744      430.574       76.561        0.032      343.266       19.255      857.139
05/25/2013  18:01:00     -305.382      -77.678        0.090      247.390      198.102       98.244    61201.947    39244.378     9651.869       10.468        5.505      315.106       88.760        0.079      343.252       19.230      857.153
05/25/2013  18:02:00     -339.282      -45.844        1.275      207.765      167.310       97.177    43166.294    27992.531     9443.322        9.890        4.030      342.365       95.647        0.078      343.315       19.337      857.166
05/25/2013  18:03:00     -553.280      -61.942      -34.723      282.034      181.782       91.181    79542.964    33044.694     8313.885       21.601        6.045      556.737      115.905        0.043      343.174       19.095      857.168
05/25/2013  18:04:00     -353.855     -136.049      -15.607      187.216      160.271       72.675    35049.975    25686.730     5281.611       10.498        3.301      379.108       85.902        0.051      343.260       19.243      857.183
05/25/2013  18:05:00     -347.090      -16.723        4.565      189.312      174.362       90.269    35839.140    30402.251     8148.499        9.757        3.719      347.492       90.382        0.068      343.271       19.260      857.169
05/25/2013  18:06:00     -392.062      -77.577        3.772      396.999      148.606      108.692   157608.231    22083.678    11813.920       17.559        9.575      399.663      157.994        0.156      343.253       19.232      857.186
05/25/2013  18:07:00     -804.712     -195.431      -26.191      322.551      209.948      130.061   104039.289    44078.163    16915.761       42.571        8.252      828.103      164.249        0.039      343.004       18.807      857.135
05/25/2013  18:08:00     -647.996     -224.555      -23.871      201.932      186.819       99.324    40776.365    34901.474     9865.247       27.820        4.277      685.802       99.230        0.021      343.087       18.946      857.167
05/25/2013  18:09:00     -253.069     -178.416       13.934      241.908      180.998      101.746    58519.614    32760.207    10352.283        9.883        5.082      309.639      134.721        0.189      343.162       19.078      857.198
05/25/2013  18:10:00     -413.814        9.216        8.312      291.891      170.873      105.847    85200.257    29197.548    11203.555       14.848        6.280      413.917      117.988        0.081      343.085       18.946      857.179
05/25/2013  18:11:00     -515.543     -122.432      -11.226      233.347      248.201      114.477    54450.744    61603.779    13104.953       20.501        6.458      529.881      129.187        0.059      343.038       18.865      857.166
05/25/2013  18:12:00     -437.458      -87.772        2.225      195.162      196.698       87.405    38088.225    38690.149     7639.615       14.173        4.221      446.177       87.908        0.039      343.086       18.945      857.170
05/25/2013  18:13:00     -474.335     -194.457       -6.727      242.719      212.866      105.704    58912.404    45312.074    11173.245       18.911        5.770      512.648      105.580        0.042      343.018       18.831      857.173
05/25/2013  18:14:00     -303.201      -74.389       12.873      219.541      149.473       87.726    48198.162    22342.126     7695.831        8.792        3.912      312.193      105.571        0.114      343.077       18.931      857.223
05/25/2013  18:15:00     -463.528     -286.508      -20.591      272.048      169.792      120.084    74010.180    28829.185    14420.283       20.730        5.863      544.927      148.732        0.074      343.001       18.799      857.242
05/25/2013  18:16:00     -340.410     -160.694        8.529      274.281      187.751      113.342    75229.902    35250.585    12846.397       13.253        6.166      376.432      127.767        0.115      343.029       18.850      857.234
05/25/2013  18:17:00     -502.840     -363.860      -11.987      315.011      221.490      134.734    99231.773    49057.778    18153.250       27.589        8.322      620.679      146.179        0.055      342.884       18.603      857.220
05/25/2013  18:18:00     -315.851     -175.938        5.197      203.508      158.048       94.475    41415.556    24979.191     8925.434       10.302        3.766      361.547      106.821        0.087      342.982       18.770      857.231
05/25/2013  18:19:00     -201.001     -179.130       24.103      216.159      147.586      105.869    46724.838    21781.692    11208.318        7.638        3.986      269.238      122.565        0.207      343.069       18.919      857.218
05/25/2013  18:20:00     -206.906     -151.132       21.388      223.056      178.198      115.973    49753.874    31754.371    13449.629        8.052        4.748      256.224      128.866        0.253      343.026       18.844      857.226
05/25/2013  18:21:00     -409.628     -185.023       -4.342      296.039      197.128      109.420    87639.240    38859.622    11972.653       17.024        6.924      449.476      106.845        0.057      342.959       18.730      857.215
05/25/2013  18:22:00     -261.035     -168.167       -4.290      175.976      185.851       93.356    30967.436    34540.491     8715.381        8.532        3.711      310.514       95.240        0.094      343.009       18.815      857.239
05/25/2013  18:23:00     -219.389     -168.158        9.992      225.103      164.000      103.378    50671.456    26896.006    10687.104        8.237        4.413      276.421      113.169        0.168      342.974       18.757      857.253
05/25/2013  18:24:00     -284.295     -275.731       30.021      281.665      196.276      136.426    79335.162    38524.207    18611.952       14.709        6.824      396.045      158.483        0.160      342.885       18.604      857.235
05/25/2013  18:25:00     -387.726      -74.969       -5.621      161.207      187.458       88.654    25987.708    35140.464     7859.595       11.247        3.449      394.908       82.858        0.044      342.938       18.695      857.257
05/25/2013  18:26:00     -398.688     -151.722      -13.280      178.818      166.212       91.377    31975.837    27626.406     8349.711       12.504        3.398      426.581       86.610        0.041      342.958       18.728      857.299
05/25/2013  18:27:00     -594.983     -136.954      -31.726      260.000      193.732       94.831    67599.876    37531.958     8992.949       24.393        5.706      610.541      113.925        0.035      342.876       18.589      857.330
05/25/2013  18:28:00     -484.198     -134.018      -10.272      210.336      180.341       95.888    44241.272    32523.055     9194.450       16.922        4.298      502.403      111.112        0.049      342.875       18.588      857.326
05/25/2013  18:29:00     -512.764      -82.142      -32.645      163.864      207.846       90.851    26851.289    43199.820     8253.820       17.451        3.915      519.302       76.081        0.021      342.861       18.564      857.316
05/25/2013  18:30:00     -440.893     -222.507        1.984      342.852      237.705      132.659   117547.329    56503.577    17598.305       21.774        9.582      493.858      153.527        0.097      342.846       18.538      857.291
05/25/2013  18:31:00     -542.843     -279.537      -29.571      252.213      203.897      106.060    63611.404    41574.056    11248.817       24.504        5.822      610.590       91.129        0.022      342.764       18.399      857.316
05/25/2013  18:32:00     -449.260     -210.343      -13.186      278.384      197.793      116.799    77497.705    39121.889    13641.941       18.824        6.513      496.063      140.193        0.080      342.828       18.508      857.352
05/25/2013  18:33:00     -529.187     -268.921      -12.016      255.419      251.913      109.796    65238.812    63460.083    12055.119       24.660        7.038      593.597      108.522        0.033      342.774       18.416      857.358
05/25/2013  18:34:00     -463.755      -82.385      -15.551      263.590      218.417      105.688    69479.591    47706.086    11170.056       17.521        6.418      471.016      111.276        0.056      342.795       18.452      857.367
05/25/2013  18:35:00     -349.771      -85.215       17.125      244.239      160.230      108.603    59652.618    25673.635    11794.596       11.349        4.856      360.002      115.901        0.104      342.770       18.409      857.367
05/25/2013  18:36:00     -545.828     -244.493      -15.285      218.488      239.032      110.727    47737.062    57136.507    12260.525       23.752        5.857      598.084      108.568        0.033      342.711       18.310      857.361
05/25/2013  18:37:00     -539.825     -321.814      -21.483      263.230      211.457      112.293    69290.115    44714.267    12609.705       26.100        6.331      628.470      121.267        0.037      342.701       18.291      857.377
05/25/2013  18:38:00     -474.606     -295.725       -8.929      272.510      235.023      119.139    74261.968    55235.814    14194.194       22.821        7.185      559.200      126.943        0.052      342.688       18.269      857.387
05/25/2013  18:39:00     -567.730     -167.191      -27.705      332.279      294.799      118.300   110409.656    86906.242    13994.981       28.114       10.566      591.837      130.796        0.049      342.666       18.233      857.396
05/25/2013  18:40:00     -455.999     -210.161        1.393      328.044      201.004      130.793   107612.842    40402.673    17106.789       20.859        8.256      502.098      164.243        0.107      342.687       18.268      857.394
05/25/2013  18:41:00     -305.068     -178.079       18.202      297.603      287.150      142.176    88567.584    82454.968    20214.125       15.814        9.562      353.241      174.047        0.243      342.669       18.237      857.404
05/25/2013  18:42:00     -382.828     -174.442        7.393      286.945      224.112      112.682    82337.156    50226.033    12697.298       16.113        7.263      420.699      135.527        0.104      342.675       18.248      857.432
05/25/2013  18:43:00     -370.670     -265.598        2.433      253.646      263.977      128.454    64336.388    69683.660    16500.432       17.921        7.526      456.002      140.440        0.095      342.608       18.133      857.411
05/25/2013  18:44:00     -423.936     -148.578        4.713      245.515      171.564      104.407    60277.487    29434.196    10900.839       15.120        5.031      449.219      120.748        0.072      342.635       18.180      857.457
05/25/2013  18:45:00     -453.052     -237.043      -21.819      250.136      201.988      101.594    62567.898    40799.175    10321.403       18.779        5.684      511.317      117.439        0.053      342.620       18.154      857.449
05/25/2013  18:46:00     -487.188     -166.431      -10.314      208.702      158.832       80.113    43556.612    25227.725     6418.150       17.017        3.760      514.831       87.131        0.029      342.661       18.224      857.469
05/25/2013  18:47:00     -502.253     -109.475      -18.740      225.083      182.746      104.905    50662.366    33396.251    11004.987       17.981        4.753      514.045      116.364        0.051      342.650       18.205      857.480
05/25/2013  18:48:00     -368.542     -217.475      -15.014      220.282      150.968       95.014    48524.179    22791.309     9027.591       13.183        4.017      427.924       90.431        0.045      342.613       18.142      857.469
05/25/2013  18:49:00     -291.278     -182.012       10.365      247.662      230.331      114.822    61336.409    53052.275    13184.118       12.280        6.379      343.470      131.832        0.147      342.683       18.262      857.454
05/25/2013  18:50:00     -365.555     -241.870      -22.256      249.258      193.680      109.180    62129.727    37511.942    11920.286       15.208        5.578      438.328      111.319        0.064      342.610       18.137      857.449
05/25/2013  18:51:00     -331.663     -186.307      -18.014      197.469      165.767       90.196    38993.981    27478.862     8135.387       10.981        3.730      380.409       95.262        0.063      342.664       18.229      857.440
05/25/2013  18:52:00     -364.368     -150.822      -22.275      163.231      110.919       74.676    26644.272    12303.057     5576.513       10.026        2.226      394.349       76.506        0.038      342.669       18.237      857.445
05/25/2013  18:53:00     -400.486     -128.206       -2.595      179.830      165.341       82.122    32338.784    27337.784     6744.081       12.162        3.321      420.507       85.665        0.042      342.667       18.233      857.458
05/25/2013  18:54:00     -522.665     -268.900      -15.578      294.076      225.482      131.060    86480.541    50842.001    17176.697       25.009        7.725      587.781      147.965        0.063      342.573       18.075      857.419
05/25/2013  18:55:00     -325.282     -108.381        4.519      225.836      221.556      107.140    51001.794    49087.045    11479.046       11.455        5.578      342.863      118.274        0.119      342.589       18.101      857.417
05/25/2013  18:56:00     -697.319     -173.730      -16.425      225.605      179.848      111.096    50897.448    32345.468    12342.234       30.613        4.779      718.635      109.250        0.023      342.538       18.013      857.426
05/25/2013  18:57:00     -648.215     -297.394      -27.916      380.285      299.934      142.109   144617.015    89960.303    20194.968       38.205       12.739      713.180      178.701        0.063      342.485       17.925      857.387
05/25/2013  18:58:00     -530.116     -203.931      -14.469      250.886      214.757      114.514    62943.809    46120.595    13113.521       22.248        6.109      567.988      125.415        0.049      342.500       17.950      857.428
05/25/2013  18:59:00     -352.066      -95.484       -0.984      255.178      159.264      100.539    65115.977    25365.019    10108.145       11.681        5.029      364.785      120.187        0.109      342.557       18.047      857.454
05/25/2013  19:00:00     -331.634      -67.889       -2.648      255.011      166.834       88.418    65030.632    27833.651     7817.729       10.762        5.034      338.511      107.926        0.102      342.569       18.067      857.494
05/25/2013  19:01:00     -404.176     -111.667        1.963      232.673      174.819       95.337    54136.937    30561.782     9089.204       13.479        4.689      419.318       85.604        0.042      342.537       18.012      857.458
05/25/2013  19:02:00     -479.982     -133.359      -21.406      307.042      186.018       94.501    94275.089    34602.556     8930.387       19.319        6.890      498.164      114.692        0.053      342.480       17.917      857.451
05/25/2013  19:03:00     -261.864     -111.389       -3.466      216.346      179.412       84.574    46805.417    32188.629     7152.704        8.356        4.307      284.571      102.926        0.131      342.568       18.064      857.455
05/25/2013  19:04:00     -305.722     -125.670       -6.698      249.920      182.935       95.363    62460.146    33465.369     9094.187       10.714        5.251      330.544      117.668        0.127      342.556       18.047      857.452
05/25/2013  19:05:00     -584.540     -129.914      -12.848      351.752      162.375      112.867   123729.206    26365.591    12739.069       26.075        8.142      598.802      144.378        0.058      342.514       17.975      857.417
05/25/2013  19:06:00     -551.515      -67.491      -23.112      278.677      149.022      107.474    77660.757    22207.429    11550.664       21.032        5.571      555.629      134.590        0.059      342.472       17.903      857.410
05/25/2013  19:07:00     -478.410     -164.154        0.731      237.614      258.649      119.283    56460.548    66899.135    14228.355       19.668        6.879      505.790      124.971        0.061      342.487       17.930      857.408
05/25/2013  19:08:00     -576.026     -199.913      -13.746      320.742      236.892      138.946   102875.231    56117.858    19306.036       27.510        8.915      609.731      162.461        0.071      342.445       17.856      857.383
05/25/2013  19:09:00     -441.609       19.304       -0.054      236.740      170.453      118.729    56046.026    29054.260    14096.675       14.728        4.960      442.031      139.308        0.099      342.519       17.981      857.410
05/25/2013  19:10:00     -755.746     -119.301      -52.683      318.485      179.116       95.688   101432.901    32082.445     9156.158       36.539        7.134      765.104      107.488        0.020      342.404       17.787      857.381
05/25/2013  19:11:00     -496.305      -61.934      -18.423      217.168      181.869       99.259    47161.844    33076.167     9852.377       17.028        4.505      500.154      113.445        0.051      342.513       17.971      857.412
05/25/2013  19:12:00     -758.750      -32.004      -32.593      233.776      245.336      120.135    54651.286    60189.583    14432.515       35.351        6.464      759.424      123.752        0.027      342.452       17.869      857.365
05/25/2013  19:13:00     -650.462     -298.079      -35.252      343.845      221.718      105.038   118229.047    49158.842    11032.944       34.578        8.921      715.508      133.191        0.035      342.468       17.895      857.395
05/25/2013  19:14:00     -379.175     -266.947      -14.355      250.677      195.240      115.131    62839.148    38118.756    13255.033       16.471        5.711      463.718      125.661        0.073      342.512       17.971      857.422
05/25/2013  19:15:00     -230.368     -142.885        1.229      255.300      162.275       98.290    65178.085    26333.136     9660.985        8.731        5.059      271.082      119.503        0.194      342.570       18.070      857.462
05/25/2013  19:16:00     -262.511      -75.604      -21.886      148.711       92.385       56.048    22115.095     8535.036     3141.356        5.444        1.690      273.181       57.860        0.045      342.582       18.090      857.434
05/25/2013  19:17:00     -534.055     -156.394      -16.441      228.443      149.181       78.775    52186.003    22254.994     6205.473       19.528        4.032      556.483       75.205        0.018      342.561       18.054      857.427
05/25/2013  19:18:00     -564.446     -148.272      -13.920      232.773      185.904      114.623    54183.218    34560.116    13138.404       22.131        5.094      583.596      113.193        0.038      342.476       17.909      857.377
05/25/2013  19:19:00     -532.179     -106.418      -27.692      191.431      183.997       95.120    36645.796    33854.858     9047.783       18.741        3.977      542.715      101.201        0.035      342.526       17.994      857.430
05/25/2013  19:20:00     -620.009      -74.714      -31.004      269.543      231.736      124.938    72653.510    53701.565    15609.450       26.644        7.098      624.494      133.259        0.046      342.442       17.852      857.403
05/25/2013  19:21:00     -736.839      -45.183      -59.888      301.404      233.631      116.154    90844.616    54583.504    13491.652       35.371        7.946      738.223      129.894        0.031      342.390       17.764      857.443
05/25/2013  19:22:00     -422.035      -67.680       -9.666      229.312      202.750      105.786    52584.063    41107.435    11190.631       14.382        5.244      427.427      117.920        0.076      342.441       17.848      857.448
05/25/2013  19:23:00     -625.498     -114.085      -27.973      258.311      220.217       97.748    66724.550    48495.537     9554.642       26.489        6.239      635.817      114.631        0.033      342.369       17.727      857.472
05/25/2013  19:24:00     -420.414      -74.012      -12.569      174.588      179.547       96.052    30481.038    32236.946     9225.930       12.715        3.597      426.879       77.665        0.033      342.433       17.836      857.508
05/25/2013  19:25:00     -454.367      -80.458      -15.759      281.902      230.211       96.630    79468.976    52996.906     9337.307       17.746        7.090      461.436      123.789        0.072      342.409       17.795      857.483
05/25/2013  19:26:00     -868.029       18.340      -70.276      353.511      246.540      120.292   124970.038    60781.847    14470.086       47.945       10.011      868.223      158.214        0.033      342.299       17.608      857.451
05/25/2013  19:27:00     -568.045      -56.325      -25.121      360.936      170.387      113.418   130274.557    29031.619    12863.540       24.930        8.608      570.831      156.773        0.075      342.289       17.591      857.458
05/25/2013  19:28:00     -435.534     -181.138       -7.537      281.365      223.493      124.917    79166.163    49948.945    15604.257       18.361        7.236      471.700      139.920        0.088      342.336       17.671      857.479
05/25/2013  19:29:00     -699.551     -117.717      -17.433      284.657      247.130      130.455    81029.854    61073.273    17018.589       33.130        7.956      709.386      140.186        0.039      342.271       17.560      857.486
05/25/2013  19:30:00     -763.626      -33.664      -51.837      287.537      190.987      115.359    82677.373    36475.977    13307.800       35.968        6.623      764.368      148.732        0.038      342.246       17.518      857.492
05/25/2013  19:31:00     -625.223      -59.704       -9.735      351.614      238.309      114.895   123632.455    56790.994    13200.796       29.406        9.681      628.068      142.662        0.052      342.269       17.558      857.473
05/25/2013  19:32:00     -719.229     -140.751      -22.141      335.952      243.911      115.609   112863.573    59492.693    13365.552       36.163        9.286      732.872      139.578        0.036      342.209       17.456      857.460
05/25/2013  19:33:00     -706.951      -70.832      -39.828      279.482      201.851      121.597    78110.367    40743.882    14785.727       31.999        6.682      710.490      139.702        0.039      342.202       17.443      857.503
05/25/2013  19:34:00     -685.504     -198.582      -46.715      316.741      279.172      129.673   100325.153    77937.093    16815.067       35.327        9.754      713.688      145.691        0.042      342.152       17.358      857.538
05/25/2013  19:35:00     -587.366     -146.074      -43.101      317.767      224.527      123.757   100975.846    50412.512    15315.831       26.742        8.335      605.258      139.903        0.053      342.152       17.357      857.512
05/25/2013  19:36:00     -279.853     -182.441       18.016      245.797      192.250      118.517    60416.002    36960.057    14046.296       11.166        5.571      334.069      124.789        0.140      342.203       17.445      857.530
05/25/2013  19:37:00     -386.800     -100.448        4.693      214.214      195.629       96.505    45887.692    38270.777     9313.216       12.658        4.674      399.630       97.378        0.059      342.234       17.498      857.554
05/25/2013  19:38:00     -465.179      -81.971      -14.336      249.278      164.708       97.666    62139.610    27128.694     9538.718       16.105        4.940      472.346       99.884        0.045      342.168       17.386      857.516
05/25/2013  19:39:00     -454.551     -170.514      -21.136      231.963      195.552      105.806    53806.655    38240.719    11194.925       16.967        5.162      485.481       96.475        0.039      342.179       17.406      857.495
05/25/2013  19:40:00     -380.229     -141.464       -6.887      239.580      181.462       95.041    57398.455    32928.629     9032.703       13.198        4.968      405.692       93.615        0.053      342.178       17.403      857.481
05/25/2013  19:41:00     -306.765     -206.073       11.106      290.521      233.866      122.413    84402.523    54693.438    14984.905       14.536        7.704      369.555      136.153        0.136      342.167       17.385      857.514
05/25/2013  19:42:00     -261.053      -92.499       13.993      288.820      166.364      106.549    83416.946    27676.942    11352.662        9.965        6.122      276.956      130.555        0.222      342.169       17.387      857.545
05/25/2013  19:43:00     -655.441     -226.982      -33.626      253.264      217.559      116.425    64142.603    47332.059    13554.825       30.362        6.251      693.631      112.768        0.026      342.079       17.235      857.542
05/25/2013  19:44:00     -554.828     -144.766      -37.398      260.062      241.785      113.787    67632.338    58459.950    12947.564       23.459        6.952      573.403      105.118        0.034      342.091       17.256      857.522
05/25/2013  19:45:00     -572.854      -46.706      -17.974      265.609      206.606      130.298    70548.148    42685.849    16977.463       23.042        6.511      574.754      124.319        0.047      342.029       17.149      857.502
05/25/2013  19:46:00     -679.479     -197.292      -57.343      257.649      213.575      103.880    66382.796    45614.361    10791.149       31.333        6.139      707.542      121.985        0.030      342.012       17.120      857.515
05/25/2013  19:47:00     -563.251     -142.952      -15.684      383.386      209.911      113.127   146984.844    44062.725    12797.753       27.086       10.192      581.109      147.207        0.064      342.008       17.112      857.509
05/25/2013  19:48:00     -507.744     -116.970      -12.317      271.983      172.399      105.844    73974.943    29721.294    11202.882       19.325        5.745      521.043      117.010        0.050      342.002       17.104      857.502
05/25/2013  19:49:00     -462.773     -200.516      -18.798      262.047      189.474      106.535    68668.494    35900.242    11349.813       18.530        5.796      504.347      128.713        0.065      341.996       17.091      857.561
05/25/2013  19:50:00     -290.628     -192.229      -10.848      257.372      166.125      104.808    66240.163    27597.529    10984.620       11.316        5.241      348.449      129.723        0.139      341.993       17.087      857.600
05/25/2013  19:51:00     -282.365     -118.881       -7.950      154.982      152.188       75.716    24019.387    23161.252     5732.905        7.341        2.646      306.370       58.878        0.037      341.962       17.036      857.550
05/25/2013  19:52:00     -594.212      -74.818      -28.765      247.000      175.888      102.828    61009.055    30936.515    10573.585       23.100        5.126      598.904      121.160        0.041      341.917       16.960      857.459
05/25/2013  19:53:00     -301.826     -113.169       25.182      265.938      178.639      120.606    70722.902    31912.054    14545.722       11.084        5.859      322.345      132.495        0.169      341.943       17.003      857.479
05/25/2013  19:54:00     -476.687     -148.425      -13.071      303.504      187.868      122.178    92114.436    35294.276    14927.346       19.586        7.117      499.259      137.732        0.076      341.916       16.956      857.508
05/25/2013  19:55:00     -699.107     -108.762      -39.228      309.945      233.605       96.960    96065.987    54571.134     9401.187       33.105        8.002      707.516      117.956        0.028      341.882       16.898      857.577
05/25/2013  19:56:00     -407.814      -17.560       -4.438      317.980      211.640      113.366   101111.202    44791.585    12851.861       16.267        7.938      408.191      108.999        0.071      341.884       16.904      857.583
05/25/2013  19:57:00     -453.067     -173.412      -21.385      224.916      176.390       97.745    50587.112    31113.455     9554.092       16.351        4.563      485.120      114.513        0.056      341.870       16.878      857.618
05/25/2013  19:58:00     -528.677     -175.062      -15.942      276.560      205.406      106.230    76485.538    42191.451    11284.714       22.016        6.498      556.907      126.977        0.052      341.834       16.818      857.581
05/25/2013  19:59:00     -424.306      -76.848        3.264      268.638      176.513       85.358    72166.579    31156.972     7285.926       14.826        5.530      431.209      108.660        0.063      341.821       16.796      857.594
05/25/2013  20:00:00     -548.145      -98.220      -33.364      206.476      184.337       87.980    42632.372    33980.040     7740.541       19.777        4.218      556.875       86.455        0.024      341.800       16.761      857.592
05/25/2013  20:01:00     -535.019     -125.238      -16.511      245.390      183.956       89.037    60216.167    33839.968     7927.607       20.208        5.099      549.482      110.077        0.040      341.761       16.694      857.559
05/25/2013  20:02:00     -597.357     -124.682      -12.392      315.305      235.397      110.558    99417.440    55411.644    12223.095       26.977        8.353      610.230      116.443        0.036      341.750       16.676      857.594
05/25/2013  20:03:00     -376.580     -174.759      -24.385      228.335      177.620      106.941    52136.994    31548.718    11436.315       13.402        4.756      415.155      113.118        0.074      341.780       16.726      857.609
05/25/2013  20:04:00     -367.918     -219.554       -7.272      291.410      184.872      114.412    84920.041    34177.477    13090.132       15.788        6.609      428.448      134.643        0.099      341.746       16.669      857.615
05/25/2013  20:05:00     -445.997     -131.436      -21.184      263.565      173.448      113.550    69466.493    30084.099    12893.532       16.452        5.622      464.961      117.583        0.064      341.722       16.630      857.619
05/25/2013  20:06:00     -296.791      -98.917       25.570      254.190      188.484      108.904    64612.471    35526.199    11860.079       10.524        5.600      312.841      130.391        0.174      341.700       16.592      857.634
05/25/2013  20:07:00     -561.650     -117.478      -46.331      335.046      185.363      118.253   112256.152    34359.392    13983.711       24.597        8.030      573.805      150.326        0.069      341.672       16.546      857.661
05/25/2013  20:08:00     -696.009     -123.233      -45.277      270.531      200.211      106.164    73187.138    40084.490    11270.693       31.308        6.227      706.835      116.147        0.027      341.626       16.465      857.621
05/25/2013  20:09:00     -540.883       -2.138      -16.705      281.034      183.411       97.208    78980.040    33639.526     9449.363       20.743        6.103      540.888      129.471        0.057      341.611       16.442      857.598
05/25/2013  20:10:00     -392.940     -129.265      -16.331      196.273      171.308       76.721    38522.923    29346.581     5886.070       12.255        3.688      413.656       84.693        0.042      341.620       16.456      857.636
05/25/2013  20:11:00     -435.410     -198.041       -7.393      292.730      199.759      105.026    85690.627    39903.764    11030.407       18.272        6.831      478.333      137.344        0.082      341.616       16.449      857.673
05/25/2013  20:12:00     -505.617     -240.687      -10.249      276.532      206.491      101.956    76470.057    42638.671    10394.948       22.157        6.475      559.981      124.027        0.049      341.602       16.425      857.695
05/25/2013  20:13:00     -473.957     -213.021       -6.875      296.920      226.767      103.538    88161.722    51423.309    10720.079       21.016        7.515      519.628      126.741        0.059      341.587       16.400      857.671
05/25/2013  20:14:00     -530.520     -225.605      -16.519      261.386      267.734      125.110    68322.552    71681.510    15652.584       24.411        7.783      576.497      131.808        0.052      341.573       16.377      857.667
05/25/2013  20:15:00     -649.451     -219.922      -42.729      282.500      241.804      114.184    79806.144    58469.168    13038.097       31.162        7.566      685.676      129.113        0.035      341.548       16.335      857.684
05/25/2013  20:16:00     -525.332     -154.739      -17.810      260.528      220.934      101.054    67874.584    48811.735    10211.854       21.355        6.345      547.648      112.750        0.042      341.542       16.324      857.724
05/25/2013  20:17:00     -481.940     -102.196      -12.532      343.101      199.784      117.268   117718.371    39913.534    13751.697       20.710        8.569      492.656      151.567        0.095      341.517       16.281      857.751
05/25/2013  20:18:00     -500.538      -54.818        3.839      331.948      188.129      111.948   110189.354    35392.356    12532.308       20.581        7.906      503.531      151.403        0.090      341.496       16.245      857.712
05/25/2013  20:19:00     -475.833     -121.342      -13.813      197.330      153.830       89.776    38939.140    23663.709     8059.669       15.599        3.533      491.061       88.891        0.033      341.499       16.249      857.718
05/25/2013  20:20:00     -469.620     -165.706      -19.953      207.954      208.071      105.930    43244.788    43293.495    11221.088       17.306        4.888      497.998      109.161        0.048      341.474       16.207      857.720
05/25/2013  20:21:00     -672.230     -203.182      -25.713      260.312      199.206      104.029    67762.083    39683.191    10822.101       30.603        5.913      702.265      103.963        0.022      341.464       16.191      857.743
05/25/2013  20:22:00     -583.053     -114.985      -28.023      226.074      174.833       89.799    51109.416    30566.558     8063.806       22.183        4.487      594.283       96.339        0.026      341.440       16.151      857.724
05/25/2013  20:23:00     -461.315     -102.080      -25.297      175.553      151.681       87.222    30818.693    23007.051     7607.654       14.264        3.072      472.474       73.573        0.024      341.434       16.141      857.693
05/25/2013  20:24:00     -708.359     -199.083      -32.190      311.155      317.557      145.439    96817.405   100842.235    21152.409       38.059       10.941      735.804      150.882        0.042      341.420       16.117      857.646
05/25/2013  20:25:00     -442.956     -174.659        3.379      288.244      200.490      111.053    83084.582    40196.138    12332.796       18.115        6.781      476.147      125.609        0.070      341.423       16.121      857.694
05/25/2013  20:26:00     -386.017     -223.833       15.574      279.501      236.975      112.035    78120.773    56156.986    12551.862       17.307        7.341      446.218      135.788        0.093      341.430       16.133      857.740
05/25/2013  20:27:00     -394.978     -153.186      -24.804      167.987      157.018       80.670    28219.472    24654.622     6507.582       11.973        2.969      423.643       79.252        0.035      341.411       16.101      857.807
05/25/2013  20:28:00     -512.704     -120.819      -21.782      271.311      219.112       99.494    73609.720    48010.155     9898.983       20.471        6.576      526.747      121.251        0.053      341.377       16.044      857.807
05/25/2013  20:29:00     -395.921     -128.435       11.475      313.051      186.505      112.926    98001.081    34784.059    12752.239       15.943        7.277      416.232      126.141        0.092      341.360       16.016      857.780
05/25/2013  20:30:00     -393.965      -85.701        5.515      223.729      186.609       96.073    50054.736    34823.043     9230.085       12.833        4.705      403.178      113.063        0.079      341.337       15.977      857.801
05/25/2013  20:31:00     -480.346     -191.809       -0.533      253.060      203.348      108.680    64039.139    41350.304    11811.235       19.234        5.860      517.226      128.689        0.062      341.332       15.968      857.760
05/25/2013  20:32:00     -488.877     -194.709      -14.533      227.052      229.541      103.897    51552.516    52689.244    10794.535       19.606        5.752      526.224       94.297        0.032      341.313       15.936      857.763
05/25/2013  20:33:00     -515.054     -241.838       -6.579      305.465      256.068      144.468    93308.630    65570.667    20870.887       25.175        8.988      569.005      178.464        0.098      341.305       15.922      857.845
05/25/2013  20:34:00     -541.375     -156.778      -33.166      199.760      181.140      119.899    39903.896    32811.598    14375.814       20.291        4.355      563.619      112.400        0.040      341.297       15.910      857.896
05/25/2013  20:35:00     -400.821     -178.438      -27.847      187.219      203.466       96.787    35050.787    41398.559     9367.683       13.953        4.291      438.746       83.790        0.036      341.282       15.884      857.910
05/25/2013  20:36:00     -558.820     -112.955      -27.041      247.524      158.913      100.222    61267.967    25253.357    10044.371       21.115        4.828      570.122      101.997        0.032      341.248       15.827      857.913
05/25/2013  20:37:00     -318.964     -100.663       10.351      255.429      165.781      104.820    65243.747    27483.494    10987.307       10.783        5.186      334.471       95.760        0.082      341.255       15.837      857.882
05/25/2013  20:38:00     -650.183     -240.967      -42.446      326.207      262.796      131.621   106411.199    69061.665    17324.129       33.767        9.640      693.400      144.098        0.043      341.241       15.813      857.850
05/25/2013  20:39:00     -723.289     -105.144      -44.254      255.355      233.371      113.403    65206.340    54462.034    12860.346       33.432        6.626      730.891      104.795        0.021      341.223       15.785      857.860
05/25/2013  20:40:00     -472.310     -221.828      -25.863      190.574      198.072       89.529    36318.640    39232.339     8015.476       17.825        4.178      521.809       83.791        0.026      341.242       15.815      857.939
05/25/2013  20:41:00     -305.981     -118.455       21.804      278.174      222.640      114.181    77380.587    49568.582    13037.216       12.404        6.999      328.110      130.456        0.158      341.217       15.775      857.986
05/25/2013  20:42:00     -469.849      -95.056      -11.523      221.026      154.456       96.773    48852.496    23856.787     9364.985       15.599        4.104      479.368      102.724        0.046      341.204       15.751      858.004
05/25/2013  20:43:00     -593.945     -112.996       -4.085      354.780      212.639      122.823   125869.088    45215.525    15085.479       27.583        9.309      604.598      160.382        0.070      341.177       15.705      857.968
05/25/2013  20:44:00     -480.855     -271.096      -16.159      377.675      243.341      132.128   142638.403    59214.623    17457.790       26.211       10.966      552.010      160.520        0.085      341.183       15.715      857.996
05/25/2013  20:45:00     -562.684     -270.306      -33.037      246.670      240.990      119.649    60846.335    58076.053    14315.953       26.198        6.662      624.243      121.812        0.038      341.156       15.669      858.001
05/25/2013  20:46:00     -361.659     -170.861      -18.096      171.566      187.156       94.838    29434.936    35027.269     8994.262       11.687        3.673      399.988       64.516        0.026      341.159       15.673      858.017
05/25/2013  20:47:00     -388.117     -197.956       -8.857      253.002      273.126      128.908    64009.977    74597.627    16617.233       17.254        7.761      435.684      133.864        0.094      341.126       15.618      857.984
05/25/2013  20:48:00     -648.809      -86.925      -36.417      304.308      273.940      131.282    92603.321    75043.102    17234.975       30.733        9.244      654.606      147.442        0.051      341.094       15.564      857.941
05/25/2013  20:49:00     -454.046     -113.029      -13.073      316.053      165.204      111.786    99889.416    27292.512    12496.114       17.937        6.984      467.903      139.655        0.089      341.100       15.576      858.001
05/25/2013  20:50:00     -405.567     -171.015      -19.354      273.066      258.274      124.164    74565.069    66705.690    15416.817       17.537        7.834      440.149      141.004        0.103      341.086       15.553      857.990
05/25/2013  20:51:00     -541.719     -143.788      -28.917      264.506      215.455      114.765    69963.486    46420.691    13171.046       22.224        6.478      560.477      116.137        0.043      341.069       15.522      858.009
05/25/2013  20:52:00     -512.069     -202.243      -36.632      205.755      160.732       92.248    42335.012    25834.899     8509.677       19.056        3.834      550.561       96.600        0.031      341.066       15.519      858.058
05/25/2013  20:53:00     -264.647      -49.645        3.830      133.072      154.500       72.680    17708.242    23870.374     5282.401        5.968        2.343      269.264       69.969        0.068      341.034       15.464      858.007
05/25/2013  20:54:00     -282.474     -124.875       -3.510      167.889      124.859       89.289    28186.644    15589.655     7972.518        7.356        2.587      308.845       95.070        0.095      341.019       15.438      858.028
05/25/2013  20:55:00     -440.066     -148.422       -1.499      288.763      192.378      120.663    83384.127    37009.462    14559.542       17.530        6.748      464.421      136.356        0.086      340.994       15.395      858.010
05/25/2013  20:56:00     -513.006     -123.233      -30.773      260.843      217.034      107.759    68039.318    47103.966    11612.011       20.301        6.338      527.600      125.871        0.057      340.995       15.398      858.030
05/25/2013  20:57:00     -493.204     -186.491       -6.377      240.884      209.948      116.949    58024.898    44078.356    13677.166       19.691        5.789      527.284      117.629        0.050      341.004       15.412      858.023
05/25/2013  20:58:00     -587.985      -98.526      -48.842      251.091      220.511      109.717    63046.451    48625.226    12037.900       24.074        6.185      596.183      127.104        0.045      340.984       15.379      858.052
05/25/2013  20:59:00     -440.688     -206.436      -21.406      290.705      211.755      118.768    84509.652    44840.208    14105.953       19.034        7.173      486.643      137.548        0.080      340.982       15.376      858.087
05/25/2013  21:00:00     -573.155     -115.508      -43.376      305.845      219.835      126.092    93541.158    48327.563    15899.266       25.072        7.888      584.679      146.801        0.063      340.954       15.328      858.078
05/25/2013  21:01:00     -464.983     -111.405      -17.499      192.305      171.883       99.878    36981.273    29543.840     9975.589       15.270        3.825      478.143       94.549        0.039      340.943       15.309      858.098
05/25/2013  21:02:00     -383.123     -123.852        0.355      221.110      206.716       95.567    48889.798    42731.591     9133.130       13.142        5.038      402.644      115.084        0.082      340.919       15.268      858.110
05/25/2013  21:03:00     -341.861     -123.705       -2.125      195.856      188.410       87.250    38359.650    35498.306     7612.513       10.681        4.074      363.554       90.710        0.062      340.919       15.269      858.105
05/25/2013  21:04:00     -389.917      -74.565      -14.297      223.476      195.713       95.082    49941.574    38303.445     9040.670       12.753        4.864      396.983      117.078        0.087      340.892       15.224      858.122
05/25/2013  21:05:00     -318.663      -55.894       13.619      305.286      184.806      125.530    93199.335    34153.147    15757.664       12.396        7.156      323.528      152.553        0.222      340.912       15.257      858.102
05/25/2013  21:06:00     -431.732      -63.163      -28.308      212.239      187.570      104.987    45045.499    35182.644    11022.183       14.120        4.563      436.328       84.797        0.038      340.883       15.208      858.144
05/25/2013  21:07:00     -594.725     -140.829       -6.676      311.718      238.634      116.888    97168.096    56946.098    13662.821       27.065        8.389      611.172      141.009        0.053      340.864       15.174      858.107
05/25/2013  21:08:00     -520.611     -182.631      -23.208      246.396      182.207      107.108    60710.852    33199.435    11472.189       20.514        5.269      551.716      116.461        0.045      340.890       15.219      858.174
05/25/2013  21:09:00     -439.154     -152.315        9.794      306.721      200.044      113.980    94078.028    40017.432    12991.480       18.159        7.354      464.818      154.965        0.111      340.871       15.186      858.170
05/25/2013  21:10:00     -547.165      -56.449      -12.859      276.698      211.518      103.599    76561.973    44739.827    10732.713       21.737        6.602      550.069      113.450        0.043      340.853       15.158      858.124
05/25/2013  21:11:00     -563.613      -86.462      -20.944      312.837      204.738      114.610    97866.880    41917.606    13135.522       23.922        7.646      570.206      136.261        0.057      340.845       15.142      858.118
05/25/2013  21:12:00     -434.682     -235.528       -8.920      254.902      225.665      129.380    64974.796    50924.784    16739.272       18.855        6.632      494.390      145.442        0.087      340.862       15.173      858.133
05/25/2013  21:13:00     -446.639     -152.049       -5.113      282.686      227.512      129.773    79911.408    51761.840    16841.011       18.555        7.426      471.811      153.615        0.106      340.839       15.133      858.172
05/25/2013  21:14:00     -391.781     -112.959       -4.112      237.083      201.360      115.306    56208.258    40546.031    13295.359       13.814        5.502      407.740      127.932        0.098      340.832       15.123      858.189
05/25/2013  21:15:00     -506.067      -66.400      -30.275      290.224      173.796      101.410    84229.717    30204.893    10283.995       19.305        6.236      510.405      127.795        0.063      340.837       15.130      858.186
05/25/2013  21:16:00     -559.556     -177.361       -3.179      348.193      272.686      121.837   121238.668    74357.896    14844.347       27.747       10.522      586.992      160.026        0.074      340.800       15.068      858.085
05/25/2013  21:17:00     -762.655      -43.506      -39.864      266.096      225.963      115.869    70807.209    51059.167    13425.631       36.019        6.765      763.895      119.188        0.024      340.789       15.050      858.092
05/25/2013  21:18:00     -326.023     -106.610       16.026      272.310      220.906      122.208    74152.475    48799.654    14934.755       12.788        6.894      343.011      145.004        0.179      340.793       15.057      858.116
05/25/2013  21:19:00     -650.264     -222.823      -37.634      306.155      257.189      113.627    93730.854    66146.340    12911.023       32.332        8.639      687.381      135.984        0.039      340.791       15.053      858.116
05/25/2013  21:20:00     -447.038     -100.535      -18.240      249.993      196.657       98.889    62496.274    38673.955     9779.011       16.060        5.547      458.203      109.140        0.057      340.787       15.046      858.143
05/25/2013  21:21:00     -668.702     -122.895      -41.420      309.221      231.356      121.125    95617.328    53525.592    14671.253       31.387        8.191      679.901      138.944        0.042      340.762       15.004      858.095
05/25/2013  21:22:00     -485.957      -74.215       -7.487      350.391      204.848      125.899   122773.510    41962.811    15850.504       21.112        9.029      491.591      167.369        0.116      340.760       15.000      858.145
05/25/2013  21:23:00     -566.588      -93.739      -33.612      308.490      198.038      112.296    95166.220    39218.881    12610.458       23.894        7.350      574.290      137.326        0.057      340.746       14.977      858.184
05/25/2013  21:24:00     -750.571     -113.932      -35.489      233.885      236.964      111.762    54702.087    56151.912    12490.766       35.045        6.167      759.169      108.254        0.020      340.739       14.965      858.187
05/25/2013  21:25:00     -754.881      -65.211      -35.643      328.249      226.575      135.076   107747.485    51336.277    18245.568       37.632        8.866      757.692      156.997        0.043      340.733       14.953      858.159
05/25/2013  21:26:00     -526.116     -203.879      -24.161      303.781      229.497      130.479    92283.158    52669.062    17024.807       24.044        8.099      564.238      131.435        0.054      340.754       14.990      858.171
05/25/2013  21:27:00     -614.484     -164.397      -50.575      320.145      242.367      102.337   102492.802    58741.885    10472.786       28.941        8.585      636.095      128.212        0.041      340.717       14.928      858.174
05/25/2013  21:28:00     -628.940      -87.238      -27.284      327.756      240.493      121.861   107423.942    57836.881    14850.143       29.199        9.006      634.961      143.303        0.051      340.682       14.867      858.217
05/25/2013  21:29:00     -663.082     -153.968      -26.512      252.159      240.327      110.992    63584.097    57757.137    12319.209       29.885        6.683      680.723      118.667        0.030      340.690       14.881      858.227
05/25/2013  21:30:00     -528.001     -112.844      -18.587      233.009      192.101      108.292    54293.421    36902.915    11727.183       19.738        5.146      539.925      120.318        0.050      340.676       14.859      858.219
05/25/2013  21:31:00     -763.449     -238.451      -20.305      253.470      264.287      126.021    64247.201    69847.591    15881.272       39.503        7.499      799.821      142.102        0.032      340.691       14.884      858.237
05/25/2013  21:32:00     -821.864     -135.320      -33.352      300.901      214.972      114.702    90541.310    46212.751    13156.436       42.237        7.496      832.930      135.041        0.026      340.661       14.833      858.235
05/25/2013  21:33:00     -713.410      -96.630      -53.225      256.200      186.214      101.305    65638.437    34675.840    10262.719       31.583        5.529      719.925      116.974        0.026      340.649       14.813      858.260
05/25/2013  21:34:00     -459.864      -65.785      -28.710      261.789      166.809      102.168    68533.497    27825.219    10438.360       16.169        5.340      464.545      108.106        0.054      340.668       14.843      858.248
05/25/2013  21:35:00     -510.765     -107.572      -30.005      293.908      194.759      101.529    86381.847    37931.186    10308.143       20.396        6.731      521.970      120.436        0.053      340.655       14.823      858.276
05/25/2013  21:36:00     -658.558     -123.624      -31.768      226.460      252.419      110.757    51284.068    63715.143    12267.022       28.861        6.363      670.060      104.113        0.024      340.622       14.766      858.254
05/25/2013  21:37:00     -604.392     -150.590      -41.160      285.187      249.720       99.938    81331.646    62360.135     9987.658       27.164        7.684      622.870      116.629        0.035      340.614       14.752      858.228
05/25/2013  21:38:00     -593.348      -97.420      -31.489      299.821      201.435      121.315    89892.455    40576.239    14717.315       25.384        7.259      601.292      142.728        0.056      340.605       14.737      858.242
05/25/2013  21:39:00     -652.552     -181.119      -27.175      326.486      265.773      123.107   106593.275    70635.391    15155.307       32.584        9.619      677.221      139.051        0.042      340.600       14.729      858.232
05/25/2013  21:40:00     -597.029     -154.219      -25.056      346.306      191.163      121.602   119927.680    36543.356    14786.930       27.603        8.563      616.626      149.650        0.059      340.612       14.749      858.263
05/25/2013  21:41:00     -726.681     -108.625      -42.277      330.119      221.402      110.283   108978.538    49019.058    12162.326       35.588        8.508      734.755      138.039        0.035      340.599       14.727      858.246
05/25/2013  21:42:00     -649.970      -68.045      -20.338      320.354      199.776      129.208   102626.432    39910.575    16694.714       29.334        7.962      653.522      153.334        0.055      340.580       14.695      858.251
05/25/2013  21:43:00     -807.312      -97.744      -66.421      336.331      251.883      116.313   113118.399    63445.027    13528.806       42.787        9.505      813.207      130.405        0.026      340.575       14.685      858.193
05/25/2013  21:44:00     -694.979     -124.626      -45.979      248.804      213.177      104.074    61903.662    45444.642    10831.325       30.939        5.909      706.064      111.534        0.025      340.549       14.644      858.131
05/25/2013  21:45:00     -617.612      -87.811      -44.338      239.785      197.437       97.163    57496.627    38981.200     9440.633       24.850        5.296      623.823      107.693        0.030      340.550       14.644      858.074
05/25/2013  21:46:00     -665.125      -93.884      -28.498      248.535      215.270      116.938    61769.801    46340.976    13674.389       28.688        6.089      671.719       96.045        0.020      340.573       14.682      858.229
05/25/2013  21:47:00     -387.709      -33.624       -7.699      268.206      175.827       92.509    71934.251    30915.009     8557.884       13.144        5.570      389.164      104.856        0.073      340.570       14.679      858.259
05/25/2013  21:48:00     -464.796     -151.557       -8.001      327.739      185.866      113.543   107413.122    34546.210    12891.945       19.693        7.743      488.881      134.293        0.075      340.573       14.683      858.256
05/25/2013  21:49:00     -314.587       -3.403       -0.176      196.249      180.356      112.075    38513.781    32528.455    12560.863        9.128        4.180      314.605       97.201        0.095      340.550       14.646      858.345
05/25/2013  21:50:00     -593.073     -113.295      -38.965      309.868      212.088      107.042    96018.038    44981.223    11458.081       25.925        7.623      603.797      116.794        0.037      340.509       14.576      858.248
05/25/2013  21:51:00     -594.988     -143.658        1.666      333.218      222.775      135.360   111034.520    49628.531    18322.454       27.679        8.949      612.085      170.353        0.077      340.517       14.589      858.269
05/25/2013  21:52:00     -511.911     -152.902      -21.510      278.610      203.107       91.320    77623.682    41252.432     8339.342       20.653        6.361      534.258       98.965        0.034      340.533       14.616      858.347
05/25/2013  21:53:00     -411.403      -41.874        4.578      228.325      204.919      112.715    52132.150    41991.723    12704.669       13.891        5.341      413.528      124.938        0.091      340.519       14.593      858.342
05/25/2013  21:54:00     -468.828      -73.661      -12.818      225.810      178.269      103.135    50989.932    31779.990    10636.858       15.938        4.670      474.579      113.614        0.057      340.511       14.578      858.367
05/25/2013  21:55:00     -535.624      -80.549      -28.709      241.332      180.361      102.687    58241.120    32530.024    10544.608       19.774        5.066      541.647      116.511        0.046      340.494       14.548      858.380
05/25/2013  21:56:00     -567.344      -79.709      -29.573      249.274      219.313      112.858    62137.332    48097.986    12736.976       22.602        6.149      572.916      109.147        0.036      340.479       14.524      858.393
05/25/2013  21:57:00     -471.580     -106.137       -4.976      249.053      160.393       93.079    62027.312    25725.786     8663.746       16.503        4.821      483.376      117.730        0.059      340.478       14.521      858.380
05/25/2013  21:58:00     -462.744      -35.391       -2.267      251.934      198.513      108.069    63470.793    39407.596    11678.906       16.495        5.728      464.096      116.958        0.064      340.462       14.495      858.386
05/25/2013  21:59:00     -732.899     -142.583      -34.819      249.850      262.736      119.510    62424.992    69030.234    14282.675       35.219        7.287      746.640      123.583        0.027      340.465       14.500      858.337
05/25/2013  22:00:00     -757.015     -127.684      -46.173      299.631      198.513      113.789    89778.914    39407.413    12947.933       36.680        7.107      767.708      126.205        0.027      340.451       14.478      858.343
05/25/2013  22:01:00     -671.377      -90.538      -32.291      255.555      199.184      104.839    65308.470    39674.440    10991.127       28.796        5.799      677.454      113.722        0.028      340.422       14.428      858.347
05/25/2013  22:02:00     -485.911      -49.938       -1.031      290.129      185.806      121.598    84174.907    34523.791    14785.986       18.602        6.674      488.471      150.180        0.095      340.440       14.458      858.337
05/25/2013  22:03:00     -857.199     -139.726      -35.019      299.739      233.108      120.711    89843.221    54339.364    14571.049       45.712        7.938      868.512      133.560        0.024      340.408       14.404      858.325
05/25/2013  22:04:00     -715.400     -164.688       -9.790      303.415      227.239      129.973    92060.815    51637.396    16893.051       34.978        8.030      734.111      148.458        0.041      340.386       14.369      858.273
05/25/2013  22:05:00     -522.793     -216.083      -26.338      240.592      199.243      110.490    57884.468    39697.853    12208.101       21.523        5.490      565.690      113.880        0.041      340.397       14.387      858.305
05/25/2013  22:06:00     -536.443      -84.259      -30.254      219.601      163.142       96.804    48224.697    26615.199     9370.924       18.998        4.211      543.020      107.964        0.040      340.393       14.379      858.304
05/25/2013  22:07:00     -634.625     -230.848      -34.892      253.529      246.502      109.041    64277.038    60763.084    11889.964       29.707        6.847      675.307      108.161        0.026      340.388       14.371      858.287
05/25/2013  22:08:00     -504.076      -63.091      -16.801      223.153      161.430       98.160    49797.326    26059.531     9635.380       17.191        4.275      508.008      112.242        0.049      340.405       14.400      858.343
05/25/2013  22:09:00     -508.848     -110.125       -5.694      259.466      216.173      123.639    67322.425    46730.959    15286.718       20.019        6.467      520.628      134.346        0.067      340.409       14.407      858.350
05/25/2013  22:10:00     -507.415      -68.160      -14.674      228.274      195.122      108.779    52108.821    38072.509    11832.875       18.216        5.101      511.973      119.767        0.055      340.383       14.363      858.413
05/25/2013  22:11:00     -409.654      -58.320       -2.007      211.299      165.515       84.523    44647.437    27395.258     7144.150       12.519        3.959      413.784       90.334        0.048      340.383       14.363      858.408
05/25/2013  22:12:00     -711.333     -122.508      -45.358      356.667      260.200      128.868   127211.540    67704.256    16606.980       36.726       10.576      721.805      138.665        0.037      340.392       14.377      858.349
05/25/2013  22:13:00     -530.579     -131.663      -22.997      234.045      227.634      108.003    54777.275    51817.459    11664.652       20.880        5.913      546.671      106.429        0.038      340.365       14.334      858.364
05/25/2013  22:14:00     -686.234     -201.016      -16.344      262.214      252.768      103.790    68756.243    63891.497    10772.440       32.748        7.171      715.069      103.801        0.021      340.352       14.310      858.354
05/25/2013  22:15:00     -496.919      -55.551      -17.960      283.164      168.199       75.866    80182.112    28290.745     5755.599       18.226        5.711      500.014      101.243        0.041      340.361       14.327      858.387
05/25/2013  22:16:00     -386.530     -105.032      -19.771      233.070      155.349       91.950    54321.572    24133.353     8454.823       12.385        4.345      400.546       88.264        0.049      340.381       14.361      858.329
05/25/2013  22:17:00     -541.434     -131.874      -16.644      206.297      214.156      104.255    42558.601    45862.835    10869.071       20.504        4.965      557.263      107.145        0.037      340.380       14.357      858.336
05/25/2013  22:18:00     -471.050     -104.480      -22.523      236.795      190.596       92.301    56071.962    36326.773     8519.411       16.710        5.046      482.498      107.725        0.050      340.371       14.343      858.367
05/25/2013  22:19:00     -481.367     -149.215      -25.940      195.515      174.457       93.828    38226.245    30435.305     8803.712       16.605        3.873      503.964       97.171        0.037      340.352       14.310      858.394
05/25/2013  22:20:00     -624.687     -202.005      -32.372      422.395      186.655      116.431   178417.294    34840.142    13556.168       32.941       11.341      656.536      152.074        0.054      340.352       14.310      858.349
05/25/2013  22:21:00     -667.895     -108.743      -15.690      299.440      215.271      107.767    89664.523    46341.782    11613.683       30.286        7.381      676.690      129.836        0.037      340.315       14.248      858.386
05/25/2013  22:22:00     -670.810     -178.092      -36.650      288.253      254.639      112.813    83089.679    64841.040    12726.828       32.183        8.033      694.049      123.228        0.032      340.295       14.213      858.394
05/25/2013  22:23:00     -600.121      -82.238      -39.292      204.333      224.755       89.708    41751.797    50514.865     8047.442       23.437        5.016      605.730       90.415        0.022      340.293       14.211      858.383
05/25/2013  22:24:00     -337.508       15.139        2.376      298.239      171.943      113.056    88946.451    29564.343    12781.711       12.270        6.565      337.847      125.360        0.138      340.311       14.242      858.356
05/25/2013  22:25:00     -701.692     -108.179      -36.645      263.187      211.856      112.929    69267.392    44882.761    12753.043       31.614        6.345      709.982      124.382        0.031      340.325       14.265      858.348
05/25/2013  22:26:00     -433.802      -89.056      -20.986      266.842      203.434      100.129    71204.727    41385.328    10025.822       15.957        6.131      442.849      114.879        0.067      340.334       14.279      858.359
05/25/2013  22:27:00     -531.160      -77.118      -34.014      206.347      179.539       92.597    42579.122    32234.182     8574.255       18.630        4.169      536.729       98.513        0.034      340.319       14.253      858.384
05/25/2013  22:28:00     -506.140      -35.151      -10.560      266.143      205.433      108.007    70831.997    42202.746    11665.433       19.109        6.235      507.359      127.168        0.063      340.280       14.188      858.356
05/25/2013  22:29:00     -503.208     -241.399      -20.395      286.391      242.134      120.256    82019.635    58628.808    14461.512       23.348        7.755      558.114      146.576        0.069      340.309       14.237      858.367
05/25/2013  22:30:00     -670.702     -169.115      -20.984      305.137      251.371      127.811    93108.751    63187.569    16335.699       32.573        8.632      691.694      151.706        0.048      340.272       14.173      858.403
05/25/2013  22:31:00     -722.933     -152.350      -36.055      263.157      206.260      113.877    69251.697    42543.079    12967.891       33.593        6.238      738.812      122.256        0.027      340.287       14.200      858.423
05/25/2013  22:32:00     -734.347     -150.958      -29.708      250.410      170.748      108.454    62704.949    29154.972    11762.348       33.326        5.181      749.702      122.394        0.027      340.253       14.144      858.442
05/25/2013  22:33:00     -585.680     -110.803      -31.731      267.076      173.042      103.458    71329.537    29943.398    10703.481       23.412        5.599      596.069      124.243        0.043      340.273       14.176      858.483
05/25/2013  22:34:00     -760.089      -19.343      -57.621      287.433      180.762      106.380    82617.471    32674.921    11316.738       35.400        6.330      760.335      118.819        0.024      340.283       14.193      858.509
05/25/2013  22:35:00     -531.188      -35.457      -36.660      295.607      177.727      109.445    87383.679    31586.935    11978.205       20.783        6.547      532.370      123.467        0.054      340.279       14.187      858.480
05/25/2013  22:36:00     -552.319     -106.415      -26.422      251.624      247.687       96.877    63314.521    61349.009     9385.155       22.554        6.702      562.477       86.449        0.024      340.260       14.155      858.447
05/25/2013  22:37:00     -514.404      -80.541      -24.275      231.253      213.404       93.299    53478.123    45541.163     8704.709       18.969        5.386      520.671      100.516        0.037      340.239       14.116      858.451
05/25/2013  22:38:00     -402.887     -149.189      -14.037      186.442      199.468       90.608    34760.774    39787.452     8209.824       13.375        4.138      429.622       93.773        0.048      340.258       14.151      858.458
05/25/2013  22:39:00     -730.958     -145.609      -52.947      284.460      265.957      104.675    80917.742    70733.125    10956.827       36.043        8.130      745.320      118.636        0.025      340.269       14.168      858.446
05/25/2013  22:40:00     -627.703      -96.230      -14.399      321.280      254.100      116.232   103220.724    64567.003    13509.767       29.236        9.065      635.037      140.460        0.049      340.242       14.122      858.448
05/25/2013  22:41:00     -568.966     -148.258      -20.045      296.484      223.347       97.186    87902.892    49884.067     9445.051       24.664        7.362      587.965      122.751        0.044      340.250       14.137      858.503
05/25/2013  22:42:00     -617.110     -168.352      -13.631      266.134      202.758       94.453    70827.141    41110.675     8921.368       26.509        6.043      639.661      107.020        0.028      340.237       14.114      858.531
05/25/2013  22:43:00     -456.054      -73.734      -16.358      192.211      157.874       81.355    36945.201    24924.139     6618.602       14.108        3.424      461.976       60.814        0.017      340.210       14.070      858.547
05/25/2013  22:44:00     -440.700     -146.492      -14.352      244.545      159.629      100.917    59802.359    25481.346    10184.162       15.566        4.773      464.409      110.506        0.057      340.221       14.088      858.559
05/25/2013  22:45:00     -567.937      -67.198      -19.613      250.545      180.671      103.750    62772.979    32642.110    10763.984       21.680        5.309      571.899      118.264        0.043      340.213       14.075      858.565
05/25/2013  22:46:00     -499.349      -34.600      -34.370      251.758      147.641       90.427    63382.160    21797.794     8177.022       17.253        4.668      500.546      109.958        0.048      340.217       14.080      858.569
05/25/2013  22:47:00     -572.577      -88.039      -37.604      172.541      191.392       98.089    29770.501    36630.991     9621.357       20.650        3.801      579.306       86.333        0.022      340.217       14.082      858.524
05/25/2013  22:48:00     -527.296     -127.845      -20.803      278.799      181.185      117.563    77728.756    32828.130    13821.102       20.958        6.219      542.573      127.906        0.056      340.223       14.090      858.524
05/25/2013  22:49:00     -527.589     -124.594      -31.625      196.850      192.023       94.531    38749.889    36872.910     8936.153       18.970        4.228      542.102       97.641        0.032      340.217       14.081      858.529
05/25/2013  22:50:00     -527.593     -173.866      -13.487      262.076      228.843      111.343    68683.809    52368.904    12397.291       22.109        6.673      555.503      125.191        0.051      340.196       14.045      858.524
05/25/2013  22:51:00     -669.874     -168.415      -39.185      336.796      220.560      114.177   113431.478    48646.523    13036.293       32.684        8.756      690.721      148.679        0.046      340.204       14.060      858.530
05/25/2013  22:52:00     -587.666      -70.193      -35.308      240.130      161.785      101.504    57662.192    26174.245    10303.092       22.282        4.707      591.843      112.562        0.036      340.199       14.050      858.473
05/25/2013  22:53:00     -457.176     -115.303        1.067      232.542      183.592       94.104    54075.685    33705.928     8855.491       15.946        4.832      471.492      105.872        0.050      340.185       14.026      858.500
05/25/2013  22:54:00     -463.729      -60.974      -22.068      198.568      212.595       92.111    39429.392    45196.779     8484.484       15.616        4.656      467.721       93.446        0.040      340.203       14.058      858.512
05/25/2013  22:55:00     -647.447     -136.136      -20.969      239.947      202.707      107.596    57574.333    41090.190    11577.000       27.418        5.512      661.605      110.981        0.028      340.214       14.076      858.512
05/25/2013  22:56:00     -522.281      -96.613      -27.840      221.777      177.475      114.544    49185.059    31497.267    13120.425       18.833        4.690      531.142      118.931        0.050      340.219       14.086      858.569
05/25/2013  22:57:00     -562.892      -31.720      -41.217      225.545      205.356       94.709    50870.501    42171.268     8969.778       21.077        5.101      563.785      112.461        0.040      340.212       14.072      858.596
05/25/2013  22:58:00     -519.446      -48.057      -16.247      277.029      179.010       99.705    76744.831    32044.601     9941.040       19.554        5.937      521.665      123.808        0.056      340.180       14.018      858.617
05/25/2013  22:59:00     -486.551      -86.017      -20.517      175.056      176.738      100.506    30644.575    31236.401    10101.497       15.826        3.599      494.096       97.674        0.039      340.199       14.051      858.641
05/25/2013  23:00:00     -479.349     -113.129      -15.952      213.695      186.874       88.961    45665.535    34921.874     7913.971       16.565        4.425      492.518       95.820        0.038      340.182       14.022      858.644
05/25/2013  23:01:00     -460.979      -11.408       -5.833      236.942      185.578       89.613    56141.328    34439.317     8030.456       15.562        4.931      461.120       94.708        0.042      340.183       14.024      858.655
05/25/2013  23:02:00     -485.420      -76.958      -16.880      229.953      177.018       79.564    52878.563    31335.221     6330.448       16.618        4.527      491.483       93.041        0.036      340.187       14.030      858.648
05/25/2013  23:03:00     -437.896     -105.445      -22.041      156.744      150.731       81.184    24568.607    22719.876     6590.776       12.861        2.694      450.413       66.186        0.022      340.174       14.009      858.688
05/25/2013  23:04:00     -458.122      -67.532       -6.533      208.276      151.600       97.509    43379.053    22982.441     9508.045       14.516        3.793      463.072       99.469        0.046      340.130       13.935      858.737
05/25/2013  23:05:00     -488.005      -83.780      -33.444      198.807      165.555       94.662    39524.051    27408.461     8960.819       16.108        3.795      495.145       92.120        0.035      340.146       13.963      858.770
05/25/2013  23:06:00     -190.932      -58.093       26.495      245.514      131.762       91.207    60277.221    17361.102     8318.667        6.323        4.298      199.574      119.322        0.357      340.152       13.973      858.791
05/25/2013  23:07:00     -721.708     -108.612      -51.360      272.222      193.553       94.606    74104.561    37462.951     8950.307       32.789        6.026      729.835       96.566        0.018      340.170       14.003      858.736
05/25/2013  23:08:00     -434.375      -87.737       -6.027      299.046      175.941       98.897    89428.553    30955.265     9780.598       16.327        6.508      443.147      109.207        0.061      340.194       14.042      858.765
05/25/2013  23:09:00     -681.481      -91.113      -29.054      255.132      180.994      109.714    65092.433    32758.829    12037.174       29.171        5.494      687.545      120.598        0.031      340.191       14.036      858.823
05/25/2013  23:10:00     -554.770     -168.388      -20.345      333.857      234.016      121.941   111460.656    54763.669    14869.565       25.879        9.055      579.762      150.886        0.068      340.178       14.014      858.860
05/25/2013  23:11:00     -464.962      -34.129      -25.271      205.640      199.806      106.185    42288.011    39922.605    11275.206       15.572        4.674      466.213      117.659        0.064      340.189       14.034      858.921
05/25/2013  23:12:00     -360.479       -8.237       -3.468      270.871      146.980       93.674    73371.050    21603.183     8774.785       11.687        5.187      360.574      110.648        0.094      340.178       14.017      858.952
05/25/2013  23:13:00     -336.347      -76.132       -1.790      170.283      170.891       80.623    28996.405    29203.684     6500.032        9.180        3.235      344.856       81.394        0.056      340.174       14.009      858.923
05/25/2013  23:14:00     -462.728      -65.477      -25.497      197.430      181.307       92.744    38978.740    32872.222     8601.465       14.974        4.023      467.338       96.108        0.042      340.166       13.994      858.885
05/25/2013  23:15:00     -469.095      -80.685       -8.362      200.669      199.506       93.945    40268.231    39802.695     8825.750       15.775        4.445      475.983       84.525        0.032      340.165       13.993      858.861
05/25/2013  23:16:00     -594.281      -55.019      -31.601      231.143      170.467      105.438    53427.087    29058.872    11117.164       22.538        4.680      596.822      114.028        0.037      340.161       13.987      858.865
05/25/2013  23:17:00     -534.146      -70.597      -26.416      282.731      204.892      101.152    79936.688    41980.544    10231.714       21.155        6.607      538.791      110.954        0.042      340.165       13.994      858.876
05/25/2013  23:18:00     -483.599       -6.190      -35.281      206.828      176.855       91.980    42777.658    31277.796     8460.280       15.882        4.126      483.638       95.272        0.039      340.152       13.971      858.924
05/25/2013  23:19:00     -514.574      -62.163      -31.673      259.909      202.654       95.294    67552.690    41068.832     9080.987       19.366        5.885      518.315       89.098        0.030      340.123       13.923      858.932
05/25/2013  23:20:00     -462.111     -114.193      -24.416      211.953      193.439      101.115    44923.926    37418.569    10224.303       15.986        4.628      476.011       92.857        0.038      340.104       13.891      858.937
05/25/2013  23:21:00     -429.486     -167.715        1.159      250.618      216.276      103.336    62809.349    46775.163    10678.293       16.641        6.013      461.071      125.133        0.074      340.081       13.853      858.931
05/25/2013  23:22:00     -455.032     -112.193        1.233      219.966      184.396       92.539    48385.055    34001.919     8563.496       15.528        4.548      468.659      107.424        0.053      340.080       13.852      858.929
05/25/2013  23:23:00     -505.055     -121.751       -6.326      216.402      167.139       89.797    46829.943    27935.436     8063.582       17.637        4.141      519.523       91.902        0.031      340.090       13.866      858.941
05/25/2013  23:24:00     -542.328      -96.678      -16.351      280.490      171.331       96.222    78674.363    29354.221     9258.671       21.049        5.864      550.878      114.603        0.043      340.090       13.867      858.934
05/25/2013  23:25:00     -484.288      -82.350      -30.373      236.748      185.970       91.402    56049.518    34584.743     8354.394       17.060        4.949      491.239       94.736        0.037      340.089       13.866      858.887
05/25/2013  23:26:00     -586.690      -61.794      -34.886      200.512      191.920       96.784    40205.214    36833.390     9367.203       21.781        4.320      589.935       97.657        0.027      340.074       13.840      858.862
05/25/2013  23:27:00     -381.235      -78.919       -5.724      166.379      178.001       86.204    27682.055    31684.242     7431.060       10.919        3.340      389.318       84.765        0.047      340.050       13.797      858.878
05/25/2013  23:28:00     -639.757      -79.531      -52.160      197.259      203.124       93.285    38911.296    41259.165     8702.182       25.359        4.444      644.681       88.390        0.019      340.064       13.822      858.906
05/25/2013  23:29:00     -482.679     -133.800      -20.278      227.573      162.392       85.403    51789.450    26371.303     7293.605       16.836        4.273      500.881       85.994        0.029      340.048       13.796      858.934
05/25/2013  23:30:00     -534.802        7.547      -22.183      224.945      141.490       80.555    50600.438    20019.457     6489.069       18.182        3.855      534.856       92.536        0.030      340.050       13.799      858.948
05/25/2013  23:31:00     -600.591      -62.582      -54.880      247.568      209.698      111.311    61289.992    43973.424    12390.057       24.263        5.883      603.842      122.528        0.041      340.064       13.822      858.957
05/25/2013  23:32:00     -480.227     -118.221       -7.684      215.471      162.422      102.992    46427.568    26380.771    10607.405       16.402        4.171      494.564      111.801        0.051      340.052       13.801      858.957
05/25/2013  23:33:00     -384.844      -63.905      -32.341      209.713      181.582       83.016    43979.517    32972.145     6891.650       11.853        4.192      390.114       82.430        0.045      340.043       13.788      858.974
05/25/2013  23:34:00     -561.716     -121.674      -22.578      238.404      159.558       86.077    56836.565    25458.760     7409.311       21.026        4.485      574.743      101.143        0.031      340.045       13.790      858.988
05/25/2013  23:35:00     -466.628     -183.818      -11.372      240.344      159.297      102.880    57765.256    25375.408    10584.354       17.268        4.686      501.529      117.291        0.055      340.036       13.775      859.001
05/25/2013  23:36:00     -434.390      -95.663        7.926      199.998      180.806       95.129    39999.196    32690.777     9049.490       13.981        4.087      444.799      110.138        0.061      340.040       13.780      859.018
05/25/2013  23:37:00     -510.505     -130.463      -35.169      219.078      169.938       95.802    47994.960    28879.082     9178.071       18.245        4.303      526.912      109.776        0.043      340.018       13.745      859.006
05/25/2013  23:38:00     -517.639     -179.622      -27.328      242.703      182.251       92.770    58904.817    33215.565     8606.277       20.083        5.036      547.918       96.003        0.031      340.029       13.764      859.024
05/25/2013  23:39:00     -424.844      -85.956      -15.722      224.189      153.337       94.478    50260.774    23512.377     8926.028       13.540        4.135      433.452      102.379        0.056      340.040       13.782      859.058
05/25/2013  23:40:00     -523.884      -85.246      -34.986      186.537      146.103       95.077    34796.139    21346.195     9039.585       17.405        3.259      530.775      103.224        0.038      340.021       13.749      859.064
05/25/2013  23:41:00     -410.019      -55.159      -28.785      180.403      128.953       77.018    32545.109    16628.946     5931.788       11.354        2.755      413.713       73.245        0.031      340.017       13.743      859.087
05/25/2013  23:42:00     -532.446      -18.009      -47.426      186.394      162.355       83.545    34742.568    26359.020     6979.846       17.707        3.404      532.751       78.411        0.022      340.032       13.769      859.058
05/25/2013  23:43:00     -512.486     -122.796      -17.655      209.105      188.976       85.562    43724.704    35712.113     7320.910       18.238        4.338      526.992       95.370        0.033      340.030       13.766      859.058
05/25/2013  23:44:00     -513.804      -11.508      -39.773      196.687      190.792       82.903    38685.789    36401.749     6872.905       17.382        4.098      513.933       85.676        0.028      340.032       13.769      859.066
05/25/2013  23:45:00     -477.244      -55.855      -20.572      191.165      173.267       95.158    36544.224    30021.546     9055.049       15.345        3.781      480.501       92.806        0.037      340.032       13.769      859.069
05/25/2013  23:46:00     -408.859      -52.006      -20.324      237.882      144.226       80.022    56587.740    20801.177     6403.592       12.702        4.190      412.153      104.734        0.065      340.040       13.782      859.075
05/25/2013  23:47:00     -650.186      -48.395      -48.628      220.856      206.855      107.561    48777.287    42789.162    11569.298       26.527        5.157      651.984      111.978        0.029      340.089       13.864      859.025
05/25/2013  23:48:00     -603.877     -255.323      -19.821      283.954      169.080      112.088    80630.127    28588.053    12563.803       27.600        6.089      655.635      110.683        0.028      340.047       13.793      859.005
05/25/2013  23:49:00     -521.199      -74.700      -25.767      215.402      151.872       85.715    46398.113    23065.143     7347.084       17.734        3.841      526.525      106.550        0.041      340.041       13.784      859.077
05/25/2013  23:50:00     -466.402      -71.903      -34.131      208.089      156.278       84.727    43300.870    24422.682     7178.697       14.937        3.745      471.912       98.372        0.043      340.047       13.794      859.081
05/25/2013  23:51:00     -512.532     -181.547      -48.485      148.388      123.430       73.827    22018.924    15234.882     5450.431       17.034        2.135      543.736       62.073        0.013      340.040       13.782      859.046
05/25/2013  23:52:00     -500.395      -66.797      -53.632      189.577      151.241       78.590    35939.522    22873.827     6176.356       16.135        3.249      504.834       82.881        0.027      339.988       13.694      859.036
05/25/2013  23:53:00     -481.585     -118.304      -42.523      230.585      180.896       93.562    53169.236    32723.425     8753.885       17.117        4.732      495.903      106.206        0.046      339.997       13.711      859.013
05/25/2013  23:54:00     -618.104     -140.811      -49.554      210.807      160.655       95.261    44439.461    25809.948     9074.622       24.182        3.966      633.940      103.651        0.027      339.993       13.704      859.006
05/25/2013  23:55:00     -713.051      -32.676      -52.987      200.884      186.140       85.326    40354.246    34648.048     7280.446       29.729        4.114      713.799       88.707        0.015      340.001       13.718      859.020
05/25/2013  23:56:00     -558.117      -39.179      -60.989      183.433      194.154       86.282    33647.665    37695.830     7444.636       19.776        3.939      559.491       70.626        0.016      339.986       13.691      859.006
05/25/2013  23:57:00     -423.485     -108.737      -35.372      198.279      160.081       86.148    39314.732    25625.979     7421.508       13.238        3.618      437.223       85.081        0.038      339.981       13.683      859.010
05/25/2013  23:58:00     -578.660     -181.934      -19.049      205.788      156.859       92.564    42348.726    24604.880     8568.051       22.190        3.776      606.587       97.428        0.026      339.989       13.697      859.063
05/25/2013  23:59:00     -470.411     -149.299      -15.903      196.197      139.444       69.370    38493.163    19444.698     4812.249       15.328        3.138      493.535       80.604        0.027      339.974       13.673      859.064
